<?xml version="1.0" encoding="UTF-8" standalone="no" ?>
<gpx xmlns="http://www.topografix.com/GPX/1/1" xmlns:xsi="http://www.w3.org/2001/XMLSchema-instance" xsi:schemaLocation="http://www.topografix.com/GPX/1/1 http://www.topografix.com/GPX/1/1/gpx.xsd" version="1.1" creator="VisuGPX - https://www.visugpx.com">
  <metadata>
    <name>Château-Arnoux-Saint-Auban VTT électrique</name>
    <desc><![CDATA[viencent,thierry,paps,christian,lionel, jean pierre1 
une des plus jolie traces de 2022]]></desc>
  </metadata>
  <trk>
    <name><![CDATA[Château-Arnoux-Saint-Auban VTT électrique]]></name>
    <trkseg>
      <trkpt lat="44.09866" lon="6.00959">
        <ele>439.39999389648</ele>
        <time>2022-01-05T09:23:32.000Z</time>
      </trkpt>
      <trkpt lat="44.09867" lon="6.00969">
        <ele>440.20001220703</ele>
        <time>2022-01-05T09:23:32.002Z</time>
      </trkpt>
      <trkpt lat="44.09865" lon="6.00966">
        <ele>440.20001220703</ele>
        <time>2022-01-05T09:23:32.005Z</time>
      </trkpt>
      <trkpt lat="44.09868" lon="6.00963">
        <ele>440.20001220703</ele>
        <time>2022-01-05T09:23:32.010Z</time>
      </trkpt>
      <trkpt lat="44.09873" lon="6.00963">
        <ele>440.20001220703</ele>
        <time>2022-01-05T09:23:32.016Z</time>
      </trkpt>
      <trkpt lat="44.09882" lon="6.0095">
        <ele>440.39999389648</ele>
        <time>2022-01-05T09:23:32.027Z</time>
      </trkpt>
      <trkpt lat="44.09885" lon="6.00932">
        <ele>440.39999389648</ele>
        <time>2022-01-05T09:23:32.042Z</time>
      </trkpt>
      <trkpt lat="44.09886" lon="6.0091">
        <ele>440.39999389648</ele>
        <time>2022-01-05T09:23:32.063Z</time>
      </trkpt>
      <trkpt lat="44.09882" lon="6.00881">
        <ele>440.39999389648</ele>
        <time>2022-01-05T09:23:32.091Z</time>
      </trkpt>
      <trkpt lat="44.09877" lon="6.00869">
        <ele>445.79998779297</ele>
        <time>2022-01-05T09:23:32.123Z</time>
      </trkpt>
      <trkpt lat="44.09867" lon="6.00861">
        <ele>446.79998779297</ele>
        <time>2022-01-05T09:23:32.159Z</time>
      </trkpt>
      <trkpt lat="44.09862" lon="6.00852">
        <ele>446.79998779297</ele>
        <time>2022-01-05T09:23:32.198Z</time>
      </trkpt>
      <trkpt lat="44.09863" lon="6.00845">
        <ele>446.79998779297</ele>
        <time>2022-01-05T09:23:32.238Z</time>
      </trkpt>
      <trkpt lat="44.09866" lon="6.00839">
        <ele>449</ele>
        <time>2022-01-05T09:23:32.280Z</time>
      </trkpt>
      <trkpt lat="44.09875" lon="6.00833">
        <ele>450</ele>
        <time>2022-01-05T09:23:32.326Z</time>
      </trkpt>
      <trkpt lat="44.09889" lon="6.00818">
        <ele>450</ele>
        <time>2022-01-05T09:23:32.378Z</time>
      </trkpt>
      <trkpt lat="44.09899" lon="6.00795">
        <ele>453.60000610352</ele>
        <time>2022-01-05T09:23:32.436Z</time>
      </trkpt>
      <trkpt lat="44.0993" lon="6.00761">
        <ele>453.60000610352</ele>
        <time>2022-01-05T09:23:32.508Z</time>
      </trkpt>
      <trkpt lat="44.09964" lon="6.00732">
        <ele>456.39999389648</ele>
        <time>2022-01-05T09:23:32.594Z</time>
      </trkpt>
      <trkpt lat="44.09991" lon="6.00703">
        <ele>456.39999389648</ele>
        <time>2022-01-05T09:23:32.692Z</time>
      </trkpt>
      <trkpt lat="44.09999" lon="6.00698">
        <ele>459.60000610352</ele>
        <time>2022-01-05T09:23:32.793Z</time>
      </trkpt>
      <trkpt lat="44.10013" lon="6.00692">
        <ele>459.60000610352</ele>
        <time>2022-01-05T09:23:32.899Z</time>
      </trkpt>
      <trkpt lat="44.10017" lon="6.00682">
        <ele>459.60000610352</ele>
        <time>2022-01-05T09:23:33.008Z</time>
      </trkpt>
      <trkpt lat="44.10013" lon="6.00678">
        <ele>461.60000610352</ele>
        <time>2022-01-05T09:23:33.119Z</time>
      </trkpt>
      <trkpt lat="44.10005" lon="6.00674">
        <ele>461.60000610352</ele>
        <time>2022-01-05T09:23:33.233Z</time>
      </trkpt>
      <trkpt lat="44.09996" lon="6.00671">
        <ele>461.60000610352</ele>
        <time>2022-01-05T09:23:33.350Z</time>
      </trkpt>
      <trkpt lat="44.09985" lon="6.0067">
        <ele>467</ele>
        <time>2022-01-05T09:23:33.471Z</time>
      </trkpt>
      <trkpt lat="44.09962" lon="6.00662">
        <ele>470.20001220703</ele>
        <time>2022-01-05T09:23:33.600Z</time>
      </trkpt>
      <trkpt lat="44.09919" lon="6.00676">
        <ele>470.20001220703</ele>
        <time>2022-01-05T09:23:33.744Z</time>
      </trkpt>
      <trkpt lat="44.09898" lon="6.00685">
        <ele>470.20001220703</ele>
        <time>2022-01-05T09:23:33.896Z</time>
      </trkpt>
      <trkpt lat="44.09887" lon="6.00689">
        <ele>470.20001220703</ele>
        <time>2022-01-05T09:23:34.052Z</time>
      </trkpt>
      <trkpt lat="44.09878" lon="6.00685">
        <ele>470.20001220703</ele>
        <time>2022-01-05T09:23:34.211Z</time>
      </trkpt>
      <trkpt lat="44.09871" lon="6.00679">
        <ele>482.60000610352</ele>
        <time>2022-01-05T09:23:34.373Z</time>
      </trkpt>
      <trkpt lat="44.09821" lon="6.00597">
        <ele>483.79998779297</ele>
        <time>2022-01-05T09:23:34.562Z</time>
      </trkpt>
      <trkpt lat="44.09806" lon="6.00568">
        <ele>484.39999389648</ele>
        <time>2022-01-05T09:23:34.760Z</time>
      </trkpt>
      <trkpt lat="44.09791" lon="6.00532">
        <ele>484.39999389648</ele>
        <time>2022-01-05T09:23:34.968Z</time>
      </trkpt>
      <trkpt lat="44.09754" lon="6.0042">
        <ele>481.79998779297</ele>
        <time>2022-01-05T09:23:35.207Z</time>
      </trkpt>
      <trkpt lat="44.09749" lon="6.00418">
        <ele>481.79998779297</ele>
        <time>2022-01-05T09:23:35.448Z</time>
      </trkpt>
      <trkpt lat="44.09741" lon="6.00424">
        <ele>481.60000610352</ele>
        <time>2022-01-05T09:23:35.692Z</time>
      </trkpt>
      <trkpt lat="44.0971" lon="6.00458">
        <ele>480.79998779297</ele>
        <time>2022-01-05T09:23:35.950Z</time>
      </trkpt>
      <trkpt lat="44.09694" lon="6.00469">
        <ele>480.79998779297</ele>
        <time>2022-01-05T09:23:36.214Z</time>
      </trkpt>
      <trkpt lat="44.09671" lon="6.00484">
        <ele>480.20001220703</ele>
        <time>2022-01-05T09:23:36.487Z</time>
      </trkpt>
      <trkpt lat="44.09664" lon="6.00486">
        <ele>480.20001220703</ele>
        <time>2022-01-05T09:23:36.762Z</time>
      </trkpt>
      <trkpt lat="44.0966" lon="6.00484">
        <ele>480</ele>
        <time>2022-01-05T09:23:37.039Z</time>
      </trkpt>
      <trkpt lat="44.09627" lon="6.00375">
        <ele>481.60000610352</ele>
        <time>2022-01-05T09:23:37.345Z</time>
      </trkpt>
      <trkpt lat="44.09611" lon="6.00341">
        <ele>483.20001220703</ele>
        <time>2022-01-05T09:23:37.661Z</time>
      </trkpt>
      <trkpt lat="44.09595" lon="6.00323">
        <ele>483.20001220703</ele>
        <time>2022-01-05T09:23:37.985Z</time>
      </trkpt>
      <trkpt lat="44.09568" lon="6.003">
        <ele>486.60000610352</ele>
        <time>2022-01-05T09:23:38.320Z</time>
      </trkpt>
      <trkpt lat="44.09557" lon="6.00288">
        <ele>487.79998779297</ele>
        <time>2022-01-05T09:23:38.659Z</time>
      </trkpt>
      <trkpt lat="44.09547" lon="6.00276">
        <ele>487.79998779297</ele>
        <time>2022-01-05T09:23:39.003Z</time>
      </trkpt>
      <trkpt lat="44.09532" lon="6.00253">
        <ele>487.79998779297</ele>
        <time>2022-01-05T09:23:39.355Z</time>
      </trkpt>
      <trkpt lat="44.09526" lon="6.00226">
        <ele>492.60000610352</ele>
        <time>2022-01-05T09:23:39.714Z</time>
      </trkpt>
      <trkpt lat="44.09519" lon="6.00134">
        <ele>496</ele>
        <time>2022-01-05T09:23:40.096Z</time>
      </trkpt>
      <trkpt lat="44.09519" lon="6.00086">
        <ele>496</ele>
        <time>2022-01-05T09:23:40.490Z</time>
      </trkpt>
      <trkpt lat="44.09524" lon="5.99959">
        <ele>496</ele>
        <time>2022-01-05T09:23:40.916Z</time>
      </trkpt>
      <trkpt lat="44.09517" lon="5.9993">
        <ele>505</ele>
        <time>2022-01-05T09:23:41.349Z</time>
      </trkpt>
      <trkpt lat="44.09499" lon="5.9989">
        <ele>505</ele>
        <time>2022-01-05T09:23:41.794Z</time>
      </trkpt>
      <trkpt lat="44.09492" lon="5.99867">
        <ele>505</ele>
        <time>2022-01-05T09:23:42.245Z</time>
      </trkpt>
      <trkpt lat="44.09483" lon="5.99763">
        <ele>517.79998779297</ele>
        <time>2022-01-05T09:23:42.723Z</time>
      </trkpt>
      <trkpt lat="44.09474" lon="5.997">
        <ele>517.79998779297</ele>
        <time>2022-01-05T09:23:43.217Z</time>
      </trkpt>
      <trkpt lat="44.09464" lon="5.99648">
        <ele>517.79998779297</ele>
        <time>2022-01-05T09:23:43.724Z</time>
      </trkpt>
      <trkpt lat="44.09456" lon="5.99624">
        <ele>517.79998779297</ele>
        <time>2022-01-05T09:23:44.238Z</time>
      </trkpt>
      <trkpt lat="44.09423" lon="5.99564">
        <ele>531</ele>
        <time>2022-01-05T09:23:44.771Z</time>
      </trkpt>
      <trkpt lat="44.09407" lon="5.99518">
        <ele>531.40002441406</ele>
        <time>2022-01-05T09:23:45.317Z</time>
      </trkpt>
      <trkpt lat="44.09392" lon="5.99487">
        <ele>531.40002441406</ele>
        <time>2022-01-05T09:23:45.872Z</time>
      </trkpt>
      <trkpt lat="44.09365" lon="5.99447">
        <ele>531.79998779297</ele>
        <time>2022-01-05T09:23:46.440Z</time>
      </trkpt>
      <trkpt lat="44.09346" lon="5.99424">
        <ele>532.40002441406</ele>
        <time>2022-01-05T09:23:47.017Z</time>
      </trkpt>
      <trkpt lat="44.09329" lon="5.99396">
        <ele>532.40002441406</ele>
        <time>2022-01-05T09:23:47.603Z</time>
      </trkpt>
      <trkpt lat="44.09309" lon="5.99356">
        <ele>533</ele>
        <time>2022-01-05T09:23:48.202Z</time>
      </trkpt>
      <trkpt lat="44.09285" lon="5.99318">
        <ele>533.40002441406</ele>
        <time>2022-01-05T09:23:48.813Z</time>
      </trkpt>
      <trkpt lat="44.09272" lon="5.99285">
        <ele>533.40002441406</ele>
        <time>2022-01-05T09:23:49.434Z</time>
      </trkpt>
      <trkpt lat="44.09265" lon="5.99248">
        <ele>533.79998779297</ele>
        <time>2022-01-05T09:23:50.064Z</time>
      </trkpt>
      <trkpt lat="44.09263" lon="5.99202">
        <ele>534.59997558594</ele>
        <time>2022-01-05T09:23:50.706Z</time>
      </trkpt>
      <trkpt lat="44.09265" lon="5.99018">
        <ele>534.59997558594</ele>
        <time>2022-01-05T09:23:51.394Z</time>
      </trkpt>
      <trkpt lat="44.09269" lon="5.98976">
        <ele>537</ele>
        <time>2022-01-05T09:23:52.092Z</time>
      </trkpt>
      <trkpt lat="44.09279" lon="5.98922">
        <ele>537</ele>
        <time>2022-01-05T09:23:52.804Z</time>
      </trkpt>
      <trkpt lat="44.09278" lon="5.98874">
        <ele>537</ele>
        <time>2022-01-05T09:23:53.528Z</time>
      </trkpt>
      <trkpt lat="44.09287" lon="5.98832">
        <ele>537</ele>
        <time>2022-01-05T09:23:54.263Z</time>
      </trkpt>
      <trkpt lat="44.09288" lon="5.98802">
        <ele>537</ele>
        <time>2022-01-05T09:23:55.006Z</time>
      </trkpt>
      <trkpt lat="44.09298" lon="5.98775">
        <ele>541.59997558594</ele>
        <time>2022-01-05T09:23:55.756Z</time>
      </trkpt>
      <trkpt lat="44.09323" lon="5.98735">
        <ele>548.20001220703</ele>
        <time>2022-01-05T09:23:56.520Z</time>
      </trkpt>
      <trkpt lat="44.09328" lon="5.98724">
        <ele>549.40002441406</ele>
        <time>2022-01-05T09:23:57.287Z</time>
      </trkpt>
      <trkpt lat="44.09332" lon="5.98703">
        <ele>549.40002441406</ele>
        <time>2022-01-05T09:23:58.059Z</time>
      </trkpt>
      <trkpt lat="44.09341" lon="5.98679">
        <ele>552.20001220703</ele>
        <time>2022-01-05T09:23:58.838Z</time>
      </trkpt>
      <trkpt lat="44.09357" lon="5.98642">
        <ele>554.79998779297</ele>
        <time>2022-01-05T09:23:59.628Z</time>
      </trkpt>
      <trkpt lat="44.09373" lon="5.98619">
        <ele>554.79998779297</ele>
        <time>2022-01-05T09:24:00.426Z</time>
      </trkpt>
      <trkpt lat="44.09392" lon="5.98585">
        <ele>559.79998779297</ele>
        <time>2022-01-05T09:24:01.235Z</time>
      </trkpt>
      <trkpt lat="44.09399" lon="5.9857">
        <ele>560.79998779297</ele>
        <time>2022-01-05T09:24:02.048Z</time>
      </trkpt>
      <trkpt lat="44.09402" lon="5.98559">
        <ele>560.79998779297</ele>
        <time>2022-01-05T09:24:02.864Z</time>
      </trkpt>
      <trkpt lat="44.09411" lon="5.9854">
        <ele>560.79998779297</ele>
        <time>2022-01-05T09:24:03.686Z</time>
      </trkpt>
      <trkpt lat="44.09416" lon="5.98522">
        <ele>564.79998779297</ele>
        <time>2022-01-05T09:24:04.513Z</time>
      </trkpt>
      <trkpt lat="44.09423" lon="5.9848">
        <ele>564.79998779297</ele>
        <time>2022-01-05T09:24:05.350Z</time>
      </trkpt>
      <trkpt lat="44.09422" lon="5.98463">
        <ele>564.79998779297</ele>
        <time>2022-01-05T09:24:06.192Z</time>
      </trkpt>
      <trkpt lat="44.09423" lon="5.9844">
        <ele>570</ele>
        <time>2022-01-05T09:24:07.040Z</time>
      </trkpt>
      <trkpt lat="44.09417" lon="5.98389">
        <ele>570</ele>
        <time>2022-01-05T09:24:07.901Z</time>
      </trkpt>
      <trkpt lat="44.09422" lon="5.9835">
        <ele>570</ele>
        <time>2022-01-05T09:24:08.771Z</time>
      </trkpt>
      <trkpt lat="44.09425" lon="5.98342">
        <ele>570</ele>
        <time>2022-01-05T09:24:09.644Z</time>
      </trkpt>
      <trkpt lat="44.09429" lon="5.98318">
        <ele>575.79998779297</ele>
        <time>2022-01-05T09:24:10.523Z</time>
      </trkpt>
      <trkpt lat="44.09429" lon="5.98302">
        <ele>577.40002441406</ele>
        <time>2022-01-05T09:24:11.406Z</time>
      </trkpt>
      <trkpt lat="44.09432" lon="5.9829">
        <ele>577.40002441406</ele>
        <time>2022-01-05T09:24:12.292Z</time>
      </trkpt>
      <trkpt lat="44.0943" lon="5.98266">
        <ele>577.40002441406</ele>
        <time>2022-01-05T09:24:13.184Z</time>
      </trkpt>
      <trkpt lat="44.09436" lon="5.9825">
        <ele>577.40002441406</ele>
        <time>2022-01-05T09:24:14.081Z</time>
      </trkpt>
      <trkpt lat="44.09437" lon="5.98244">
        <ele>577.40002441406</ele>
        <time>2022-01-05T09:24:14.979Z</time>
      </trkpt>
      <trkpt lat="44.09436" lon="5.98233">
        <ele>577.40002441406</ele>
        <time>2022-01-05T09:24:15.880Z</time>
      </trkpt>
      <trkpt lat="44.0943" lon="5.98219">
        <ele>577.40002441406</ele>
        <time>2022-01-05T09:24:16.785Z</time>
      </trkpt>
      <trkpt lat="44.09436" lon="5.982">
        <ele>584</ele>
        <time>2022-01-05T09:24:17.695Z</time>
      </trkpt>
      <trkpt lat="44.09434" lon="5.98166">
        <ele>584</ele>
        <time>2022-01-05T09:24:18.614Z</time>
      </trkpt>
      <trkpt lat="44.09439" lon="5.98137">
        <ele>584</ele>
        <time>2022-01-05T09:24:19.540Z</time>
      </trkpt>
      <trkpt lat="44.09436" lon="5.98116">
        <ele>584</ele>
        <time>2022-01-05T09:24:20.472Z</time>
      </trkpt>
      <trkpt lat="44.09437" lon="5.98085">
        <ele>584</ele>
        <time>2022-01-05T09:24:21.411Z</time>
      </trkpt>
      <trkpt lat="44.09434" lon="5.98048">
        <ele>590.40002441406</ele>
        <time>2022-01-05T09:24:22.360Z</time>
      </trkpt>
      <trkpt lat="44.09437" lon="5.98041">
        <ele>590.40002441406</ele>
        <time>2022-01-05T09:24:23.311Z</time>
      </trkpt>
      <trkpt lat="44.09437" lon="5.98036">
        <ele>591.20001220703</ele>
        <time>2022-01-05T09:24:24.263Z</time>
      </trkpt>
      <trkpt lat="44.0942" lon="5.98008">
        <ele>591.40002441406</ele>
        <time>2022-01-05T09:24:25.224Z</time>
      </trkpt>
      <trkpt lat="44.0942" lon="5.97988">
        <ele>593</ele>
        <time>2022-01-05T09:24:26.190Z</time>
      </trkpt>
      <trkpt lat="44.09409" lon="5.97973">
        <ele>594.20001220703</ele>
        <time>2022-01-05T09:24:27.162Z</time>
      </trkpt>
      <trkpt lat="44.09387" lon="5.97957">
        <ele>594.20001220703</ele>
        <time>2022-01-05T09:24:28.142Z</time>
      </trkpt>
      <trkpt lat="44.09365" lon="5.97956">
        <ele>595.59997558594</ele>
        <time>2022-01-05T09:24:29.130Z</time>
      </trkpt>
      <trkpt lat="44.0934" lon="5.97947">
        <ele>596</ele>
        <time>2022-01-05T09:24:30.127Z</time>
      </trkpt>
      <trkpt lat="44.09322" lon="5.97933">
        <ele>596</ele>
        <time>2022-01-05T09:24:31.131Z</time>
      </trkpt>
      <trkpt lat="44.09313" lon="5.97931">
        <ele>596</ele>
        <time>2022-01-05T09:24:32.138Z</time>
      </trkpt>
      <trkpt lat="44.09298" lon="5.97921">
        <ele>596</ele>
        <time>2022-01-05T09:24:33.151Z</time>
      </trkpt>
      <trkpt lat="44.09298" lon="5.97912">
        <ele>600.20001220703</ele>
        <time>2022-01-05T09:24:34.166Z</time>
      </trkpt>
      <trkpt lat="44.09303" lon="5.97907">
        <ele>600.20001220703</ele>
        <time>2022-01-05T09:24:35.183Z</time>
      </trkpt>
      <trkpt lat="44.09324" lon="5.97902">
        <ele>600.20001220703</ele>
        <time>2022-01-05T09:24:36.208Z</time>
      </trkpt>
      <trkpt lat="44.0933" lon="5.97894">
        <ele>600.20001220703</ele>
        <time>2022-01-05T09:24:37.236Z</time>
      </trkpt>
      <trkpt lat="44.09337" lon="5.97892">
        <ele>606.20001220703</ele>
        <time>2022-01-05T09:24:38.266Z</time>
      </trkpt>
      <trkpt lat="44.09345" lon="5.97883">
        <ele>606.20001220703</ele>
        <time>2022-01-05T09:24:39.300Z</time>
      </trkpt>
      <trkpt lat="44.09363" lon="5.97846">
        <ele>606.20001220703</ele>
        <time>2022-01-05T09:24:40.345Z</time>
      </trkpt>
      <trkpt lat="44.09375" lon="5.97829">
        <ele>607</ele>
        <time>2022-01-05T09:24:41.396Z</time>
      </trkpt>
      <trkpt lat="44.09414" lon="5.97778">
        <ele>607</ele>
        <time>2022-01-05T09:24:42.465Z</time>
      </trkpt>
      <trkpt lat="44.09425" lon="5.97765">
        <ele>608</ele>
        <time>2022-01-05T09:24:43.539Z</time>
      </trkpt>
      <trkpt lat="44.09433" lon="5.97759">
        <ele>608.40002441406</ele>
        <time>2022-01-05T09:24:44.617Z</time>
      </trkpt>
      <trkpt lat="44.09439" lon="5.97747">
        <ele>608.40002441406</ele>
        <time>2022-01-05T09:24:45.698Z</time>
      </trkpt>
      <trkpt lat="44.09435" lon="5.97737">
        <ele>608.59997558594</ele>
        <time>2022-01-05T09:24:46.782Z</time>
      </trkpt>
      <trkpt lat="44.09423" lon="5.97733">
        <ele>608.59997558594</ele>
        <time>2022-01-05T09:24:47.870Z</time>
      </trkpt>
      <trkpt lat="44.0941" lon="5.9773">
        <ele>609.20001220703</ele>
        <time>2022-01-05T09:24:48.963Z</time>
      </trkpt>
      <trkpt lat="44.09384" lon="5.97728">
        <ele>609.20001220703</ele>
        <time>2022-01-05T09:24:50.065Z</time>
      </trkpt>
      <trkpt lat="44.09365" lon="5.97748">
        <ele>607.79998779297</ele>
        <time>2022-01-05T09:24:51.175Z</time>
      </trkpt>
      <trkpt lat="44.09343" lon="5.97761">
        <ele>607.79998779297</ele>
        <time>2022-01-05T09:24:52.294Z</time>
      </trkpt>
      <trkpt lat="44.09325" lon="5.97756">
        <ele>606</ele>
        <time>2022-01-05T09:24:53.419Z</time>
      </trkpt>
      <trkpt lat="44.0932" lon="5.97756">
        <ele>606</ele>
        <time>2022-01-05T09:24:54.546Z</time>
      </trkpt>
      <trkpt lat="44.09315" lon="5.9776">
        <ele>603.59997558594</ele>
        <time>2022-01-05T09:24:55.675Z</time>
      </trkpt>
      <trkpt lat="44.09299" lon="5.9776">
        <ele>601.20001220703</ele>
        <time>2022-01-05T09:24:56.809Z</time>
      </trkpt>
      <trkpt lat="44.09293" lon="5.97762">
        <ele>601.20001220703</ele>
        <time>2022-01-05T09:24:57.945Z</time>
      </trkpt>
      <trkpt lat="44.09275" lon="5.97786">
        <ele>601.20001220703</ele>
        <time>2022-01-05T09:24:59.090Z</time>
      </trkpt>
      <trkpt lat="44.09266" lon="5.97805">
        <ele>595</ele>
        <time>2022-01-05T09:25:00.241Z</time>
      </trkpt>
      <trkpt lat="44.0925" lon="5.97821">
        <ele>595</ele>
        <time>2022-01-05T09:25:01.398Z</time>
      </trkpt>
      <trkpt lat="44.09241" lon="5.97835">
        <ele>595</ele>
        <time>2022-01-05T09:25:02.560Z</time>
      </trkpt>
      <trkpt lat="44.09228" lon="5.97843">
        <ele>588.59997558594</ele>
        <time>2022-01-05T09:25:03.727Z</time>
      </trkpt>
      <trkpt lat="44.09221" lon="5.97843">
        <ele>588.59997558594</ele>
        <time>2022-01-05T09:25:04.896Z</time>
      </trkpt>
      <trkpt lat="44.09214" lon="5.97841">
        <ele>586.20001220703</ele>
        <time>2022-01-05T09:25:06.068Z</time>
      </trkpt>
      <trkpt lat="44.09204" lon="5.97844">
        <ele>584.59997558594</ele>
        <time>2022-01-05T09:25:07.244Z</time>
      </trkpt>
      <trkpt lat="44.09193" lon="5.97854">
        <ele>584.59997558594</ele>
        <time>2022-01-05T09:25:08.424Z</time>
      </trkpt>
      <trkpt lat="44.0917" lon="5.97885">
        <ele>580.59997558594</ele>
        <time>2022-01-05T09:25:09.615Z</time>
      </trkpt>
      <trkpt lat="44.09156" lon="5.979">
        <ele>580</ele>
        <time>2022-01-05T09:25:10.813Z</time>
      </trkpt>
      <trkpt lat="44.0914" lon="5.9792">
        <ele>578.40002441406</ele>
        <time>2022-01-05T09:25:12.018Z</time>
      </trkpt>
      <trkpt lat="44.09128" lon="5.97939">
        <ele>577.59997558594</ele>
        <time>2022-01-05T09:25:13.229Z</time>
      </trkpt>
      <trkpt lat="44.09114" lon="5.97953">
        <ele>575.79998779297</ele>
        <time>2022-01-05T09:25:14.446Z</time>
      </trkpt>
      <trkpt lat="44.09101" lon="5.97963">
        <ele>575.20001220703</ele>
        <time>2022-01-05T09:25:15.668Z</time>
      </trkpt>
      <trkpt lat="44.09091" lon="5.97977">
        <ele>575.20001220703</ele>
        <time>2022-01-05T09:25:16.895Z</time>
      </trkpt>
      <trkpt lat="44.0908" lon="5.97984">
        <ele>573.59997558594</ele>
        <time>2022-01-05T09:25:18.127Z</time>
      </trkpt>
      <trkpt lat="44.09074" lon="5.97992">
        <ele>573</ele>
        <time>2022-01-05T09:25:19.362Z</time>
      </trkpt>
      <trkpt lat="44.09066" lon="5.97998">
        <ele>573</ele>
        <time>2022-01-05T09:25:20.600Z</time>
      </trkpt>
      <trkpt lat="44.09023" lon="5.98129">
        <ele>573</ele>
        <time>2022-01-05T09:25:21.874Z</time>
      </trkpt>
      <trkpt lat="44.09006" lon="5.9814">
        <ele>573</ele>
        <time>2022-01-05T09:25:23.154Z</time>
      </trkpt>
      <trkpt lat="44.08995" lon="5.98149">
        <ele>573</ele>
        <time>2022-01-05T09:25:24.439Z</time>
      </trkpt>
      <trkpt lat="44.08973" lon="5.9819">
        <ele>573</ele>
        <time>2022-01-05T09:25:25.736Z</time>
      </trkpt>
      <trkpt lat="44.08965" lon="5.98195">
        <ele>573</ele>
        <time>2022-01-05T09:25:27.036Z</time>
      </trkpt>
      <trkpt lat="44.08955" lon="5.98194">
        <ele>551.59997558594</ele>
        <time>2022-01-05T09:25:28.340Z</time>
      </trkpt>
      <trkpt lat="44.0895" lon="5.98198">
        <ele>551.59997558594</ele>
        <time>2022-01-05T09:25:29.646Z</time>
      </trkpt>
      <trkpt lat="44.08941" lon="5.98213">
        <ele>547</ele>
        <time>2022-01-05T09:25:30.957Z</time>
      </trkpt>
      <trkpt lat="44.08937" lon="5.98224">
        <ele>545</ele>
        <time>2022-01-05T09:25:32.271Z</time>
      </trkpt>
      <trkpt lat="44.08931" lon="5.98232">
        <ele>542.79998779297</ele>
        <time>2022-01-05T09:25:33.588Z</time>
      </trkpt>
      <trkpt lat="44.08918" lon="5.9824">
        <ele>542.79998779297</ele>
        <time>2022-01-05T09:25:34.910Z</time>
      </trkpt>
      <trkpt lat="44.08903" lon="5.98244">
        <ele>542.79998779297</ele>
        <time>2022-01-05T09:25:36.237Z</time>
      </trkpt>
      <trkpt lat="44.08896" lon="5.98243">
        <ele>542.79998779297</ele>
        <time>2022-01-05T09:25:37.566Z</time>
      </trkpt>
      <trkpt lat="44.08893" lon="5.98236">
        <ele>542.79998779297</ele>
        <time>2022-01-05T09:25:38.898Z</time>
      </trkpt>
      <trkpt lat="44.08891" lon="5.98201">
        <ele>539</ele>
        <time>2022-01-05T09:25:40.238Z</time>
      </trkpt>
      <trkpt lat="44.08887" lon="5.98175">
        <ele>539</ele>
        <time>2022-01-05T09:25:41.585Z</time>
      </trkpt>
      <trkpt lat="44.08888" lon="5.98173">
        <ele>541.20001220703</ele>
        <time>2022-01-05T09:25:42.933Z</time>
      </trkpt>
      <trkpt lat="44.08885" lon="5.98161">
        <ele>541.59997558594</ele>
        <time>2022-01-05T09:25:44.284Z</time>
      </trkpt>
      <trkpt lat="44.0887" lon="5.98131">
        <ele>541.20001220703</ele>
        <time>2022-01-05T09:25:45.644Z</time>
      </trkpt>
      <trkpt lat="44.08865" lon="5.98118">
        <ele>541.20001220703</ele>
        <time>2022-01-05T09:25:47.008Z</time>
      </trkpt>
      <trkpt lat="44.08866" lon="5.98109">
        <ele>541.20001220703</ele>
        <time>2022-01-05T09:25:48.374Z</time>
      </trkpt>
      <trkpt lat="44.08863" lon="5.98083">
        <ele>547.79998779297</ele>
        <time>2022-01-05T09:25:49.746Z</time>
      </trkpt>
      <trkpt lat="44.08856" lon="5.98069">
        <ele>547.79998779297</ele>
        <time>2022-01-05T09:25:51.122Z</time>
      </trkpt>
      <trkpt lat="44.08844" lon="5.98055">
        <ele>547.79998779297</ele>
        <time>2022-01-05T09:25:52.504Z</time>
      </trkpt>
      <trkpt lat="44.08825" lon="5.98018">
        <ele>547.79998779297</ele>
        <time>2022-01-05T09:25:53.897Z</time>
      </trkpt>
      <trkpt lat="44.08781" lon="5.97975">
        <ele>547.79998779297</ele>
        <time>2022-01-05T09:25:55.309Z</time>
      </trkpt>
      <trkpt lat="44.08771" lon="5.97971">
        <ele>547.79998779297</ele>
        <time>2022-01-05T09:25:56.725Z</time>
      </trkpt>
      <trkpt lat="44.08757" lon="5.97971">
        <ele>565.59997558594</ele>
        <time>2022-01-05T09:25:58.145Z</time>
      </trkpt>
      <trkpt lat="44.08745" lon="5.97967">
        <ele>565.59997558594</ele>
        <time>2022-01-05T09:25:59.570Z</time>
      </trkpt>
      <trkpt lat="44.08736" lon="5.97962">
        <ele>565.59997558594</ele>
        <time>2022-01-05T09:26:00.998Z</time>
      </trkpt>
      <trkpt lat="44.08727" lon="5.97956">
        <ele>568.79998779297</ele>
        <time>2022-01-05T09:26:02.430Z</time>
      </trkpt>
      <trkpt lat="44.08696" lon="5.97927">
        <ele>573</ele>
        <time>2022-01-05T09:26:03.875Z</time>
      </trkpt>
      <trkpt lat="44.0869" lon="5.97926">
        <ele>573</ele>
        <time>2022-01-05T09:26:05.322Z</time>
      </trkpt>
      <trkpt lat="44.08683" lon="5.97918">
        <ele>573</ele>
        <time>2022-01-05T09:26:06.772Z</time>
      </trkpt>
      <trkpt lat="44.08659" lon="5.97905">
        <ele>573</ele>
        <time>2022-01-05T09:26:08.231Z</time>
      </trkpt>
      <trkpt lat="44.0865" lon="5.97896">
        <ele>573</ele>
        <time>2022-01-05T09:26:09.694Z</time>
      </trkpt>
      <trkpt lat="44.0864" lon="5.9788">
        <ele>573</ele>
        <time>2022-01-05T09:26:11.162Z</time>
      </trkpt>
      <trkpt lat="44.0863" lon="5.97854">
        <ele>573</ele>
        <time>2022-01-05T09:26:12.637Z</time>
      </trkpt>
      <trkpt lat="44.08617" lon="5.97814">
        <ele>580.20001220703</ele>
        <time>2022-01-05T09:26:14.123Z</time>
      </trkpt>
      <trkpt lat="44.08608" lon="5.97789">
        <ele>580.20001220703</ele>
        <time>2022-01-05T09:26:15.616Z</time>
      </trkpt>
      <trkpt lat="44.08594" lon="5.9777">
        <ele>580.20001220703</ele>
        <time>2022-01-05T09:26:17.116Z</time>
      </trkpt>
      <trkpt lat="44.08567" lon="5.97712">
        <ele>580.20001220703</ele>
        <time>2022-01-05T09:26:18.633Z</time>
      </trkpt>
      <trkpt lat="44.08559" lon="5.97692">
        <ele>580.20001220703</ele>
        <time>2022-01-05T09:26:20.156Z</time>
      </trkpt>
      <trkpt lat="44.08523" lon="5.97625">
        <ele>580.20001220703</ele>
        <time>2022-01-05T09:26:21.700Z</time>
      </trkpt>
      <trkpt lat="44.08519" lon="5.97615">
        <ele>594</ele>
        <time>2022-01-05T09:26:23.247Z</time>
      </trkpt>
      <trkpt lat="44.08516" lon="5.97597">
        <ele>594</ele>
        <time>2022-01-05T09:26:24.798Z</time>
      </trkpt>
      <trkpt lat="44.08514" lon="5.97569">
        <ele>596.20001220703</ele>
        <time>2022-01-05T09:26:26.356Z</time>
      </trkpt>
      <trkpt lat="44.08516" lon="5.97548">
        <ele>596.20001220703</ele>
        <time>2022-01-05T09:26:27.920Z</time>
      </trkpt>
      <trkpt lat="44.08521" lon="5.97522">
        <ele>596.40002441406</ele>
        <time>2022-01-05T09:26:29.490Z</time>
      </trkpt>
      <trkpt lat="44.08553" lon="5.9743">
        <ele>596.40002441406</ele>
        <time>2022-01-05T09:26:31.086Z</time>
      </trkpt>
      <trkpt lat="44.08563" lon="5.97404">
        <ele>594.40002441406</ele>
        <time>2022-01-05T09:26:32.689Z</time>
      </trkpt>
      <trkpt lat="44.08574" lon="5.97381">
        <ele>594.40002441406</ele>
        <time>2022-01-05T09:26:34.299Z</time>
      </trkpt>
      <trkpt lat="44.08575" lon="5.97363">
        <ele>594.40002441406</ele>
        <time>2022-01-05T09:26:35.914Z</time>
      </trkpt>
      <trkpt lat="44.08563" lon="5.97294">
        <ele>593.59997558594</ele>
        <time>2022-01-05T09:26:37.547Z</time>
      </trkpt>
      <trkpt lat="44.08565" lon="5.97261">
        <ele>593.59997558594</ele>
        <time>2022-01-05T09:26:39.188Z</time>
      </trkpt>
      <trkpt lat="44.08574" lon="5.97224">
        <ele>590.59997558594</ele>
        <time>2022-01-05T09:26:40.839Z</time>
      </trkpt>
      <trkpt lat="44.08583" lon="5.97197">
        <ele>590</ele>
        <time>2022-01-05T09:26:42.497Z</time>
      </trkpt>
      <trkpt lat="44.08589" lon="5.97154">
        <ele>590</ele>
        <time>2022-01-05T09:26:44.166Z</time>
      </trkpt>
      <trkpt lat="44.08596" lon="5.97122">
        <ele>590</ele>
        <time>2022-01-05T09:26:45.844Z</time>
      </trkpt>
      <trkpt lat="44.08605" lon="5.97097">
        <ele>590</ele>
        <time>2022-01-05T09:26:47.529Z</time>
      </trkpt>
      <trkpt lat="44.08618" lon="5.97074">
        <ele>584.20001220703</ele>
        <time>2022-01-05T09:26:49.221Z</time>
      </trkpt>
      <trkpt lat="44.08646" lon="5.9704">
        <ele>582.40002441406</ele>
        <time>2022-01-05T09:26:50.926Z</time>
      </trkpt>
      <trkpt lat="44.08674" lon="5.97018">
        <ele>581.20001220703</ele>
        <time>2022-01-05T09:26:52.642Z</time>
      </trkpt>
      <trkpt lat="44.0873" lon="5.96975">
        <ele>581.20001220703</ele>
        <time>2022-01-05T09:26:54.380Z</time>
      </trkpt>
      <trkpt lat="44.08753" lon="5.96951">
        <ele>581.20001220703</ele>
        <time>2022-01-05T09:26:56.128Z</time>
      </trkpt>
      <trkpt lat="44.08761" lon="5.96932">
        <ele>577.79998779297</ele>
        <time>2022-01-05T09:26:57.881Z</time>
      </trkpt>
      <trkpt lat="44.0877" lon="5.96922">
        <ele>577.79998779297</ele>
        <time>2022-01-05T09:26:59.638Z</time>
      </trkpt>
      <trkpt lat="44.08781" lon="5.96913">
        <ele>575.20001220703</ele>
        <time>2022-01-05T09:27:01.400Z</time>
      </trkpt>
      <trkpt lat="44.08795" lon="5.96885">
        <ele>572.59997558594</ele>
        <time>2022-01-05T09:27:03.171Z</time>
      </trkpt>
      <trkpt lat="44.08801" lon="5.96881">
        <ele>572.59997558594</ele>
        <time>2022-01-05T09:27:04.944Z</time>
      </trkpt>
      <trkpt lat="44.08814" lon="5.96878">
        <ele>571.40002441406</ele>
        <time>2022-01-05T09:27:06.722Z</time>
      </trkpt>
      <trkpt lat="44.08829" lon="5.96877">
        <ele>570</ele>
        <time>2022-01-05T09:27:08.505Z</time>
      </trkpt>
      <trkpt lat="44.08841" lon="5.9687">
        <ele>570</ele>
        <time>2022-01-05T09:27:10.292Z</time>
      </trkpt>
      <trkpt lat="44.08855" lon="5.96854">
        <ele>566.59997558594</ele>
        <time>2022-01-05T09:27:12.086Z</time>
      </trkpt>
      <trkpt lat="44.08865" lon="5.96847">
        <ele>566.59997558594</ele>
        <time>2022-01-05T09:27:13.884Z</time>
      </trkpt>
      <trkpt lat="44.08874" lon="5.96849">
        <ele>566.59997558594</ele>
        <time>2022-01-05T09:27:15.685Z</time>
      </trkpt>
      <trkpt lat="44.08885" lon="5.96853">
        <ele>566.59997558594</ele>
        <time>2022-01-05T09:27:17.489Z</time>
      </trkpt>
      <trkpt lat="44.08904" lon="5.96847">
        <ele>566.59997558594</ele>
        <time>2022-01-05T09:27:19.300Z</time>
      </trkpt>
      <trkpt lat="44.08918" lon="5.96822">
        <ele>566.79998779297</ele>
        <time>2022-01-05T09:27:21.119Z</time>
      </trkpt>
      <trkpt lat="44.08917" lon="5.96827">
        <ele>566.79998779297</ele>
        <time>2022-01-05T09:27:22.940Z</time>
      </trkpt>
      <trkpt lat="44.08903" lon="5.96843">
        <ele>565.20001220703</ele>
        <time>2022-01-05T09:27:24.767Z</time>
      </trkpt>
      <trkpt lat="44.089" lon="5.96843">
        <ele>564.79998779297</ele>
        <time>2022-01-05T09:27:26.595Z</time>
      </trkpt>
      <trkpt lat="44.08895" lon="5.96824">
        <ele>563.40002441406</ele>
        <time>2022-01-05T09:27:28.428Z</time>
      </trkpt>
      <trkpt lat="44.08882" lon="5.96801">
        <ele>563.40002441406</ele>
        <time>2022-01-05T09:27:30.268Z</time>
      </trkpt>
      <trkpt lat="44.08882" lon="5.96786">
        <ele>565</ele>
        <time>2022-01-05T09:27:32.112Z</time>
      </trkpt>
      <trkpt lat="44.08885" lon="5.96775">
        <ele>565</ele>
        <time>2022-01-05T09:27:33.959Z</time>
      </trkpt>
      <trkpt lat="44.08893" lon="5.96764">
        <ele>566.20001220703</ele>
        <time>2022-01-05T09:27:35.810Z</time>
      </trkpt>
      <trkpt lat="44.08903" lon="5.96756">
        <ele>567.20001220703</ele>
        <time>2022-01-05T09:27:37.665Z</time>
      </trkpt>
      <trkpt lat="44.08924" lon="5.96747">
        <ele>567.20001220703</ele>
        <time>2022-01-05T09:27:39.527Z</time>
      </trkpt>
      <trkpt lat="44.08969" lon="5.96741">
        <ele>573.40002441406</ele>
        <time>2022-01-05T09:27:41.405Z</time>
      </trkpt>
      <trkpt lat="44.08996" lon="5.96721">
        <ele>576</ele>
        <time>2022-01-05T09:27:43.293Z</time>
      </trkpt>
      <trkpt lat="44.09018" lon="5.96716">
        <ele>576</ele>
        <time>2022-01-05T09:27:45.189Z</time>
      </trkpt>
      <trkpt lat="44.09043" lon="5.96685">
        <ele>576.40002441406</ele>
        <time>2022-01-05T09:27:47.097Z</time>
      </trkpt>
      <trkpt lat="44.09048" lon="5.96676">
        <ele>576.40002441406</ele>
        <time>2022-01-05T09:27:49.008Z</time>
      </trkpt>
      <trkpt lat="44.09055" lon="5.96656">
        <ele>579.40002441406</ele>
        <time>2022-01-05T09:27:50.924Z</time>
      </trkpt>
      <trkpt lat="44.0906" lon="5.96649">
        <ele>579.40002441406</ele>
        <time>2022-01-05T09:27:52.843Z</time>
      </trkpt>
      <trkpt lat="44.09069" lon="5.96643">
        <ele>579.40002441406</ele>
        <time>2022-01-05T09:27:54.765Z</time>
      </trkpt>
      <trkpt lat="44.09105" lon="5.96637">
        <ele>583.59997558594</ele>
        <time>2022-01-05T09:27:56.700Z</time>
      </trkpt>
      <trkpt lat="44.09124" lon="5.96643">
        <ele>583.59997558594</ele>
        <time>2022-01-05T09:27:58.642Z</time>
      </trkpt>
      <trkpt lat="44.09141" lon="5.96636">
        <ele>583.59997558594</ele>
        <time>2022-01-05T09:28:00.590Z</time>
      </trkpt>
      <trkpt lat="44.09153" lon="5.96627">
        <ele>582.79998779297</ele>
        <time>2022-01-05T09:28:02.543Z</time>
      </trkpt>
      <trkpt lat="44.09159" lon="5.96616">
        <ele>582.79998779297</ele>
        <time>2022-01-05T09:28:04.499Z</time>
      </trkpt>
      <trkpt lat="44.09162" lon="5.96597">
        <ele>582.79998779297</ele>
        <time>2022-01-05T09:28:06.460Z</time>
      </trkpt>
      <trkpt lat="44.09162" lon="5.96591">
        <ele>581.59997558594</ele>
        <time>2022-01-05T09:28:08.423Z</time>
      </trkpt>
      <trkpt lat="44.0916" lon="5.9658">
        <ele>581.59997558594</ele>
        <time>2022-01-05T09:28:10.388Z</time>
      </trkpt>
      <trkpt lat="44.09157" lon="5.96577">
        <ele>581.59997558594</ele>
        <time>2022-01-05T09:28:12.355Z</time>
      </trkpt>
      <trkpt lat="44.09126" lon="5.96563">
        <ele>581.59997558594</ele>
        <time>2022-01-05T09:28:14.333Z</time>
      </trkpt>
      <trkpt lat="44.09074" lon="5.96552">
        <ele>581.59997558594</ele>
        <time>2022-01-05T09:28:16.329Z</time>
      </trkpt>
      <trkpt lat="44.09043" lon="5.9654">
        <ele>585</ele>
        <time>2022-01-05T09:28:18.336Z</time>
      </trkpt>
      <trkpt lat="44.09021" lon="5.96535">
        <ele>586</ele>
        <time>2022-01-05T09:28:20.351Z</time>
      </trkpt>
      <trkpt lat="44.09016" lon="5.96531">
        <ele>586</ele>
        <time>2022-01-05T09:28:22.368Z</time>
      </trkpt>
      <trkpt lat="44.09014" lon="5.96524">
        <ele>586.79998779297</ele>
        <time>2022-01-05T09:28:24.387Z</time>
      </trkpt>
      <trkpt lat="44.09014" lon="5.96494">
        <ele>589.20001220703</ele>
        <time>2022-01-05T09:28:26.413Z</time>
      </trkpt>
      <trkpt lat="44.09019" lon="5.96431">
        <ele>596</ele>
        <time>2022-01-05T09:28:28.455Z</time>
      </trkpt>
      <trkpt lat="44.09018" lon="5.96421">
        <ele>596</ele>
        <time>2022-01-05T09:28:30.500Z</time>
      </trkpt>
      <trkpt lat="44.09009" lon="5.96389">
        <ele>596</ele>
        <time>2022-01-05T09:28:32.554Z</time>
      </trkpt>
      <trkpt lat="44.09009" lon="5.96378">
        <ele>596</ele>
        <time>2022-01-05T09:28:34.610Z</time>
      </trkpt>
      <trkpt lat="44.09016" lon="5.96354">
        <ele>604.40002441406</ele>
        <time>2022-01-05T09:28:36.673Z</time>
      </trkpt>
      <trkpt lat="44.09026" lon="5.96341">
        <ele>604.40002441406</ele>
        <time>2022-01-05T09:28:38.740Z</time>
      </trkpt>
      <trkpt lat="44.09035" lon="5.96332">
        <ele>608.20001220703</ele>
        <time>2022-01-05T09:28:40.811Z</time>
      </trkpt>
      <trkpt lat="44.09051" lon="5.96298">
        <ele>612.79998779297</ele>
        <time>2022-01-05T09:28:42.893Z</time>
      </trkpt>
      <trkpt lat="44.09058" lon="5.9629">
        <ele>612.79998779297</ele>
        <time>2022-01-05T09:28:44.978Z</time>
      </trkpt>
      <trkpt lat="44.09072" lon="5.96281">
        <ele>615.59997558594</ele>
        <time>2022-01-05T09:28:47.068Z</time>
      </trkpt>
      <trkpt lat="44.09085" lon="5.96277">
        <ele>618.40002441406</ele>
        <time>2022-01-05T09:28:49.163Z</time>
      </trkpt>
      <trkpt lat="44.09123" lon="5.96275">
        <ele>626</ele>
        <time>2022-01-05T09:28:51.271Z</time>
      </trkpt>
      <trkpt lat="44.09132" lon="5.96276">
        <ele>627.20001220703</ele>
        <time>2022-01-05T09:28:53.382Z</time>
      </trkpt>
      <trkpt lat="44.09186" lon="5.96261">
        <ele>627.20001220703</ele>
        <time>2022-01-05T09:28:55.512Z</time>
      </trkpt>
      <trkpt lat="44.09196" lon="5.9626">
        <ele>630.59997558594</ele>
        <time>2022-01-05T09:28:57.646Z</time>
      </trkpt>
      <trkpt lat="44.09222" lon="5.96262">
        <ele>634</ele>
        <time>2022-01-05T09:28:59.788Z</time>
      </trkpt>
      <trkpt lat="44.09234" lon="5.96255">
        <ele>634</ele>
        <time>2022-01-05T09:29:01.935Z</time>
      </trkpt>
      <trkpt lat="44.09247" lon="5.96255">
        <ele>634</ele>
        <time>2022-01-05T09:29:04.087Z</time>
      </trkpt>
      <trkpt lat="44.0926" lon="5.96252">
        <ele>636</ele>
        <time>2022-01-05T09:29:06.243Z</time>
      </trkpt>
      <trkpt lat="44.09283" lon="5.96241">
        <ele>638.20001220703</ele>
        <time>2022-01-05T09:29:08.408Z</time>
      </trkpt>
      <trkpt lat="44.09305" lon="5.96239">
        <ele>639.79998779297</ele>
        <time>2022-01-05T09:29:10.580Z</time>
      </trkpt>
      <trkpt lat="44.09338" lon="5.96219">
        <ele>639.79998779297</ele>
        <time>2022-01-05T09:29:12.765Z</time>
      </trkpt>
      <trkpt lat="44.09351" lon="5.9622">
        <ele>645.79998779297</ele>
        <time>2022-01-05T09:29:14.954Z</time>
      </trkpt>
      <trkpt lat="44.09361" lon="5.96225">
        <ele>645.79998779297</ele>
        <time>2022-01-05T09:29:17.147Z</time>
      </trkpt>
      <trkpt lat="44.09372" lon="5.96225">
        <ele>646.79998779297</ele>
        <time>2022-01-05T09:29:19.344Z</time>
      </trkpt>
      <trkpt lat="44.09385" lon="5.96223">
        <ele>646.79998779297</ele>
        <time>2022-01-05T09:29:21.545Z</time>
      </trkpt>
      <trkpt lat="44.09404" lon="5.96214">
        <ele>646.79998779297</ele>
        <time>2022-01-05T09:29:23.754Z</time>
      </trkpt>
      <trkpt lat="44.09419" lon="5.96204">
        <ele>648.59997558594</ele>
        <time>2022-01-05T09:29:25.968Z</time>
      </trkpt>
      <trkpt lat="44.09463" lon="5.96172">
        <ele>644</ele>
        <time>2022-01-05T09:29:28.199Z</time>
      </trkpt>
      <trkpt lat="44.09493" lon="5.96156">
        <ele>644</ele>
        <time>2022-01-05T09:29:30.441Z</time>
      </trkpt>
      <trkpt lat="44.09502" lon="5.96145">
        <ele>641</ele>
        <time>2022-01-05T09:29:32.688Z</time>
      </trkpt>
      <trkpt lat="44.09507" lon="5.96134">
        <ele>642</ele>
        <time>2022-01-05T09:29:34.938Z</time>
      </trkpt>
      <trkpt lat="44.09514" lon="5.96098">
        <ele>648.59997558594</ele>
        <time>2022-01-05T09:29:37.197Z</time>
      </trkpt>
      <trkpt lat="44.09521" lon="5.96084">
        <ele>648.59997558594</ele>
        <time>2022-01-05T09:29:39.461Z</time>
      </trkpt>
      <trkpt lat="44.0953" lon="5.96076">
        <ele>648.59997558594</ele>
        <time>2022-01-05T09:29:41.728Z</time>
      </trkpt>
      <trkpt lat="44.09535" lon="5.96068">
        <ele>654</ele>
        <time>2022-01-05T09:29:43.998Z</time>
      </trkpt>
      <trkpt lat="44.09554" lon="5.96052">
        <ele>654</ele>
        <time>2022-01-05T09:29:46.276Z</time>
      </trkpt>
      <trkpt lat="44.09564" lon="5.96049">
        <ele>654</ele>
        <time>2022-01-05T09:29:48.557Z</time>
      </trkpt>
      <trkpt lat="44.09588" lon="5.96025">
        <ele>654</ele>
        <time>2022-01-05T09:29:50.849Z</time>
      </trkpt>
      <trkpt lat="44.09609" lon="5.95994">
        <ele>660.20001220703</ele>
        <time>2022-01-05T09:29:53.151Z</time>
      </trkpt>
      <trkpt lat="44.09617" lon="5.95987">
        <ele>660.20001220703</ele>
        <time>2022-01-05T09:29:55.456Z</time>
      </trkpt>
      <trkpt lat="44.09648" lon="5.95978">
        <ele>660.20001220703</ele>
        <time>2022-01-05T09:29:57.772Z</time>
      </trkpt>
      <trkpt lat="44.09658" lon="5.95977">
        <ele>660.20001220703</ele>
        <time>2022-01-05T09:30:00.092Z</time>
      </trkpt>
      <trkpt lat="44.09679" lon="5.95979">
        <ele>660.20001220703</ele>
        <time>2022-01-05T09:30:02.419Z</time>
      </trkpt>
      <trkpt lat="44.09703" lon="5.95978">
        <ele>660.20001220703</ele>
        <time>2022-01-05T09:30:04.755Z</time>
      </trkpt>
      <trkpt lat="44.09732" lon="5.95973">
        <ele>660.20001220703</ele>
        <time>2022-01-05T09:30:07.101Z</time>
      </trkpt>
      <trkpt lat="44.09761" lon="5.95962">
        <ele>660.20001220703</ele>
        <time>2022-01-05T09:30:09.457Z</time>
      </trkpt>
      <trkpt lat="44.09766" lon="5.95958">
        <ele>662</ele>
        <time>2022-01-05T09:30:11.815Z</time>
      </trkpt>
      <trkpt lat="44.09771" lon="5.95951">
        <ele>662</ele>
        <time>2022-01-05T09:30:14.176Z</time>
      </trkpt>
      <trkpt lat="44.0978" lon="5.95947">
        <ele>661.40002441406</ele>
        <time>2022-01-05T09:30:16.540Z</time>
      </trkpt>
      <trkpt lat="44.09784" lon="5.95946">
        <ele>661.40002441406</ele>
        <time>2022-01-05T09:30:18.905Z</time>
      </trkpt>
      <trkpt lat="44.09822" lon="5.95951">
        <ele>661.40002441406</ele>
        <time>2022-01-05T09:30:21.284Z</time>
      </trkpt>
      <trkpt lat="44.09829" lon="5.95946">
        <ele>660.79998779297</ele>
        <time>2022-01-05T09:30:23.665Z</time>
      </trkpt>
      <trkpt lat="44.0984" lon="5.95945">
        <ele>660.79998779297</ele>
        <time>2022-01-05T09:30:26.050Z</time>
      </trkpt>
      <trkpt lat="44.09852" lon="5.95941">
        <ele>660.79998779297</ele>
        <time>2022-01-05T09:30:28.440Z</time>
      </trkpt>
      <trkpt lat="44.09873" lon="5.95927">
        <ele>660.79998779297</ele>
        <time>2022-01-05T09:30:30.837Z</time>
      </trkpt>
      <trkpt lat="44.09889" lon="5.9591">
        <ele>663.79998779297</ele>
        <time>2022-01-05T09:30:33.241Z</time>
      </trkpt>
      <trkpt lat="44.09922" lon="5.95899">
        <ele>666</ele>
        <time>2022-01-05T09:30:35.657Z</time>
      </trkpt>
      <trkpt lat="44.09929" lon="5.95892">
        <ele>667</ele>
        <time>2022-01-05T09:30:38.076Z</time>
      </trkpt>
      <trkpt lat="44.09934" lon="5.95886">
        <ele>667</ele>
        <time>2022-01-05T09:30:40.497Z</time>
      </trkpt>
      <trkpt lat="44.09948" lon="5.95875">
        <ele>667.79998779297</ele>
        <time>2022-01-05T09:30:42.924Z</time>
      </trkpt>
      <trkpt lat="44.09975" lon="5.95868">
        <ele>667.79998779297</ele>
        <time>2022-01-05T09:30:45.361Z</time>
      </trkpt>
      <trkpt lat="44.09982" lon="5.95861">
        <ele>667.79998779297</ele>
        <time>2022-01-05T09:30:47.801Z</time>
      </trkpt>
      <trkpt lat="44.09988" lon="5.95852">
        <ele>667.79998779297</ele>
        <time>2022-01-05T09:30:50.244Z</time>
      </trkpt>
      <trkpt lat="44.10023" lon="5.95821">
        <ele>667.79998779297</ele>
        <time>2022-01-05T09:30:52.701Z</time>
      </trkpt>
      <trkpt lat="44.10024" lon="5.95817">
        <ele>667.79998779297</ele>
        <time>2022-01-05T09:30:55.159Z</time>
      </trkpt>
      <trkpt lat="44.10036" lon="5.95795">
        <ele>667.79998779297</ele>
        <time>2022-01-05T09:30:57.624Z</time>
      </trkpt>
      <trkpt lat="44.10042" lon="5.95706">
        <ele>685</ele>
        <time>2022-01-05T09:31:00.111Z</time>
      </trkpt>
      <trkpt lat="44.10039" lon="5.95684">
        <ele>685</ele>
        <time>2022-01-05T09:31:02.604Z</time>
      </trkpt>
      <trkpt lat="44.1003" lon="5.95667">
        <ele>685</ele>
        <time>2022-01-05T09:31:05.102Z</time>
      </trkpt>
      <trkpt lat="44.10021" lon="5.95656">
        <ele>685</ele>
        <time>2022-01-05T09:31:07.605Z</time>
      </trkpt>
      <trkpt lat="44.10019" lon="5.9565">
        <ele>690</ele>
        <time>2022-01-05T09:31:10.109Z</time>
      </trkpt>
      <trkpt lat="44.10029" lon="5.95621">
        <ele>690</ele>
        <time>2022-01-05T09:31:12.621Z</time>
      </trkpt>
      <trkpt lat="44.10049" lon="5.95588">
        <ele>690</ele>
        <time>2022-01-05T09:31:15.144Z</time>
      </trkpt>
      <trkpt lat="44.10063" lon="5.95583">
        <ele>690</ele>
        <time>2022-01-05T09:31:17.672Z</time>
      </trkpt>
      <trkpt lat="44.10096" lon="5.95567">
        <ele>701.20001220703</ele>
        <time>2022-01-05T09:31:20.212Z</time>
      </trkpt>
      <trkpt lat="44.10113" lon="5.95555">
        <ele>702.59997558594</ele>
        <time>2022-01-05T09:31:22.759Z</time>
      </trkpt>
      <trkpt lat="44.10127" lon="5.95547">
        <ele>702.40002441406</ele>
        <time>2022-01-05T09:31:25.311Z</time>
      </trkpt>
      <trkpt lat="44.10134" lon="5.95538">
        <ele>702.40002441406</ele>
        <time>2022-01-05T09:31:27.866Z</time>
      </trkpt>
      <trkpt lat="44.10145" lon="5.9553">
        <ele>702.40002441406</ele>
        <time>2022-01-05T09:31:30.426Z</time>
      </trkpt>
      <trkpt lat="44.10157" lon="5.95515">
        <ele>703</ele>
        <time>2022-01-05T09:31:32.991Z</time>
      </trkpt>
      <trkpt lat="44.10161" lon="5.95516">
        <ele>703</ele>
        <time>2022-01-05T09:31:35.558Z</time>
      </trkpt>
      <trkpt lat="44.1017" lon="5.9555">
        <ele>699.20001220703</ele>
        <time>2022-01-05T09:31:38.134Z</time>
      </trkpt>
      <trkpt lat="44.10176" lon="5.95554">
        <ele>698.20001220703</ele>
        <time>2022-01-05T09:31:40.712Z</time>
      </trkpt>
      <trkpt lat="44.10182" lon="5.9555">
        <ele>698.20001220703</ele>
        <time>2022-01-05T09:31:43.293Z</time>
      </trkpt>
      <trkpt lat="44.10196" lon="5.95534">
        <ele>698.20001220703</ele>
        <time>2022-01-05T09:31:45.880Z</time>
      </trkpt>
      <trkpt lat="44.10207" lon="5.95525">
        <ele>697.20001220703</ele>
        <time>2022-01-05T09:31:48.471Z</time>
      </trkpt>
      <trkpt lat="44.10226" lon="5.95524">
        <ele>696.79998779297</ele>
        <time>2022-01-05T09:31:51.069Z</time>
      </trkpt>
      <trkpt lat="44.10236" lon="5.95532">
        <ele>696.79998779297</ele>
        <time>2022-01-05T09:31:53.671Z</time>
      </trkpt>
      <trkpt lat="44.10236" lon="5.95537">
        <ele>695.59997558594</ele>
        <time>2022-01-05T09:31:56.274Z</time>
      </trkpt>
      <trkpt lat="44.10215" lon="5.95579">
        <ele>695.59997558594</ele>
        <time>2022-01-05T09:31:58.890Z</time>
      </trkpt>
      <trkpt lat="44.10209" lon="5.95603">
        <ele>695.59997558594</ele>
        <time>2022-01-05T09:32:01.513Z</time>
      </trkpt>
      <trkpt lat="44.10211" lon="5.95624">
        <ele>687</ele>
        <time>2022-01-05T09:32:04.141Z</time>
      </trkpt>
      <trkpt lat="44.10218" lon="5.95667">
        <ele>688.40002441406</ele>
        <time>2022-01-05T09:32:06.780Z</time>
      </trkpt>
      <trkpt lat="44.10221" lon="5.95679">
        <ele>688.40002441406</ele>
        <time>2022-01-05T09:32:09.422Z</time>
      </trkpt>
      <trkpt lat="44.10254" lon="5.95716">
        <ele>688.40002441406</ele>
        <time>2022-01-05T09:32:12.079Z</time>
      </trkpt>
      <trkpt lat="44.10259" lon="5.9572">
        <ele>683.79998779297</ele>
        <time>2022-01-05T09:32:14.738Z</time>
      </trkpt>
      <trkpt lat="44.10288" lon="5.95731">
        <ele>683.79998779297</ele>
        <time>2022-01-05T09:32:17.407Z</time>
      </trkpt>
      <trkpt lat="44.10291" lon="5.95736">
        <ele>680.79998779297</ele>
        <time>2022-01-05T09:32:20.078Z</time>
      </trkpt>
      <trkpt lat="44.1029" lon="5.95739">
        <ele>680.79998779297</ele>
        <time>2022-01-05T09:32:22.750Z</time>
      </trkpt>
      <trkpt lat="44.10254" lon="5.95755">
        <ele>678.40002441406</ele>
        <time>2022-01-05T09:32:25.435Z</time>
      </trkpt>
      <trkpt lat="44.10248" lon="5.95761">
        <ele>678</ele>
        <time>2022-01-05T09:32:28.123Z</time>
      </trkpt>
      <trkpt lat="44.10236" lon="5.95784">
        <ele>675.59997558594</ele>
        <time>2022-01-05T09:32:30.817Z</time>
      </trkpt>
      <trkpt lat="44.10232" lon="5.95795">
        <ele>675.59997558594</ele>
        <time>2022-01-05T09:32:33.515Z</time>
      </trkpt>
      <trkpt lat="44.10221" lon="5.95839">
        <ele>675.59997558594</ele>
        <time>2022-01-05T09:32:36.224Z</time>
      </trkpt>
      <trkpt lat="44.10224" lon="5.95853">
        <ele>670.59997558594</ele>
        <time>2022-01-05T09:32:38.937Z</time>
      </trkpt>
      <trkpt lat="44.10227" lon="5.95858">
        <ele>670.59997558594</ele>
        <time>2022-01-05T09:32:41.652Z</time>
      </trkpt>
      <trkpt lat="44.10232" lon="5.95864">
        <ele>670.20001220703</ele>
        <time>2022-01-05T09:32:44.369Z</time>
      </trkpt>
      <trkpt lat="44.10244" lon="5.95872">
        <ele>670.20001220703</ele>
        <time>2022-01-05T09:32:47.090Z</time>
      </trkpt>
      <trkpt lat="44.10253" lon="5.95884">
        <ele>670.20001220703</ele>
        <time>2022-01-05T09:32:49.816Z</time>
      </trkpt>
      <trkpt lat="44.1028" lon="5.95902">
        <ele>670.20001220703</ele>
        <time>2022-01-05T09:32:52.552Z</time>
      </trkpt>
      <trkpt lat="44.10288" lon="5.95898">
        <ele>669.40002441406</ele>
        <time>2022-01-05T09:32:55.291Z</time>
      </trkpt>
      <trkpt lat="44.10297" lon="5.95905">
        <ele>669.40002441406</ele>
        <time>2022-01-05T09:32:58.034Z</time>
      </trkpt>
      <trkpt lat="44.103" lon="5.95912">
        <ele>668.59997558594</ele>
        <time>2022-01-05T09:33:00.779Z</time>
      </trkpt>
      <trkpt lat="44.10299" lon="5.95916">
        <ele>668.59997558594</ele>
        <time>2022-01-05T09:33:03.525Z</time>
      </trkpt>
      <trkpt lat="44.10279" lon="5.95929">
        <ele>667</ele>
        <time>2022-01-05T09:33:06.279Z</time>
      </trkpt>
      <trkpt lat="44.10278" lon="5.95932">
        <ele>667</ele>
        <time>2022-01-05T09:33:09.033Z</time>
      </trkpt>
      <trkpt lat="44.10273" lon="5.95938">
        <ele>666</ele>
        <time>2022-01-05T09:33:11.790Z</time>
      </trkpt>
      <trkpt lat="44.1026" lon="5.95941">
        <ele>666</ele>
        <time>2022-01-05T09:33:14.551Z</time>
      </trkpt>
      <trkpt lat="44.10248" lon="5.95946">
        <ele>666</ele>
        <time>2022-01-05T09:33:17.317Z</time>
      </trkpt>
      <trkpt lat="44.10252" lon="5.95951">
        <ele>663.79998779297</ele>
        <time>2022-01-05T09:33:20.085Z</time>
      </trkpt>
      <trkpt lat="44.1027" lon="5.95957">
        <ele>662.40002441406</ele>
        <time>2022-01-05T09:33:22.859Z</time>
      </trkpt>
      <trkpt lat="44.1031" lon="5.95951">
        <ele>662.40002441406</ele>
        <time>2022-01-05T09:33:25.647Z</time>
      </trkpt>
      <trkpt lat="44.1031" lon="5.95957">
        <ele>660.40002441406</ele>
        <time>2022-01-05T09:33:28.437Z</time>
      </trkpt>
      <trkpt lat="44.10299" lon="5.95965">
        <ele>658.79998779297</ele>
        <time>2022-01-05T09:33:31.231Z</time>
      </trkpt>
      <trkpt lat="44.10294" lon="5.95973">
        <ele>658</ele>
        <time>2022-01-05T09:33:34.028Z</time>
      </trkpt>
      <trkpt lat="44.10289" lon="5.95975">
        <ele>657.20001220703</ele>
        <time>2022-01-05T09:33:36.826Z</time>
      </trkpt>
      <trkpt lat="44.1026" lon="5.95979">
        <ele>657.20001220703</ele>
        <time>2022-01-05T09:33:39.635Z</time>
      </trkpt>
      <trkpt lat="44.10241" lon="5.95989">
        <ele>654.79998779297</ele>
        <time>2022-01-05T09:33:42.451Z</time>
      </trkpt>
      <trkpt lat="44.10232" lon="5.95998">
        <ele>654.79998779297</ele>
        <time>2022-01-05T09:33:45.270Z</time>
      </trkpt>
      <trkpt lat="44.10227" lon="5.96018">
        <ele>654.79998779297</ele>
        <time>2022-01-05T09:33:48.095Z</time>
      </trkpt>
      <trkpt lat="44.10227" lon="5.96021">
        <ele>654.79998779297</ele>
        <time>2022-01-05T09:33:50.921Z</time>
      </trkpt>
      <trkpt lat="44.10238" lon="5.9601">
        <ele>649.20001220703</ele>
        <time>2022-01-05T09:33:53.751Z</time>
      </trkpt>
      <trkpt lat="44.10258" lon="5.95996">
        <ele>650.40002441406</ele>
        <time>2022-01-05T09:33:56.589Z</time>
      </trkpt>
      <trkpt lat="44.10283" lon="5.95993">
        <ele>650.40002441406</ele>
        <time>2022-01-05T09:33:59.436Z</time>
      </trkpt>
      <trkpt lat="44.10305" lon="5.95986">
        <ele>650.40002441406</ele>
        <time>2022-01-05T09:34:02.291Z</time>
      </trkpt>
      <trkpt lat="44.1031" lon="5.95988">
        <ele>652.20001220703</ele>
        <time>2022-01-05T09:34:05.148Z</time>
      </trkpt>
      <trkpt lat="44.10322" lon="5.95986">
        <ele>652.20001220703</ele>
        <time>2022-01-05T09:34:08.009Z</time>
      </trkpt>
      <trkpt lat="44.10352" lon="5.95969">
        <ele>652.20001220703</ele>
        <time>2022-01-05T09:34:10.881Z</time>
      </trkpt>
      <trkpt lat="44.10396" lon="5.95955">
        <ele>653</ele>
        <time>2022-01-05T09:34:13.769Z</time>
      </trkpt>
      <trkpt lat="44.10409" lon="5.95957">
        <ele>653</ele>
        <time>2022-01-05T09:34:16.661Z</time>
      </trkpt>
      <trkpt lat="44.10426" lon="5.95951">
        <ele>653</ele>
        <time>2022-01-05T09:34:19.559Z</time>
      </trkpt>
      <trkpt lat="44.1044" lon="5.95948">
        <ele>653</ele>
        <time>2022-01-05T09:34:22.462Z</time>
      </trkpt>
      <trkpt lat="44.10459" lon="5.95941">
        <ele>653</ele>
        <time>2022-01-05T09:34:25.372Z</time>
      </trkpt>
      <trkpt lat="44.10463" lon="5.95937">
        <ele>647.40002441406</ele>
        <time>2022-01-05T09:34:28.284Z</time>
      </trkpt>
      <trkpt lat="44.10475" lon="5.95931">
        <ele>649.20001220703</ele>
        <time>2022-01-05T09:34:31.200Z</time>
      </trkpt>
      <trkpt lat="44.10506" lon="5.95923">
        <ele>649.20001220703</ele>
        <time>2022-01-05T09:34:34.127Z</time>
      </trkpt>
      <trkpt lat="44.10523" lon="5.95914">
        <ele>648.79998779297</ele>
        <time>2022-01-05T09:34:37.061Z</time>
      </trkpt>
      <trkpt lat="44.1053" lon="5.95917">
        <ele>648.79998779297</ele>
        <time>2022-01-05T09:34:39.997Z</time>
      </trkpt>
      <trkpt lat="44.10535" lon="5.95933">
        <ele>647.20001220703</ele>
        <time>2022-01-05T09:34:42.937Z</time>
      </trkpt>
      <trkpt lat="44.10557" lon="5.95932">
        <ele>641.40002441406</ele>
        <time>2022-01-05T09:34:45.885Z</time>
      </trkpt>
      <trkpt lat="44.10558" lon="5.95936">
        <ele>641.40002441406</ele>
        <time>2022-01-05T09:34:48.834Z</time>
      </trkpt>
      <trkpt lat="44.10557" lon="5.95942">
        <ele>638.40002441406</ele>
        <time>2022-01-05T09:34:51.785Z</time>
      </trkpt>
      <trkpt lat="44.10543" lon="5.95959">
        <ele>638.40002441406</ele>
        <time>2022-01-05T09:34:54.742Z</time>
      </trkpt>
      <trkpt lat="44.1054" lon="5.95964">
        <ele>629</ele>
        <time>2022-01-05T09:34:57.701Z</time>
      </trkpt>
      <trkpt lat="44.10541" lon="5.95966">
        <ele>629</ele>
        <time>2022-01-05T09:35:00.660Z</time>
      </trkpt>
      <trkpt lat="44.1055" lon="5.95969">
        <ele>629</ele>
        <time>2022-01-05T09:35:03.622Z</time>
      </trkpt>
      <trkpt lat="44.10559" lon="5.95975">
        <ele>627.20001220703</ele>
        <time>2022-01-05T09:35:06.588Z</time>
      </trkpt>
      <trkpt lat="44.10577" lon="5.95972">
        <ele>627.20001220703</ele>
        <time>2022-01-05T09:35:09.560Z</time>
      </trkpt>
      <trkpt lat="44.10583" lon="5.95978">
        <ele>627.20001220703</ele>
        <time>2022-01-05T09:35:12.535Z</time>
      </trkpt>
      <trkpt lat="44.10583" lon="5.95995">
        <ele>627.20001220703</ele>
        <time>2022-01-05T09:35:15.514Z</time>
      </trkpt>
      <trkpt lat="44.10585" lon="5.95995">
        <ele>618.59997558594</ele>
        <time>2022-01-05T09:35:18.494Z</time>
      </trkpt>
      <trkpt lat="44.10602" lon="5.95989">
        <ele>618.59997558594</ele>
        <time>2022-01-05T09:35:21.480Z</time>
      </trkpt>
      <trkpt lat="44.10619" lon="5.95979">
        <ele>610</ele>
        <time>2022-01-05T09:35:24.472Z</time>
      </trkpt>
      <trkpt lat="44.10626" lon="5.9597">
        <ele>610</ele>
        <time>2022-01-05T09:35:27.468Z</time>
      </trkpt>
      <trkpt lat="44.10629" lon="5.95964">
        <ele>607.59997558594</ele>
        <time>2022-01-05T09:35:30.465Z</time>
      </trkpt>
      <trkpt lat="44.10632" lon="5.95956">
        <ele>607.59997558594</ele>
        <time>2022-01-05T09:35:33.465Z</time>
      </trkpt>
      <trkpt lat="44.10633" lon="5.95943">
        <ele>607.59997558594</ele>
        <time>2022-01-05T09:35:36.468Z</time>
      </trkpt>
      <trkpt lat="44.10636" lon="5.95938">
        <ele>609.20001220703</ele>
        <time>2022-01-05T09:35:39.473Z</time>
      </trkpt>
      <trkpt lat="44.10639" lon="5.95937">
        <ele>609.20001220703</ele>
        <time>2022-01-05T09:35:42.479Z</time>
      </trkpt>
      <trkpt lat="44.10651" lon="5.95939">
        <ele>609.20001220703</ele>
        <time>2022-01-05T09:35:45.489Z</time>
      </trkpt>
      <trkpt lat="44.10659" lon="5.95938">
        <ele>607.79998779297</ele>
        <time>2022-01-05T09:35:48.501Z</time>
      </trkpt>
      <trkpt lat="44.10674" lon="5.95946">
        <ele>607.79998779297</ele>
        <time>2022-01-05T09:35:51.519Z</time>
      </trkpt>
      <trkpt lat="44.10692" lon="5.95951">
        <ele>607.79998779297</ele>
        <time>2022-01-05T09:35:54.544Z</time>
      </trkpt>
      <trkpt lat="44.10695" lon="5.95951">
        <ele>600.59997558594</ele>
        <time>2022-01-05T09:35:57.570Z</time>
      </trkpt>
      <trkpt lat="44.10705" lon="5.95944">
        <ele>599.79998779297</ele>
        <time>2022-01-05T09:36:00.599Z</time>
      </trkpt>
      <trkpt lat="44.10718" lon="5.95944">
        <ele>599.79998779297</ele>
        <time>2022-01-05T09:36:03.633Z</time>
      </trkpt>
      <trkpt lat="44.10731" lon="5.95939">
        <ele>599.79998779297</ele>
        <time>2022-01-05T09:36:06.672Z</time>
      </trkpt>
      <trkpt lat="44.10738" lon="5.95931">
        <ele>600.20001220703</ele>
        <time>2022-01-05T09:36:09.714Z</time>
      </trkpt>
      <trkpt lat="44.10754" lon="5.9592">
        <ele>600</ele>
        <time>2022-01-05T09:36:12.762Z</time>
      </trkpt>
      <trkpt lat="44.10762" lon="5.95918">
        <ele>600.20001220703</ele>
        <time>2022-01-05T09:36:15.813Z</time>
      </trkpt>
      <trkpt lat="44.10764" lon="5.95922">
        <ele>600.20001220703</ele>
        <time>2022-01-05T09:36:18.865Z</time>
      </trkpt>
      <trkpt lat="44.10767" lon="5.95924">
        <ele>602.59997558594</ele>
        <time>2022-01-05T09:36:21.918Z</time>
      </trkpt>
      <trkpt lat="44.10776" lon="5.9592">
        <ele>602.59997558594</ele>
        <time>2022-01-05T09:36:24.975Z</time>
      </trkpt>
      <trkpt lat="44.10794" lon="5.95933">
        <ele>604.20001220703</ele>
        <time>2022-01-05T09:36:28.039Z</time>
      </trkpt>
      <trkpt lat="44.10811" lon="5.95963">
        <ele>603.20001220703</ele>
        <time>2022-01-05T09:36:31.112Z</time>
      </trkpt>
      <trkpt lat="44.1082" lon="5.96018">
        <ele>603.20001220703</ele>
        <time>2022-01-05T09:36:34.199Z</time>
      </trkpt>
      <trkpt lat="44.10836" lon="5.96049">
        <ele>603.59997558594</ele>
        <time>2022-01-05T09:36:37.296Z</time>
      </trkpt>
      <trkpt lat="44.10846" lon="5.96053">
        <ele>606.79998779297</ele>
        <time>2022-01-05T09:36:40.397Z</time>
      </trkpt>
      <trkpt lat="44.10854" lon="5.96083">
        <ele>610.40002441406</ele>
        <time>2022-01-05T09:36:43.506Z</time>
      </trkpt>
      <trkpt lat="44.10866" lon="5.96086">
        <ele>610.40002441406</ele>
        <time>2022-01-05T09:36:46.619Z</time>
      </trkpt>
      <trkpt lat="44.10872" lon="5.96082">
        <ele>612.20001220703</ele>
        <time>2022-01-05T09:36:49.734Z</time>
      </trkpt>
      <trkpt lat="44.10872" lon="5.96078">
        <ele>612.20001220703</ele>
        <time>2022-01-05T09:36:52.850Z</time>
      </trkpt>
      <trkpt lat="44.10877" lon="5.96074">
        <ele>612.20001220703</ele>
        <time>2022-01-05T09:36:55.968Z</time>
      </trkpt>
      <trkpt lat="44.10875" lon="5.96067">
        <ele>615.20001220703</ele>
        <time>2022-01-05T09:36:59.088Z</time>
      </trkpt>
      <trkpt lat="44.10865" lon="5.96053">
        <ele>616.20001220703</ele>
        <time>2022-01-05T09:37:02.213Z</time>
      </trkpt>
      <trkpt lat="44.10864" lon="5.96047">
        <ele>616.20001220703</ele>
        <time>2022-01-05T09:37:05.339Z</time>
      </trkpt>
      <trkpt lat="44.10866" lon="5.9604">
        <ele>616.20001220703</ele>
        <time>2022-01-05T09:37:08.467Z</time>
      </trkpt>
      <trkpt lat="44.10879" lon="5.96044">
        <ele>616.20001220703</ele>
        <time>2022-01-05T09:37:11.600Z</time>
      </trkpt>
      <trkpt lat="44.10885" lon="5.96038">
        <ele>616.20001220703</ele>
        <time>2022-01-05T09:37:14.735Z</time>
      </trkpt>
      <trkpt lat="44.10907" lon="5.96037">
        <ele>616.20001220703</ele>
        <time>2022-01-05T09:37:17.878Z</time>
      </trkpt>
      <trkpt lat="44.10921" lon="5.96031">
        <ele>616.20001220703</ele>
        <time>2022-01-05T09:37:21.026Z</time>
      </trkpt>
      <trkpt lat="44.10934" lon="5.96021">
        <ele>616.20001220703</ele>
        <time>2022-01-05T09:37:24.179Z</time>
      </trkpt>
      <trkpt lat="44.10943" lon="5.96018">
        <ele>623.79998779297</ele>
        <time>2022-01-05T09:37:27.335Z</time>
      </trkpt>
      <trkpt lat="44.10965" lon="5.96015">
        <ele>623.79998779297</ele>
        <time>2022-01-05T09:37:30.499Z</time>
      </trkpt>
      <trkpt lat="44.10977" lon="5.96016">
        <ele>623.59997558594</ele>
        <time>2022-01-05T09:37:33.667Z</time>
      </trkpt>
      <trkpt lat="44.10985" lon="5.96028">
        <ele>621.59997558594</ele>
        <time>2022-01-05T09:37:36.839Z</time>
      </trkpt>
      <trkpt lat="44.1099" lon="5.96033">
        <ele>621.59997558594</ele>
        <time>2022-01-05T09:37:40.014Z</time>
      </trkpt>
      <trkpt lat="44.11004" lon="5.96036">
        <ele>617.79998779297</ele>
        <time>2022-01-05T09:37:43.193Z</time>
      </trkpt>
      <trkpt lat="44.11026" lon="5.96048">
        <ele>615.59997558594</ele>
        <time>2022-01-05T09:37:46.380Z</time>
      </trkpt>
      <trkpt lat="44.11037" lon="5.9605">
        <ele>614.59997558594</ele>
        <time>2022-01-05T09:37:49.571Z</time>
      </trkpt>
      <trkpt lat="44.11051" lon="5.9605">
        <ele>614.59997558594</ele>
        <time>2022-01-05T09:37:52.767Z</time>
      </trkpt>
      <trkpt lat="44.11059" lon="5.96046">
        <ele>615.59997558594</ele>
        <time>2022-01-05T09:37:55.966Z</time>
      </trkpt>
      <trkpt lat="44.11061" lon="5.96047">
        <ele>615.59997558594</ele>
        <time>2022-01-05T09:37:59.166Z</time>
      </trkpt>
      <trkpt lat="44.11069" lon="5.96055">
        <ele>616.20001220703</ele>
        <time>2022-01-05T09:38:02.369Z</time>
      </trkpt>
      <trkpt lat="44.1107" lon="5.96081">
        <ele>616.20001220703</ele>
        <time>2022-01-05T09:38:05.579Z</time>
      </trkpt>
      <trkpt lat="44.11075" lon="5.96092">
        <ele>614.20001220703</ele>
        <time>2022-01-05T09:38:08.792Z</time>
      </trkpt>
      <trkpt lat="44.11088" lon="5.96105">
        <ele>611.79998779297</ele>
        <time>2022-01-05T09:38:12.011Z</time>
      </trkpt>
      <trkpt lat="44.11199" lon="5.96177">
        <ele>611.79998779297</ele>
        <time>2022-01-05T09:38:15.272Z</time>
      </trkpt>
      <trkpt lat="44.11213" lon="5.96183">
        <ele>601.20001220703</ele>
        <time>2022-01-05T09:38:18.538Z</time>
      </trkpt>
      <trkpt lat="44.11233" lon="5.96188">
        <ele>601.20001220703</ele>
        <time>2022-01-05T09:38:21.811Z</time>
      </trkpt>
      <trkpt lat="44.1124" lon="5.96196">
        <ele>601.20001220703</ele>
        <time>2022-01-05T09:38:25.087Z</time>
      </trkpt>
      <trkpt lat="44.11252" lon="5.96201">
        <ele>599</ele>
        <time>2022-01-05T09:38:28.368Z</time>
      </trkpt>
      <trkpt lat="44.11271" lon="5.96219">
        <ele>599</ele>
        <time>2022-01-05T09:38:31.657Z</time>
      </trkpt>
      <trkpt lat="44.11278" lon="5.9623">
        <ele>599</ele>
        <time>2022-01-05T09:38:34.950Z</time>
      </trkpt>
      <trkpt lat="44.11278" lon="5.96234">
        <ele>593.40002441406</ele>
        <time>2022-01-05T09:38:38.244Z</time>
      </trkpt>
      <trkpt lat="44.11276" lon="5.9624">
        <ele>593.40002441406</ele>
        <time>2022-01-05T09:38:41.539Z</time>
      </trkpt>
      <trkpt lat="44.11269" lon="5.96245">
        <ele>593.40002441406</ele>
        <time>2022-01-05T09:38:44.837Z</time>
      </trkpt>
      <trkpt lat="44.11267" lon="5.96256">
        <ele>590.59997558594</ele>
        <time>2022-01-05T09:38:48.138Z</time>
      </trkpt>
      <trkpt lat="44.11268" lon="5.96263">
        <ele>590.59997558594</ele>
        <time>2022-01-05T09:38:51.441Z</time>
      </trkpt>
      <trkpt lat="44.11271" lon="5.96269">
        <ele>588.20001220703</ele>
        <time>2022-01-05T09:38:54.746Z</time>
      </trkpt>
      <trkpt lat="44.11277" lon="5.96274">
        <ele>588.20001220703</ele>
        <time>2022-01-05T09:38:58.053Z</time>
      </trkpt>
      <trkpt lat="44.113" lon="5.96285">
        <ele>584</ele>
        <time>2022-01-05T09:39:01.368Z</time>
      </trkpt>
      <trkpt lat="44.11328" lon="5.9629">
        <ele>581.40002441406</ele>
        <time>2022-01-05T09:39:04.693Z</time>
      </trkpt>
      <trkpt lat="44.11344" lon="5.96289">
        <ele>581.40002441406</ele>
        <time>2022-01-05T09:39:08.024Z</time>
      </trkpt>
      <trkpt lat="44.11359" lon="5.96282">
        <ele>577.20001220703</ele>
        <time>2022-01-05T09:39:11.360Z</time>
      </trkpt>
      <trkpt lat="44.11369" lon="5.96279">
        <ele>577.20001220703</ele>
        <time>2022-01-05T09:39:14.700Z</time>
      </trkpt>
      <trkpt lat="44.11383" lon="5.96278">
        <ele>570.40002441406</ele>
        <time>2022-01-05T09:39:18.045Z</time>
      </trkpt>
      <trkpt lat="44.11396" lon="5.96281">
        <ele>570.40002441406</ele>
        <time>2022-01-05T09:39:21.394Z</time>
      </trkpt>
      <trkpt lat="44.11399" lon="5.96286">
        <ele>566.40002441406</ele>
        <time>2022-01-05T09:39:24.745Z</time>
      </trkpt>
      <trkpt lat="44.11406" lon="5.96307">
        <ele>566.40002441406</ele>
        <time>2022-01-05T09:39:28.102Z</time>
      </trkpt>
      <trkpt lat="44.11413" lon="5.96317">
        <ele>566.40002441406</ele>
        <time>2022-01-05T09:39:31.462Z</time>
      </trkpt>
      <trkpt lat="44.11414" lon="5.96327">
        <ele>566.40002441406</ele>
        <time>2022-01-05T09:39:34.824Z</time>
      </trkpt>
      <trkpt lat="44.11421" lon="5.96333">
        <ele>562.20001220703</ele>
        <time>2022-01-05T09:39:38.189Z</time>
      </trkpt>
      <trkpt lat="44.11436" lon="5.9634">
        <ele>562.20001220703</ele>
        <time>2022-01-05T09:39:41.560Z</time>
      </trkpt>
      <trkpt lat="44.11457" lon="5.96344">
        <ele>559</ele>
        <time>2022-01-05T09:39:44.938Z</time>
      </trkpt>
      <trkpt lat="44.11463" lon="5.9636">
        <ele>557.59997558594</ele>
        <time>2022-01-05T09:39:48.320Z</time>
      </trkpt>
      <trkpt lat="44.11461" lon="5.9637">
        <ele>557.59997558594</ele>
        <time>2022-01-05T09:39:51.705Z</time>
      </trkpt>
      <trkpt lat="44.11456" lon="5.96375">
        <ele>555</ele>
        <time>2022-01-05T09:39:55.092Z</time>
      </trkpt>
      <trkpt lat="44.11451" lon="5.96388">
        <ele>555</ele>
        <time>2022-01-05T09:39:58.483Z</time>
      </trkpt>
      <trkpt lat="44.11445" lon="5.96411">
        <ele>550.59997558594</ele>
        <time>2022-01-05T09:40:01.880Z</time>
      </trkpt>
      <trkpt lat="44.11446" lon="5.96445">
        <ele>550.59997558594</ele>
        <time>2022-01-05T09:40:05.285Z</time>
      </trkpt>
      <trkpt lat="44.11444" lon="5.96465">
        <ele>550.59997558594</ele>
        <time>2022-01-05T09:40:08.695Z</time>
      </trkpt>
      <trkpt lat="44.11447" lon="5.96471">
        <ele>548.20001220703</ele>
        <time>2022-01-05T09:40:12.107Z</time>
      </trkpt>
      <trkpt lat="44.11447" lon="5.96475">
        <ele>548.20001220703</ele>
        <time>2022-01-05T09:40:15.520Z</time>
      </trkpt>
      <trkpt lat="44.11464" lon="5.96509">
        <ele>548.20001220703</ele>
        <time>2022-01-05T09:40:18.943Z</time>
      </trkpt>
      <trkpt lat="44.11482" lon="5.96523">
        <ele>548.20001220703</ele>
        <time>2022-01-05T09:40:22.374Z</time>
      </trkpt>
      <trkpt lat="44.11494" lon="5.96549">
        <ele>548.20001220703</ele>
        <time>2022-01-05T09:40:25.812Z</time>
      </trkpt>
      <trkpt lat="44.11479" lon="5.96571">
        <ele>533</ele>
        <time>2022-01-05T09:40:29.258Z</time>
      </trkpt>
      <trkpt lat="44.11475" lon="5.96581">
        <ele>533</ele>
        <time>2022-01-05T09:40:32.707Z</time>
      </trkpt>
      <trkpt lat="44.11471" lon="5.96598">
        <ele>533</ele>
        <time>2022-01-05T09:40:36.160Z</time>
      </trkpt>
      <trkpt lat="44.11472" lon="5.96606">
        <ele>533</ele>
        <time>2022-01-05T09:40:39.615Z</time>
      </trkpt>
      <trkpt lat="44.11471" lon="5.96619">
        <ele>531</ele>
        <time>2022-01-05T09:40:43.074Z</time>
      </trkpt>
      <trkpt lat="44.11462" lon="5.96646">
        <ele>530.20001220703</ele>
        <time>2022-01-05T09:40:46.540Z</time>
      </trkpt>
      <trkpt lat="44.11458" lon="5.96669">
        <ele>529.20001220703</ele>
        <time>2022-01-05T09:40:50.012Z</time>
      </trkpt>
      <trkpt lat="44.11446" lon="5.96698">
        <ele>529.20001220703</ele>
        <time>2022-01-05T09:40:53.492Z</time>
      </trkpt>
      <trkpt lat="44.11446" lon="5.96736">
        <ele>526.40002441406</ele>
        <time>2022-01-05T09:40:56.982Z</time>
      </trkpt>
      <trkpt lat="44.11456" lon="5.96751">
        <ele>526.40002441406</ele>
        <time>2022-01-05T09:41:00.477Z</time>
      </trkpt>
      <trkpt lat="44.11456" lon="5.9676">
        <ele>526.40002441406</ele>
        <time>2022-01-05T09:41:03.974Z</time>
      </trkpt>
      <trkpt lat="44.11454" lon="5.96773">
        <ele>524.20001220703</ele>
        <time>2022-01-05T09:41:07.475Z</time>
      </trkpt>
      <trkpt lat="44.11436" lon="5.96806">
        <ele>521.59997558594</ele>
        <time>2022-01-05T09:41:10.986Z</time>
      </trkpt>
      <trkpt lat="44.11434" lon="5.96842">
        <ele>521.59997558594</ele>
        <time>2022-01-05T09:41:14.506Z</time>
      </trkpt>
      <trkpt lat="44.11436" lon="5.96864">
        <ele>518.20001220703</ele>
        <time>2022-01-05T09:41:18.031Z</time>
      </trkpt>
      <trkpt lat="44.11435" lon="5.96875">
        <ele>518.20001220703</ele>
        <time>2022-01-05T09:41:21.559Z</time>
      </trkpt>
      <trkpt lat="44.11438" lon="5.96888">
        <ele>517.40002441406</ele>
        <time>2022-01-05T09:41:25.091Z</time>
      </trkpt>
      <trkpt lat="44.11453" lon="5.96905">
        <ele>517.40002441406</ele>
        <time>2022-01-05T09:41:28.629Z</time>
      </trkpt>
      <trkpt lat="44.11457" lon="5.96919">
        <ele>514</ele>
        <time>2022-01-05T09:41:32.171Z</time>
      </trkpt>
      <trkpt lat="44.11463" lon="5.96928">
        <ele>513.20001220703</ele>
        <time>2022-01-05T09:41:35.716Z</time>
      </trkpt>
      <trkpt lat="44.11476" lon="5.96939">
        <ele>511.79998779297</ele>
        <time>2022-01-05T09:41:39.266Z</time>
      </trkpt>
      <trkpt lat="44.11476" lon="5.96977">
        <ele>511.79998779297</ele>
        <time>2022-01-05T09:41:42.826Z</time>
      </trkpt>
      <trkpt lat="44.11483" lon="5.9699">
        <ele>511.79998779297</ele>
        <time>2022-01-05T09:41:46.390Z</time>
      </trkpt>
      <trkpt lat="44.11486" lon="5.97009">
        <ele>511.79998779297</ele>
        <time>2022-01-05T09:41:49.959Z</time>
      </trkpt>
      <trkpt lat="44.11514" lon="5.97034">
        <ele>514.20001220703</ele>
        <time>2022-01-05T09:41:53.540Z</time>
      </trkpt>
      <trkpt lat="44.11519" lon="5.97044">
        <ele>514.20001220703</ele>
        <time>2022-01-05T09:41:57.124Z</time>
      </trkpt>
      <trkpt lat="44.11529" lon="5.97056">
        <ele>514.20001220703</ele>
        <time>2022-01-05T09:42:00.712Z</time>
      </trkpt>
      <trkpt lat="44.11541" lon="5.97066">
        <ele>514.20001220703</ele>
        <time>2022-01-05T09:42:04.305Z</time>
      </trkpt>
      <trkpt lat="44.11581" lon="5.97087">
        <ele>517</ele>
        <time>2022-01-05T09:42:07.913Z</time>
      </trkpt>
      <trkpt lat="44.11599" lon="5.9713">
        <ele>519.20001220703</ele>
        <time>2022-01-05T09:42:11.533Z</time>
      </trkpt>
      <trkpt lat="44.11604" lon="5.97139">
        <ele>519.20001220703</ele>
        <time>2022-01-05T09:42:15.156Z</time>
      </trkpt>
      <trkpt lat="44.11608" lon="5.97144">
        <ele>521.20001220703</ele>
        <time>2022-01-05T09:42:18.781Z</time>
      </trkpt>
      <trkpt lat="44.11636" lon="5.97155">
        <ele>525.20001220703</ele>
        <time>2022-01-05T09:42:22.416Z</time>
      </trkpt>
      <trkpt lat="44.11651" lon="5.97154">
        <ele>526.59997558594</ele>
        <time>2022-01-05T09:42:26.057Z</time>
      </trkpt>
      <trkpt lat="44.11675" lon="5.97156">
        <ele>527.20001220703</ele>
        <time>2022-01-05T09:42:29.706Z</time>
      </trkpt>
      <trkpt lat="44.11691" lon="5.97159">
        <ele>527.59997558594</ele>
        <time>2022-01-05T09:42:33.360Z</time>
      </trkpt>
      <trkpt lat="44.11702" lon="5.97163">
        <ele>527.59997558594</ele>
        <time>2022-01-05T09:42:37.018Z</time>
      </trkpt>
      <trkpt lat="44.11716" lon="5.97173">
        <ele>527.59997558594</ele>
        <time>2022-01-05T09:42:40.682Z</time>
      </trkpt>
      <trkpt lat="44.11732" lon="5.97178">
        <ele>527.79998779297</ele>
        <time>2022-01-05T09:42:44.351Z</time>
      </trkpt>
      <trkpt lat="44.11745" lon="5.97179">
        <ele>527.79998779297</ele>
        <time>2022-01-05T09:42:48.025Z</time>
      </trkpt>
      <trkpt lat="44.11772" lon="5.97171">
        <ele>527.79998779297</ele>
        <time>2022-01-05T09:42:51.709Z</time>
      </trkpt>
      <trkpt lat="44.1179" lon="5.97168">
        <ele>525.20001220703</ele>
        <time>2022-01-05T09:42:55.399Z</time>
      </trkpt>
      <trkpt lat="44.11802" lon="5.97161">
        <ele>525.20001220703</ele>
        <time>2022-01-05T09:42:59.093Z</time>
      </trkpt>
      <trkpt lat="44.11813" lon="5.97149">
        <ele>524</ele>
        <time>2022-01-05T09:43:02.792Z</time>
      </trkpt>
      <trkpt lat="44.11828" lon="5.97143">
        <ele>522.79998779297</ele>
        <time>2022-01-05T09:43:06.497Z</time>
      </trkpt>
      <trkpt lat="44.11838" lon="5.97135">
        <ele>522.79998779297</ele>
        <time>2022-01-05T09:43:10.206Z</time>
      </trkpt>
      <trkpt lat="44.11863" lon="5.97092">
        <ele>517.59997558594</ele>
        <time>2022-01-05T09:43:13.928Z</time>
      </trkpt>
      <trkpt lat="44.1187" lon="5.97083">
        <ele>517.59997558594</ele>
        <time>2022-01-05T09:43:17.654Z</time>
      </trkpt>
      <trkpt lat="44.1189" lon="5.97079">
        <ele>517.59997558594</ele>
        <time>2022-01-05T09:43:21.387Z</time>
      </trkpt>
      <trkpt lat="44.11897" lon="5.9707">
        <ele>514.20001220703</ele>
        <time>2022-01-05T09:43:25.123Z</time>
      </trkpt>
      <trkpt lat="44.11907" lon="5.97038">
        <ele>513.79998779297</ele>
        <time>2022-01-05T09:43:28.868Z</time>
      </trkpt>
      <trkpt lat="44.11913" lon="5.97031">
        <ele>513.40002441406</ele>
        <time>2022-01-05T09:43:32.616Z</time>
      </trkpt>
      <trkpt lat="44.11922" lon="5.97035">
        <ele>513.40002441406</ele>
        <time>2022-01-05T09:43:36.367Z</time>
      </trkpt>
      <trkpt lat="44.11928" lon="5.97055">
        <ele>513.40002441406</ele>
        <time>2022-01-05T09:43:40.123Z</time>
      </trkpt>
      <trkpt lat="44.11938" lon="5.97081">
        <ele>514</ele>
        <time>2022-01-05T09:43:43.887Z</time>
      </trkpt>
      <trkpt lat="44.11949" lon="5.97091">
        <ele>514</ele>
        <time>2022-01-05T09:43:47.655Z</time>
      </trkpt>
      <trkpt lat="44.11973" lon="5.971">
        <ele>514</ele>
        <time>2022-01-05T09:43:51.432Z</time>
      </trkpt>
      <trkpt lat="44.11992" lon="5.97116">
        <ele>510.60000610352</ele>
        <time>2022-01-05T09:43:55.217Z</time>
      </trkpt>
      <trkpt lat="44.1201" lon="5.97125">
        <ele>510.60000610352</ele>
        <time>2022-01-05T09:43:59.008Z</time>
      </trkpt>
      <trkpt lat="44.12016" lon="5.97125">
        <ele>508</ele>
        <time>2022-01-05T09:44:02.801Z</time>
      </trkpt>
      <trkpt lat="44.12022" lon="5.97122">
        <ele>508</ele>
        <time>2022-01-05T09:44:06.596Z</time>
      </trkpt>
      <trkpt lat="44.12034" lon="5.97089">
        <ele>505.60000610352</ele>
        <time>2022-01-05T09:44:10.401Z</time>
      </trkpt>
      <trkpt lat="44.12039" lon="5.97082">
        <ele>505.60000610352</ele>
        <time>2022-01-05T09:44:14.208Z</time>
      </trkpt>
      <trkpt lat="44.12057" lon="5.97073">
        <ele>504.39999389648</ele>
        <time>2022-01-05T09:44:18.022Z</time>
      </trkpt>
      <trkpt lat="44.12072" lon="5.97072">
        <ele>504.39999389648</ele>
        <time>2022-01-05T09:44:21.841Z</time>
      </trkpt>
      <trkpt lat="44.12084" lon="5.97075">
        <ele>504.39999389648</ele>
        <time>2022-01-05T09:44:25.664Z</time>
      </trkpt>
      <trkpt lat="44.12102" lon="5.97084">
        <ele>509.20001220703</ele>
        <time>2022-01-05T09:44:29.494Z</time>
      </trkpt>
      <trkpt lat="44.12113" lon="5.97095">
        <ele>509.20001220703</ele>
        <time>2022-01-05T09:44:33.329Z</time>
      </trkpt>
      <trkpt lat="44.12116" lon="5.97097">
        <ele>510.60000610352</ele>
        <time>2022-01-05T09:44:37.165Z</time>
      </trkpt>
      <trkpt lat="44.12122" lon="5.97096">
        <ele>510.60000610352</ele>
        <time>2022-01-05T09:44:41.003Z</time>
      </trkpt>
      <trkpt lat="44.12125" lon="5.97091">
        <ele>510.60000610352</ele>
        <time>2022-01-05T09:44:44.842Z</time>
      </trkpt>
      <trkpt lat="44.12127" lon="5.97074">
        <ele>510.60000610352</ele>
        <time>2022-01-05T09:44:48.686Z</time>
      </trkpt>
      <trkpt lat="44.12133" lon="5.97067">
        <ele>513.40002441406</ele>
        <time>2022-01-05T09:44:52.532Z</time>
      </trkpt>
      <trkpt lat="44.12154" lon="5.97052">
        <ele>513.40002441406</ele>
        <time>2022-01-05T09:44:56.387Z</time>
      </trkpt>
      <trkpt lat="44.12173" lon="5.97035">
        <ele>517.20001220703</ele>
        <time>2022-01-05T09:45:00.249Z</time>
      </trkpt>
      <trkpt lat="44.12226" lon="5.96999">
        <ele>517.20001220703</ele>
        <time>2022-01-05T09:45:04.132Z</time>
      </trkpt>
      <trkpt lat="44.12232" lon="5.96997">
        <ele>520.59997558594</ele>
        <time>2022-01-05T09:45:08.017Z</time>
      </trkpt>
      <trkpt lat="44.12241" lon="5.96991">
        <ele>522.79998779297</ele>
        <time>2022-01-05T09:45:11.906Z</time>
      </trkpt>
      <trkpt lat="44.1227" lon="5.96979">
        <ele>522.79998779297</ele>
        <time>2022-01-05T09:45:15.805Z</time>
      </trkpt>
      <trkpt lat="44.12278" lon="5.96978">
        <ele>526.40002441406</ele>
        <time>2022-01-05T09:45:19.707Z</time>
      </trkpt>
      <trkpt lat="44.12283" lon="5.96975">
        <ele>526.40002441406</ele>
        <time>2022-01-05T09:45:23.611Z</time>
      </trkpt>
      <trkpt lat="44.12294" lon="5.96959">
        <ele>526.40002441406</ele>
        <time>2022-01-05T09:45:27.520Z</time>
      </trkpt>
      <trkpt lat="44.12306" lon="5.96951">
        <ele>529.20001220703</ele>
        <time>2022-01-05T09:45:31.434Z</time>
      </trkpt>
      <trkpt lat="44.1232" lon="5.96941">
        <ele>531.40002441406</ele>
        <time>2022-01-05T09:45:35.353Z</time>
      </trkpt>
      <trkpt lat="44.12353" lon="5.96929">
        <ele>535.20001220703</ele>
        <time>2022-01-05T09:45:39.284Z</time>
      </trkpt>
      <trkpt lat="44.12362" lon="5.96918">
        <ele>536</ele>
        <time>2022-01-05T09:45:43.219Z</time>
      </trkpt>
      <trkpt lat="44.12373" lon="5.96909">
        <ele>538.20001220703</ele>
        <time>2022-01-05T09:45:47.159Z</time>
      </trkpt>
      <trkpt lat="44.12373" lon="5.96906">
        <ele>538.20001220703</ele>
        <time>2022-01-05T09:45:51.099Z</time>
      </trkpt>
      <trkpt lat="44.12367" lon="5.96895">
        <ele>540</ele>
        <time>2022-01-05T09:45:55.043Z</time>
      </trkpt>
      <trkpt lat="44.12366" lon="5.96873">
        <ele>540</ele>
        <time>2022-01-05T09:45:58.993Z</time>
      </trkpt>
      <trkpt lat="44.12337" lon="5.96864">
        <ele>540</ele>
        <time>2022-01-05T09:46:02.953Z</time>
      </trkpt>
      <trkpt lat="44.12299" lon="5.96855">
        <ele>542.40002441406</ele>
        <time>2022-01-05T09:46:06.926Z</time>
      </trkpt>
      <trkpt lat="44.12297" lon="5.96851">
        <ele>542.40002441406</ele>
        <time>2022-01-05T09:46:10.901Z</time>
      </trkpt>
      <trkpt lat="44.123" lon="5.96841">
        <ele>543</ele>
        <time>2022-01-05T09:46:14.878Z</time>
      </trkpt>
      <trkpt lat="44.12307" lon="5.9683">
        <ele>543</ele>
        <time>2022-01-05T09:46:18.859Z</time>
      </trkpt>
      <trkpt lat="44.12323" lon="5.96808">
        <ele>543</ele>
        <time>2022-01-05T09:46:22.848Z</time>
      </trkpt>
      <trkpt lat="44.1233" lon="5.96802">
        <ele>544.20001220703</ele>
        <time>2022-01-05T09:46:26.840Z</time>
      </trkpt>
      <trkpt lat="44.12341" lon="5.96788">
        <ele>544.20001220703</ele>
        <time>2022-01-05T09:46:30.837Z</time>
      </trkpt>
      <trkpt lat="44.12346" lon="5.96774">
        <ele>542.59997558594</ele>
        <time>2022-01-05T09:46:34.838Z</time>
      </trkpt>
      <trkpt lat="44.12354" lon="5.96767">
        <ele>545.40002441406</ele>
        <time>2022-01-05T09:46:38.842Z</time>
      </trkpt>
      <trkpt lat="44.12349" lon="5.96764">
        <ele>545.40002441406</ele>
        <time>2022-01-05T09:46:42.848Z</time>
      </trkpt>
      <trkpt lat="44.1234" lon="5.96769">
        <ele>546</ele>
        <time>2022-01-05T09:46:46.858Z</time>
      </trkpt>
      <trkpt lat="44.12318" lon="5.96769">
        <ele>545.59997558594</ele>
        <time>2022-01-05T09:46:50.875Z</time>
      </trkpt>
      <trkpt lat="44.12314" lon="5.96767">
        <ele>545.59997558594</ele>
        <time>2022-01-05T09:46:54.894Z</time>
      </trkpt>
      <trkpt lat="44.12301" lon="5.96755">
        <ele>545.59997558594</ele>
        <time>2022-01-05T09:46:58.918Z</time>
      </trkpt>
      <trkpt lat="44.12276" lon="5.96763">
        <ele>546.59997558594</ele>
        <time>2022-01-05T09:47:02.951Z</time>
      </trkpt>
      <trkpt lat="44.1227" lon="5.96763">
        <ele>546.59997558594</ele>
        <time>2022-01-05T09:47:06.986Z</time>
      </trkpt>
      <trkpt lat="44.12259" lon="5.96752">
        <ele>546.79998779297</ele>
        <time>2022-01-05T09:47:11.026Z</time>
      </trkpt>
      <trkpt lat="44.1226" lon="5.96726">
        <ele>546.79998779297</ele>
        <time>2022-01-05T09:47:15.072Z</time>
      </trkpt>
      <trkpt lat="44.12258" lon="5.96725">
        <ele>548.59997558594</ele>
        <time>2022-01-05T09:47:19.119Z</time>
      </trkpt>
      <trkpt lat="44.12251" lon="5.9673">
        <ele>548.59997558594</ele>
        <time>2022-01-05T09:47:23.168Z</time>
      </trkpt>
      <trkpt lat="44.1223" lon="5.96735">
        <ele>548.20001220703</ele>
        <time>2022-01-05T09:47:27.225Z</time>
      </trkpt>
      <trkpt lat="44.12223" lon="5.96727">
        <ele>548.20001220703</ele>
        <time>2022-01-05T09:47:31.285Z</time>
      </trkpt>
      <trkpt lat="44.12205" lon="5.96737">
        <ele>548.20001220703</ele>
        <time>2022-01-05T09:47:35.352Z</time>
      </trkpt>
      <trkpt lat="44.12187" lon="5.96738">
        <ele>548.20001220703</ele>
        <time>2022-01-05T09:47:39.425Z</time>
      </trkpt>
      <trkpt lat="44.12172" lon="5.96747">
        <ele>548.20001220703</ele>
        <time>2022-01-05T09:47:43.504Z</time>
      </trkpt>
      <trkpt lat="44.12159" lon="5.96748">
        <ele>550.40002441406</ele>
        <time>2022-01-05T09:47:47.587Z</time>
      </trkpt>
      <trkpt lat="44.12137" lon="5.96735">
        <ele>550.79998779297</ele>
        <time>2022-01-05T09:47:51.678Z</time>
      </trkpt>
      <trkpt lat="44.12127" lon="5.96721">
        <ele>550.79998779297</ele>
        <time>2022-01-05T09:47:55.774Z</time>
      </trkpt>
      <trkpt lat="44.12134" lon="5.9668">
        <ele>550.79998779297</ele>
        <time>2022-01-05T09:47:59.881Z</time>
      </trkpt>
      <trkpt lat="44.12138" lon="5.96636">
        <ele>552.40002441406</ele>
        <time>2022-01-05T09:48:03.999Z</time>
      </trkpt>
      <trkpt lat="44.12145" lon="5.9662">
        <ele>552.59997558594</ele>
        <time>2022-01-05T09:48:08.122Z</time>
      </trkpt>
      <trkpt lat="44.12138" lon="5.96602">
        <ele>552.79998779297</ele>
        <time>2022-01-05T09:48:12.250Z</time>
      </trkpt>
      <trkpt lat="44.12137" lon="5.96582">
        <ele>552.79998779297</ele>
        <time>2022-01-05T09:48:16.383Z</time>
      </trkpt>
      <trkpt lat="44.1215" lon="5.96559">
        <ele>552.79998779297</ele>
        <time>2022-01-05T09:48:20.523Z</time>
      </trkpt>
      <trkpt lat="44.12157" lon="5.96528">
        <ele>553.79998779297</ele>
        <time>2022-01-05T09:48:24.671Z</time>
      </trkpt>
      <trkpt lat="44.12164" lon="5.96513">
        <ele>553.79998779297</ele>
        <time>2022-01-05T09:48:28.823Z</time>
      </trkpt>
      <trkpt lat="44.12172" lon="5.96502">
        <ele>553.79998779297</ele>
        <time>2022-01-05T09:48:32.979Z</time>
      </trkpt>
      <trkpt lat="44.12185" lon="5.9649">
        <ele>559.20001220703</ele>
        <time>2022-01-05T09:48:37.141Z</time>
      </trkpt>
      <trkpt lat="44.12223" lon="5.96473">
        <ele>563.40002441406</ele>
        <time>2022-01-05T09:48:41.317Z</time>
      </trkpt>
      <trkpt lat="44.12257" lon="5.96451">
        <ele>567.79998779297</ele>
        <time>2022-01-05T09:48:45.506Z</time>
      </trkpt>
      <trkpt lat="44.1226" lon="5.96447">
        <ele>567.79998779297</ele>
        <time>2022-01-05T09:48:49.696Z</time>
      </trkpt>
      <trkpt lat="44.12255" lon="5.96427">
        <ele>567.79998779297</ele>
        <time>2022-01-05T09:48:53.892Z</time>
      </trkpt>
      <trkpt lat="44.12257" lon="5.9642">
        <ele>564</ele>
        <time>2022-01-05T09:48:58.089Z</time>
      </trkpt>
      <trkpt lat="44.12262" lon="5.96413">
        <ele>564</ele>
        <time>2022-01-05T09:49:02.289Z</time>
      </trkpt>
      <trkpt lat="44.12275" lon="5.96412">
        <ele>562</ele>
        <time>2022-01-05T09:49:06.493Z</time>
      </trkpt>
      <trkpt lat="44.12286" lon="5.96392">
        <ele>562.20001220703</ele>
        <time>2022-01-05T09:49:10.704Z</time>
      </trkpt>
      <trkpt lat="44.12296" lon="5.96367">
        <ele>563.79998779297</ele>
        <time>2022-01-05T09:49:14.922Z</time>
      </trkpt>
      <trkpt lat="44.12299" lon="5.96363">
        <ele>563.79998779297</ele>
        <time>2022-01-05T09:49:19.141Z</time>
      </trkpt>
      <trkpt lat="44.12301" lon="5.96357">
        <ele>566.59997558594</ele>
        <time>2022-01-05T09:49:23.362Z</time>
      </trkpt>
      <trkpt lat="44.12302" lon="5.96339">
        <ele>569.59997558594</ele>
        <time>2022-01-05T09:49:27.587Z</time>
      </trkpt>
      <trkpt lat="44.12305" lon="5.96336">
        <ele>569.59997558594</ele>
        <time>2022-01-05T09:49:31.814Z</time>
      </trkpt>
      <trkpt lat="44.12309" lon="5.96336">
        <ele>572.20001220703</ele>
        <time>2022-01-05T09:49:36.042Z</time>
      </trkpt>
      <trkpt lat="44.12311" lon="5.96322">
        <ele>572.20001220703</ele>
        <time>2022-01-05T09:49:40.273Z</time>
      </trkpt>
      <trkpt lat="44.12315" lon="5.96313">
        <ele>572.20001220703</ele>
        <time>2022-01-05T09:49:44.507Z</time>
      </trkpt>
      <trkpt lat="44.12316" lon="5.96302">
        <ele>572.20001220703</ele>
        <time>2022-01-05T09:49:48.744Z</time>
      </trkpt>
      <trkpt lat="44.12315" lon="5.96282">
        <ele>579.20001220703</ele>
        <time>2022-01-05T09:49:52.986Z</time>
      </trkpt>
      <trkpt lat="44.12311" lon="5.96266">
        <ele>577.59997558594</ele>
        <time>2022-01-05T09:49:57.232Z</time>
      </trkpt>
      <trkpt lat="44.12303" lon="5.96264">
        <ele>577.59997558594</ele>
        <time>2022-01-05T09:50:01.481Z</time>
      </trkpt>
      <trkpt lat="44.12291" lon="5.96263">
        <ele>577.59997558594</ele>
        <time>2022-01-05T09:50:05.734Z</time>
      </trkpt>
      <trkpt lat="44.12278" lon="5.96258">
        <ele>577.59997558594</ele>
        <time>2022-01-05T09:50:09.992Z</time>
      </trkpt>
      <trkpt lat="44.12242" lon="5.96238">
        <ele>577.59997558594</ele>
        <time>2022-01-05T09:50:14.263Z</time>
      </trkpt>
      <trkpt lat="44.12213" lon="5.96219">
        <ele>577.59997558594</ele>
        <time>2022-01-05T09:50:18.545Z</time>
      </trkpt>
      <trkpt lat="44.12185" lon="5.96213">
        <ele>585</ele>
        <time>2022-01-05T09:50:22.837Z</time>
      </trkpt>
      <trkpt lat="44.12167" lon="5.96207">
        <ele>585</ele>
        <time>2022-01-05T09:50:27.135Z</time>
      </trkpt>
      <trkpt lat="44.12148" lon="5.96192">
        <ele>585</ele>
        <time>2022-01-05T09:50:31.441Z</time>
      </trkpt>
      <trkpt lat="44.12127" lon="5.96182">
        <ele>585</ele>
        <time>2022-01-05T09:50:35.755Z</time>
      </trkpt>
      <trkpt lat="44.12106" lon="5.96179">
        <ele>585</ele>
        <time>2022-01-05T09:50:40.076Z</time>
      </trkpt>
      <trkpt lat="44.12073" lon="5.96181">
        <ele>593.20001220703</ele>
        <time>2022-01-05T09:50:44.409Z</time>
      </trkpt>
      <trkpt lat="44.12028" lon="5.96163">
        <ele>602.59997558594</ele>
        <time>2022-01-05T09:50:48.758Z</time>
      </trkpt>
      <trkpt lat="44.1201" lon="5.96157">
        <ele>605</ele>
        <time>2022-01-05T09:50:53.113Z</time>
      </trkpt>
      <trkpt lat="44.12005" lon="5.96153">
        <ele>605</ele>
        <time>2022-01-05T09:50:57.470Z</time>
      </trkpt>
      <trkpt lat="44.11992" lon="5.96149">
        <ele>605</ele>
        <time>2022-01-05T09:51:01.832Z</time>
      </trkpt>
      <trkpt lat="44.11977" lon="5.96147">
        <ele>608.59997558594</ele>
        <time>2022-01-05T09:51:06.199Z</time>
      </trkpt>
      <trkpt lat="44.11966" lon="5.96143">
        <ele>609.79998779297</ele>
        <time>2022-01-05T09:51:10.570Z</time>
      </trkpt>
      <trkpt lat="44.1196" lon="5.96143">
        <ele>609.79998779297</ele>
        <time>2022-01-05T09:51:14.943Z</time>
      </trkpt>
      <trkpt lat="44.11954" lon="5.96146">
        <ele>610.40002441406</ele>
        <time>2022-01-05T09:51:19.318Z</time>
      </trkpt>
      <trkpt lat="44.11922" lon="5.96151">
        <ele>610.40002441406</ele>
        <time>2022-01-05T09:51:23.705Z</time>
      </trkpt>
      <trkpt lat="44.11908" lon="5.96146">
        <ele>607</ele>
        <time>2022-01-05T09:51:28.097Z</time>
      </trkpt>
      <trkpt lat="44.11899" lon="5.96131">
        <ele>607</ele>
        <time>2022-01-05T09:51:32.494Z</time>
      </trkpt>
      <trkpt lat="44.11893" lon="5.96119">
        <ele>607</ele>
        <time>2022-01-05T09:51:36.894Z</time>
      </trkpt>
      <trkpt lat="44.11881" lon="5.96107">
        <ele>607</ele>
        <time>2022-01-05T09:51:41.299Z</time>
      </trkpt>
      <trkpt lat="44.11877" lon="5.96105">
        <ele>613</ele>
        <time>2022-01-05T09:51:45.706Z</time>
      </trkpt>
      <trkpt lat="44.11865" lon="5.96096">
        <ele>613</ele>
        <time>2022-01-05T09:51:50.118Z</time>
      </trkpt>
      <trkpt lat="44.11826" lon="5.96087">
        <ele>613</ele>
        <time>2022-01-05T09:51:54.543Z</time>
      </trkpt>
      <trkpt lat="44.11805" lon="5.96093">
        <ele>613</ele>
        <time>2022-01-05T09:51:58.976Z</time>
      </trkpt>
      <trkpt lat="44.11787" lon="5.96099">
        <ele>613</ele>
        <time>2022-01-05T09:52:03.415Z</time>
      </trkpt>
      <trkpt lat="44.11776" lon="5.96101">
        <ele>610.79998779297</ele>
        <time>2022-01-05T09:52:07.858Z</time>
      </trkpt>
      <trkpt lat="44.11765" lon="5.96091">
        <ele>610.79998779297</ele>
        <time>2022-01-05T09:52:12.306Z</time>
      </trkpt>
      <trkpt lat="44.11744" lon="5.96082">
        <ele>610.79998779297</ele>
        <time>2022-01-05T09:52:16.761Z</time>
      </trkpt>
      <trkpt lat="44.11708" lon="5.96074">
        <ele>610.79998779297</ele>
        <time>2022-01-05T09:52:21.229Z</time>
      </trkpt>
      <trkpt lat="44.11687" lon="5.96074">
        <ele>610.79998779297</ele>
        <time>2022-01-05T09:52:25.704Z</time>
      </trkpt>
      <trkpt lat="44.11671" lon="5.96088">
        <ele>610.79998779297</ele>
        <time>2022-01-05T09:52:30.186Z</time>
      </trkpt>
      <trkpt lat="44.11653" lon="5.96087">
        <ele>608.79998779297</ele>
        <time>2022-01-05T09:52:34.674Z</time>
      </trkpt>
      <trkpt lat="44.11633" lon="5.9609">
        <ele>608</ele>
        <time>2022-01-05T09:52:39.169Z</time>
      </trkpt>
      <trkpt lat="44.11613" lon="5.96104">
        <ele>606</ele>
        <time>2022-01-05T09:52:43.672Z</time>
      </trkpt>
      <trkpt lat="44.11605" lon="5.96114">
        <ele>606</ele>
        <time>2022-01-05T09:52:48.178Z</time>
      </trkpt>
      <trkpt lat="44.11596" lon="5.9612">
        <ele>602.59997558594</ele>
        <time>2022-01-05T09:52:52.688Z</time>
      </trkpt>
      <trkpt lat="44.11592" lon="5.96125">
        <ele>602.59997558594</ele>
        <time>2022-01-05T09:52:57.200Z</time>
      </trkpt>
      <trkpt lat="44.11585" lon="5.96155">
        <ele>598</ele>
        <time>2022-01-05T09:53:01.720Z</time>
      </trkpt>
      <trkpt lat="44.11578" lon="5.96164">
        <ele>595.20001220703</ele>
        <time>2022-01-05T09:53:06.243Z</time>
      </trkpt>
      <trkpt lat="44.1157" lon="5.96168">
        <ele>595.20001220703</ele>
        <time>2022-01-05T09:53:10.769Z</time>
      </trkpt>
      <trkpt lat="44.11563" lon="5.96169">
        <ele>595.20001220703</ele>
        <time>2022-01-05T09:53:15.298Z</time>
      </trkpt>
      <trkpt lat="44.11557" lon="5.96175">
        <ele>590.59997558594</ele>
        <time>2022-01-05T09:53:19.829Z</time>
      </trkpt>
      <trkpt lat="44.1155" lon="5.96177">
        <ele>590.59997558594</ele>
        <time>2022-01-05T09:53:24.363Z</time>
      </trkpt>
      <trkpt lat="44.11537" lon="5.96174">
        <ele>585.40002441406</ele>
        <time>2022-01-05T09:53:28.901Z</time>
      </trkpt>
      <trkpt lat="44.11534" lon="5.96179">
        <ele>585.40002441406</ele>
        <time>2022-01-05T09:53:33.441Z</time>
      </trkpt>
      <trkpt lat="44.11533" lon="5.96179">
        <ele>585.20001220703</ele>
        <time>2022-01-05T09:53:37.981Z</time>
      </trkpt>
      <trkpt lat="44.1153" lon="5.96171">
        <ele>585.20001220703</ele>
        <time>2022-01-05T09:53:42.523Z</time>
      </trkpt>
      <trkpt lat="44.11549" lon="5.96151">
        <ele>585.20001220703</ele>
        <time>2022-01-05T09:53:47.074Z</time>
      </trkpt>
      <trkpt lat="44.11562" lon="5.96127">
        <ele>585.20001220703</ele>
        <time>2022-01-05T09:53:51.632Z</time>
      </trkpt>
      <trkpt lat="44.11578" lon="5.96084">
        <ele>575.20001220703</ele>
        <time>2022-01-05T09:53:56.202Z</time>
      </trkpt>
      <trkpt lat="44.11581" lon="5.96061">
        <ele>572.59997558594</ele>
        <time>2022-01-05T09:54:00.778Z</time>
      </trkpt>
      <trkpt lat="44.11586" lon="5.96043">
        <ele>572.59997558594</ele>
        <time>2022-01-05T09:54:05.359Z</time>
      </trkpt>
      <trkpt lat="44.11591" lon="5.96036">
        <ele>570.59997558594</ele>
        <time>2022-01-05T09:54:09.942Z</time>
      </trkpt>
      <trkpt lat="44.11606" lon="5.96022">
        <ele>569.20001220703</ele>
        <time>2022-01-05T09:54:14.532Z</time>
      </trkpt>
      <trkpt lat="44.11621" lon="5.96003">
        <ele>567.20001220703</ele>
        <time>2022-01-05T09:54:19.129Z</time>
      </trkpt>
      <trkpt lat="44.11643" lon="5.95983">
        <ele>567.20001220703</ele>
        <time>2022-01-05T09:54:23.735Z</time>
      </trkpt>
      <trkpt lat="44.11647" lon="5.95972">
        <ele>567.20001220703</ele>
        <time>2022-01-05T09:54:28.344Z</time>
      </trkpt>
      <trkpt lat="44.1164" lon="5.95964">
        <ele>562.20001220703</ele>
        <time>2022-01-05T09:54:32.956Z</time>
      </trkpt>
      <trkpt lat="44.1163" lon="5.95964">
        <ele>562.20001220703</ele>
        <time>2022-01-05T09:54:37.572Z</time>
      </trkpt>
      <trkpt lat="44.11603" lon="5.95976">
        <ele>562.20001220703</ele>
        <time>2022-01-05T09:54:42.197Z</time>
      </trkpt>
      <trkpt lat="44.11593" lon="5.95966">
        <ele>562.20001220703</ele>
        <time>2022-01-05T09:54:46.826Z</time>
      </trkpt>
      <trkpt lat="44.11592" lon="5.9596">
        <ele>555</ele>
        <time>2022-01-05T09:54:51.457Z</time>
      </trkpt>
      <trkpt lat="44.11608" lon="5.95922">
        <ele>555</ele>
        <time>2022-01-05T09:54:56.099Z</time>
      </trkpt>
      <trkpt lat="44.11608" lon="5.95905">
        <ele>555</ele>
        <time>2022-01-05T09:55:00.745Z</time>
      </trkpt>
      <trkpt lat="44.11597" lon="5.959">
        <ele>550.59997558594</ele>
        <time>2022-01-05T09:55:05.395Z</time>
      </trkpt>
      <trkpt lat="44.11585" lon="5.95898">
        <ele>549.59997558594</ele>
        <time>2022-01-05T09:55:10.049Z</time>
      </trkpt>
      <trkpt lat="44.11577" lon="5.95892">
        <ele>549</ele>
        <time>2022-01-05T09:55:14.706Z</time>
      </trkpt>
      <trkpt lat="44.11573" lon="5.95883">
        <ele>548</ele>
        <time>2022-01-05T09:55:19.366Z</time>
      </trkpt>
      <trkpt lat="44.11574" lon="5.95864">
        <ele>548</ele>
        <time>2022-01-05T09:55:24.031Z</time>
      </trkpt>
      <trkpt lat="44.11581" lon="5.95859">
        <ele>545.59997558594</ele>
        <time>2022-01-05T09:55:28.699Z</time>
      </trkpt>
      <trkpt lat="44.11585" lon="5.95852">
        <ele>545.59997558594</ele>
        <time>2022-01-05T09:55:33.369Z</time>
      </trkpt>
      <trkpt lat="44.11595" lon="5.95843">
        <ele>545.40002441406</ele>
        <time>2022-01-05T09:55:38.043Z</time>
      </trkpt>
      <trkpt lat="44.11611" lon="5.95839">
        <ele>545.40002441406</ele>
        <time>2022-01-05T09:55:42.723Z</time>
      </trkpt>
      <trkpt lat="44.11619" lon="5.95839">
        <ele>545.40002441406</ele>
        <time>2022-01-05T09:55:47.406Z</time>
      </trkpt>
      <trkpt lat="44.11641" lon="5.95847">
        <ele>545.40002441406</ele>
        <time>2022-01-05T09:55:52.096Z</time>
      </trkpt>
      <trkpt lat="44.11656" lon="5.95847">
        <ele>545.40002441406</ele>
        <time>2022-01-05T09:55:56.792Z</time>
      </trkpt>
      <trkpt lat="44.1167" lon="5.95856">
        <ele>545.40002441406</ele>
        <time>2022-01-05T09:56:01.493Z</time>
      </trkpt>
      <trkpt lat="44.1168" lon="5.95865">
        <ele>543.79998779297</ele>
        <time>2022-01-05T09:56:06.198Z</time>
      </trkpt>
      <trkpt lat="44.11687" lon="5.95868">
        <ele>543.79998779297</ele>
        <time>2022-01-05T09:56:10.906Z</time>
      </trkpt>
      <trkpt lat="44.11696" lon="5.95867">
        <ele>543.79998779297</ele>
        <time>2022-01-05T09:56:15.617Z</time>
      </trkpt>
      <trkpt lat="44.11705" lon="5.95872">
        <ele>542.20001220703</ele>
        <time>2022-01-05T09:56:20.331Z</time>
      </trkpt>
      <trkpt lat="44.11712" lon="5.95878">
        <ele>541.20001220703</ele>
        <time>2022-01-05T09:56:25.048Z</time>
      </trkpt>
      <trkpt lat="44.11715" lon="5.95879">
        <ele>541.20001220703</ele>
        <time>2022-01-05T09:56:29.766Z</time>
      </trkpt>
      <trkpt lat="44.11722" lon="5.95863">
        <ele>542.59997558594</ele>
        <time>2022-01-05T09:56:34.489Z</time>
      </trkpt>
      <trkpt lat="44.11725" lon="5.95852">
        <ele>542.59997558594</ele>
        <time>2022-01-05T09:56:39.215Z</time>
      </trkpt>
      <trkpt lat="44.1173" lon="5.95847">
        <ele>546.40002441406</ele>
        <time>2022-01-05T09:56:43.943Z</time>
      </trkpt>
      <trkpt lat="44.11736" lon="5.95836">
        <ele>546.59997558594</ele>
        <time>2022-01-05T09:56:48.674Z</time>
      </trkpt>
      <trkpt lat="44.1174" lon="5.95833">
        <ele>546.59997558594</ele>
        <time>2022-01-05T09:56:53.407Z</time>
      </trkpt>
      <trkpt lat="44.11763" lon="5.95826">
        <ele>545.79998779297</ele>
        <time>2022-01-05T09:56:58.148Z</time>
      </trkpt>
      <trkpt lat="44.11786" lon="5.95823">
        <ele>545.59997558594</ele>
        <time>2022-01-05T09:57:02.897Z</time>
      </trkpt>
      <trkpt lat="44.118" lon="5.9583">
        <ele>545.59997558594</ele>
        <time>2022-01-05T09:57:07.651Z</time>
      </trkpt>
      <trkpt lat="44.11808" lon="5.95829">
        <ele>545.40002441406</ele>
        <time>2022-01-05T09:57:12.408Z</time>
      </trkpt>
      <trkpt lat="44.11823" lon="5.95852">
        <ele>545.40002441406</ele>
        <time>2022-01-05T09:57:17.173Z</time>
      </trkpt>
      <trkpt lat="44.11828" lon="5.95856">
        <ele>544.79998779297</ele>
        <time>2022-01-05T09:57:21.940Z</time>
      </trkpt>
      <trkpt lat="44.11849" lon="5.95848">
        <ele>543.79998779297</ele>
        <time>2022-01-05T09:57:26.714Z</time>
      </trkpt>
      <trkpt lat="44.11877" lon="5.95851">
        <ele>543.79998779297</ele>
        <time>2022-01-05T09:57:31.498Z</time>
      </trkpt>
      <trkpt lat="44.11883" lon="5.95847">
        <ele>543.59997558594</ele>
        <time>2022-01-05T09:57:36.284Z</time>
      </trkpt>
      <trkpt lat="44.11899" lon="5.95856">
        <ele>541.20001220703</ele>
        <time>2022-01-05T09:57:41.076Z</time>
      </trkpt>
      <trkpt lat="44.11919" lon="5.95863">
        <ele>541.20001220703</ele>
        <time>2022-01-05T09:57:45.875Z</time>
      </trkpt>
      <trkpt lat="44.11927" lon="5.95862">
        <ele>539.59997558594</ele>
        <time>2022-01-05T09:57:50.677Z</time>
      </trkpt>
      <trkpt lat="44.11947" lon="5.95853">
        <ele>539.59997558594</ele>
        <time>2022-01-05T09:57:55.487Z</time>
      </trkpt>
      <trkpt lat="44.11955" lon="5.95847">
        <ele>540.79998779297</ele>
        <time>2022-01-05T09:58:00.300Z</time>
      </trkpt>
      <trkpt lat="44.11976" lon="5.95851">
        <ele>540.79998779297</ele>
        <time>2022-01-05T09:58:05.120Z</time>
      </trkpt>
      <trkpt lat="44.11983" lon="5.95855">
        <ele>540</ele>
        <time>2022-01-05T09:58:09.943Z</time>
      </trkpt>
      <trkpt lat="44.11994" lon="5.95876">
        <ele>540</ele>
        <time>2022-01-05T09:58:14.772Z</time>
      </trkpt>
      <trkpt lat="44.11998" lon="5.9588">
        <ele>539</ele>
        <time>2022-01-05T09:58:19.603Z</time>
      </trkpt>
      <trkpt lat="44.12008" lon="5.95883">
        <ele>539</ele>
        <time>2022-01-05T09:58:24.438Z</time>
      </trkpt>
      <trkpt lat="44.12012" lon="5.95882">
        <ele>537.20001220703</ele>
        <time>2022-01-05T09:58:29.274Z</time>
      </trkpt>
      <trkpt lat="44.12035" lon="5.95875">
        <ele>537.20001220703</ele>
        <time>2022-01-05T09:58:34.118Z</time>
      </trkpt>
      <trkpt lat="44.12048" lon="5.95874">
        <ele>537.20001220703</ele>
        <time>2022-01-05T09:58:38.967Z</time>
      </trkpt>
      <trkpt lat="44.12058" lon="5.95871">
        <ele>537.20001220703</ele>
        <time>2022-01-05T09:58:43.819Z</time>
      </trkpt>
      <trkpt lat="44.12088" lon="5.95883">
        <ele>537.20001220703</ele>
        <time>2022-01-05T09:58:48.682Z</time>
      </trkpt>
      <trkpt lat="44.12093" lon="5.95891">
        <ele>536.40002441406</ele>
        <time>2022-01-05T09:58:53.548Z</time>
      </trkpt>
      <trkpt lat="44.12102" lon="5.95918">
        <ele>534.20001220703</ele>
        <time>2022-01-05T09:58:58.421Z</time>
      </trkpt>
      <trkpt lat="44.12104" lon="5.95921">
        <ele>534.20001220703</ele>
        <time>2022-01-05T09:59:03.295Z</time>
      </trkpt>
      <trkpt lat="44.12113" lon="5.95926">
        <ele>534.20001220703</ele>
        <time>2022-01-05T09:59:08.173Z</time>
      </trkpt>
      <trkpt lat="44.12117" lon="5.95931">
        <ele>532.40002441406</ele>
        <time>2022-01-05T09:59:13.053Z</time>
      </trkpt>
      <trkpt lat="44.12116" lon="5.9595">
        <ele>532.40002441406</ele>
        <time>2022-01-05T09:59:17.937Z</time>
      </trkpt>
      <trkpt lat="44.12118" lon="5.95962">
        <ele>532.40002441406</ele>
        <time>2022-01-05T09:59:22.824Z</time>
      </trkpt>
      <trkpt lat="44.12132" lon="5.95985">
        <ele>539.40002441406</ele>
        <time>2022-01-05T09:59:27.719Z</time>
      </trkpt>
      <trkpt lat="44.12158" lon="5.96">
        <ele>539.40002441406</ele>
        <time>2022-01-05T09:59:32.624Z</time>
      </trkpt>
      <trkpt lat="44.12188" lon="5.96024">
        <ele>536.20001220703</ele>
        <time>2022-01-05T09:59:37.541Z</time>
      </trkpt>
      <trkpt lat="44.12192" lon="5.96024">
        <ele>536.20001220703</ele>
        <time>2022-01-05T09:59:42.459Z</time>
      </trkpt>
      <trkpt lat="44.12203" lon="5.9603">
        <ele>535.59997558594</ele>
        <time>2022-01-05T09:59:47.381Z</time>
      </trkpt>
      <trkpt lat="44.12238" lon="5.96039">
        <ele>535.20001220703</ele>
        <time>2022-01-05T09:59:52.315Z</time>
      </trkpt>
      <trkpt lat="44.12263" lon="5.96043">
        <ele>534.79998779297</ele>
        <time>2022-01-05T09:59:57.258Z</time>
      </trkpt>
      <trkpt lat="44.12273" lon="5.96047">
        <ele>534.79998779297</ele>
        <time>2022-01-05T10:00:02.205Z</time>
      </trkpt>
      <trkpt lat="44.12289" lon="5.96061">
        <ele>532</ele>
        <time>2022-01-05T10:00:07.159Z</time>
      </trkpt>
      <trkpt lat="44.12294" lon="5.96061">
        <ele>532</ele>
        <time>2022-01-05T10:00:12.114Z</time>
      </trkpt>
      <trkpt lat="44.12302" lon="5.96053">
        <ele>532</ele>
        <time>2022-01-05T10:00:17.073Z</time>
      </trkpt>
      <trkpt lat="44.12306" lon="5.96038">
        <ele>532</ele>
        <time>2022-01-05T10:00:22.036Z</time>
      </trkpt>
      <trkpt lat="44.12312" lon="5.96026">
        <ele>532</ele>
        <time>2022-01-05T10:00:27.002Z</time>
      </trkpt>
      <trkpt lat="44.12325" lon="5.96027">
        <ele>532</ele>
        <time>2022-01-05T10:00:31.973Z</time>
      </trkpt>
      <trkpt lat="44.12335" lon="5.96038">
        <ele>533.40002441406</ele>
        <time>2022-01-05T10:00:36.948Z</time>
      </trkpt>
      <trkpt lat="44.12346" lon="5.96056">
        <ele>531.40002441406</ele>
        <time>2022-01-05T10:00:41.929Z</time>
      </trkpt>
      <trkpt lat="44.12348" lon="5.9607">
        <ele>531.40002441406</ele>
        <time>2022-01-05T10:00:46.914Z</time>
      </trkpt>
      <trkpt lat="44.12351" lon="5.96075">
        <ele>531.40002441406</ele>
        <time>2022-01-05T10:00:51.900Z</time>
      </trkpt>
      <trkpt lat="44.12349" lon="5.96089">
        <ele>530.40002441406</ele>
        <time>2022-01-05T10:00:56.890Z</time>
      </trkpt>
      <trkpt lat="44.12352" lon="5.96098">
        <ele>530.40002441406</ele>
        <time>2022-01-05T10:01:01.882Z</time>
      </trkpt>
      <trkpt lat="44.12363" lon="5.9611">
        <ele>531.79998779297</ele>
        <time>2022-01-05T10:01:06.879Z</time>
      </trkpt>
      <trkpt lat="44.12369" lon="5.96108">
        <ele>531.79998779297</ele>
        <time>2022-01-05T10:01:11.879Z</time>
      </trkpt>
      <trkpt lat="44.12374" lon="5.96102">
        <ele>531.79998779297</ele>
        <time>2022-01-05T10:01:16.881Z</time>
      </trkpt>
      <trkpt lat="44.12375" lon="5.9608">
        <ele>533.20001220703</ele>
        <time>2022-01-05T10:01:21.888Z</time>
      </trkpt>
      <trkpt lat="44.12379" lon="5.96057">
        <ele>533.20001220703</ele>
        <time>2022-01-05T10:01:26.901Z</time>
      </trkpt>
      <trkpt lat="44.12386" lon="5.96028">
        <ele>533.20001220703</ele>
        <time>2022-01-05T10:01:31.922Z</time>
      </trkpt>
      <trkpt lat="44.12392" lon="5.96022">
        <ele>531.79998779297</ele>
        <time>2022-01-05T10:01:36.945Z</time>
      </trkpt>
      <trkpt lat="44.12409" lon="5.96009">
        <ele>531.40002441406</ele>
        <time>2022-01-05T10:01:41.975Z</time>
      </trkpt>
      <trkpt lat="44.12418" lon="5.96005">
        <ele>531.40002441406</ele>
        <time>2022-01-05T10:01:47.008Z</time>
      </trkpt>
      <trkpt lat="44.12422" lon="5.96004">
        <ele>529.79998779297</ele>
        <time>2022-01-05T10:01:52.043Z</time>
      </trkpt>
      <trkpt lat="44.12431" lon="5.96008">
        <ele>528.20001220703</ele>
        <time>2022-01-05T10:01:57.081Z</time>
      </trkpt>
      <trkpt lat="44.12443" lon="5.96007">
        <ele>528.20001220703</ele>
        <time>2022-01-05T10:02:02.123Z</time>
      </trkpt>
      <trkpt lat="44.12461" lon="5.96002">
        <ele>525.40002441406</ele>
        <time>2022-01-05T10:02:07.171Z</time>
      </trkpt>
      <trkpt lat="44.12465" lon="5.95999">
        <ele>525.40002441406</ele>
        <time>2022-01-05T10:02:12.221Z</time>
      </trkpt>
      <trkpt lat="44.12475" lon="5.95998">
        <ele>525.40002441406</ele>
        <time>2022-01-05T10:02:17.275Z</time>
      </trkpt>
      <trkpt lat="44.12489" lon="5.96007">
        <ele>526.59997558594</ele>
        <time>2022-01-05T10:02:22.334Z</time>
      </trkpt>
      <trkpt lat="44.1249" lon="5.96013">
        <ele>526.59997558594</ele>
        <time>2022-01-05T10:02:27.394Z</time>
      </trkpt>
      <trkpt lat="44.12493" lon="5.96021">
        <ele>525.59997558594</ele>
        <time>2022-01-05T10:02:32.457Z</time>
      </trkpt>
      <trkpt lat="44.12503" lon="5.96022">
        <ele>524.59997558594</ele>
        <time>2022-01-05T10:02:37.523Z</time>
      </trkpt>
      <trkpt lat="44.12513" lon="5.96034">
        <ele>523.40002441406</ele>
        <time>2022-01-05T10:02:42.594Z</time>
      </trkpt>
      <trkpt lat="44.12529" lon="5.96043">
        <ele>523.40002441406</ele>
        <time>2022-01-05T10:02:47.671Z</time>
      </trkpt>
      <trkpt lat="44.12545" lon="5.9604">
        <ele>523.40002441406</ele>
        <time>2022-01-05T10:02:52.753Z</time>
      </trkpt>
      <trkpt lat="44.12559" lon="5.96035">
        <ele>523.40002441406</ele>
        <time>2022-01-05T10:02:57.840Z</time>
      </trkpt>
      <trkpt lat="44.12568" lon="5.96036">
        <ele>525.79998779297</ele>
        <time>2022-01-05T10:03:02.930Z</time>
      </trkpt>
      <trkpt lat="44.12581" lon="5.96045">
        <ele>524.59997558594</ele>
        <time>2022-01-05T10:03:08.026Z</time>
      </trkpt>
      <trkpt lat="44.12591" lon="5.96065">
        <ele>524.59997558594</ele>
        <time>2022-01-05T10:03:13.128Z</time>
      </trkpt>
      <trkpt lat="44.12603" lon="5.96094">
        <ele>525.40002441406</ele>
        <time>2022-01-05T10:03:18.238Z</time>
      </trkpt>
      <trkpt lat="44.12606" lon="5.96131">
        <ele>521.20001220703</ele>
        <time>2022-01-05T10:03:23.357Z</time>
      </trkpt>
      <trkpt lat="44.12613" lon="5.96156">
        <ele>521.79998779297</ele>
        <time>2022-01-05T10:03:28.483Z</time>
      </trkpt>
      <trkpt lat="44.12617" lon="5.96159">
        <ele>521.79998779297</ele>
        <time>2022-01-05T10:03:33.611Z</time>
      </trkpt>
      <trkpt lat="44.12639" lon="5.96159">
        <ele>521.79998779297</ele>
        <time>2022-01-05T10:03:38.746Z</time>
      </trkpt>
      <trkpt lat="44.12652" lon="5.96156">
        <ele>528.59997558594</ele>
        <time>2022-01-05T10:03:43.886Z</time>
      </trkpt>
      <trkpt lat="44.12653" lon="5.96157">
        <ele>528.59997558594</ele>
        <time>2022-01-05T10:03:49.026Z</time>
      </trkpt>
      <trkpt lat="44.12653" lon="5.9617">
        <ele>528.59997558594</ele>
        <time>2022-01-05T10:03:54.170Z</time>
      </trkpt>
      <trkpt lat="44.1265" lon="5.96176">
        <ele>528.59997558594</ele>
        <time>2022-01-05T10:03:59.315Z</time>
      </trkpt>
      <trkpt lat="44.12646" lon="5.9618">
        <ele>535.40002441406</ele>
        <time>2022-01-05T10:04:04.462Z</time>
      </trkpt>
      <trkpt lat="44.12641" lon="5.96203">
        <ele>538.59997558594</ele>
        <time>2022-01-05T10:04:09.615Z</time>
      </trkpt>
      <trkpt lat="44.12641" lon="5.96211">
        <ele>539.59997558594</ele>
        <time>2022-01-05T10:04:14.770Z</time>
      </trkpt>
      <trkpt lat="44.12645" lon="5.96228">
        <ele>539.59997558594</ele>
        <time>2022-01-05T10:04:19.929Z</time>
      </trkpt>
      <trkpt lat="44.12646" lon="5.96229">
        <ele>533.40002441406</ele>
        <time>2022-01-05T10:04:25.089Z</time>
      </trkpt>
      <trkpt lat="44.12653" lon="5.96229">
        <ele>533.20001220703</ele>
        <time>2022-01-05T10:04:30.251Z</time>
      </trkpt>
      <trkpt lat="44.12656" lon="5.96226">
        <ele>533.20001220703</ele>
        <time>2022-01-05T10:04:35.415Z</time>
      </trkpt>
      <trkpt lat="44.12665" lon="5.96224">
        <ele>534</ele>
        <time>2022-01-05T10:04:40.582Z</time>
      </trkpt>
      <trkpt lat="44.12667" lon="5.9623">
        <ele>534</ele>
        <time>2022-01-05T10:04:45.750Z</time>
      </trkpt>
      <trkpt lat="44.12667" lon="5.96245">
        <ele>534</ele>
        <time>2022-01-05T10:04:50.922Z</time>
      </trkpt>
      <trkpt lat="44.12669" lon="5.9625">
        <ele>528.40002441406</ele>
        <time>2022-01-05T10:04:56.096Z</time>
      </trkpt>
      <trkpt lat="44.12675" lon="5.96253">
        <ele>528.40002441406</ele>
        <time>2022-01-05T10:05:01.272Z</time>
      </trkpt>
      <trkpt lat="44.12683" lon="5.96254">
        <ele>528.40002441406</ele>
        <time>2022-01-05T10:05:06.451Z</time>
      </trkpt>
      <trkpt lat="44.12692" lon="5.96258">
        <ele>521.59997558594</ele>
        <time>2022-01-05T10:05:11.633Z</time>
      </trkpt>
      <trkpt lat="44.12696" lon="5.96258">
        <ele>521.59997558594</ele>
        <time>2022-01-05T10:05:16.816Z</time>
      </trkpt>
      <trkpt lat="44.12707" lon="5.96252">
        <ele>520.40002441406</ele>
        <time>2022-01-05T10:05:22.003Z</time>
      </trkpt>
      <trkpt lat="44.12712" lon="5.96253">
        <ele>520.20001220703</ele>
        <time>2022-01-05T10:05:27.192Z</time>
      </trkpt>
      <trkpt lat="44.12716" lon="5.96257">
        <ele>520.20001220703</ele>
        <time>2022-01-05T10:05:32.383Z</time>
      </trkpt>
      <trkpt lat="44.12734" lon="5.96257">
        <ele>520</ele>
        <time>2022-01-05T10:05:37.580Z</time>
      </trkpt>
      <trkpt lat="44.12746" lon="5.96249">
        <ele>522.59997558594</ele>
        <time>2022-01-05T10:05:42.782Z</time>
      </trkpt>
      <trkpt lat="44.12755" lon="5.96246">
        <ele>522.59997558594</ele>
        <time>2022-01-05T10:05:47.987Z</time>
      </trkpt>
      <trkpt lat="44.1276" lon="5.96243">
        <ele>522.59997558594</ele>
        <time>2022-01-05T10:05:53.194Z</time>
      </trkpt>
      <trkpt lat="44.12778" lon="5.96269">
        <ele>522.59997558594</ele>
        <time>2022-01-05T10:05:58.410Z</time>
      </trkpt>
      <trkpt lat="44.12784" lon="5.96282">
        <ele>522.59997558594</ele>
        <time>2022-01-05T10:06:03.630Z</time>
      </trkpt>
      <trkpt lat="44.12797" lon="5.96304">
        <ele>522.79998779297</ele>
        <time>2022-01-05T10:06:08.857Z</time>
      </trkpt>
      <trkpt lat="44.12823" lon="5.96317">
        <ele>526</ele>
        <time>2022-01-05T10:06:14.093Z</time>
      </trkpt>
      <trkpt lat="44.12843" lon="5.96352">
        <ele>521.40002441406</ele>
        <time>2022-01-05T10:06:19.341Z</time>
      </trkpt>
      <trkpt lat="44.12853" lon="5.96379">
        <ele>518.20001220703</ele>
        <time>2022-01-05T10:06:24.596Z</time>
      </trkpt>
      <trkpt lat="44.1286" lon="5.96389">
        <ele>516.79998779297</ele>
        <time>2022-01-05T10:06:29.855Z</time>
      </trkpt>
      <trkpt lat="44.12868" lon="5.96407">
        <ele>516.79998779297</ele>
        <time>2022-01-05T10:06:35.119Z</time>
      </trkpt>
      <trkpt lat="44.12871" lon="5.96409">
        <ele>514</ele>
        <time>2022-01-05T10:06:40.384Z</time>
      </trkpt>
      <trkpt lat="44.12877" lon="5.96417">
        <ele>514</ele>
        <time>2022-01-05T10:06:45.652Z</time>
      </trkpt>
      <trkpt lat="44.12881" lon="5.96449">
        <ele>514</ele>
        <time>2022-01-05T10:06:50.928Z</time>
      </trkpt>
      <trkpt lat="44.12889" lon="5.96467">
        <ele>514</ele>
        <time>2022-01-05T10:06:56.210Z</time>
      </trkpt>
      <trkpt lat="44.12895" lon="5.96512">
        <ele>514</ele>
        <time>2022-01-05T10:07:01.503Z</time>
      </trkpt>
      <trkpt lat="44.12908" lon="5.96529">
        <ele>516.20001220703</ele>
        <time>2022-01-05T10:07:06.802Z</time>
      </trkpt>
      <trkpt lat="44.12912" lon="5.96532">
        <ele>516.20001220703</ele>
        <time>2022-01-05T10:07:12.103Z</time>
      </trkpt>
      <trkpt lat="44.1295" lon="5.9654">
        <ele>516.20001220703</ele>
        <time>2022-01-05T10:07:17.417Z</time>
      </trkpt>
      <trkpt lat="44.12972" lon="5.96541">
        <ele>513.79998779297</ele>
        <time>2022-01-05T10:07:22.739Z</time>
      </trkpt>
      <trkpt lat="44.12989" lon="5.96536">
        <ele>513</ele>
        <time>2022-01-05T10:07:28.067Z</time>
      </trkpt>
      <trkpt lat="44.13013" lon="5.96539">
        <ele>513</ele>
        <time>2022-01-05T10:07:33.403Z</time>
      </trkpt>
      <trkpt lat="44.13023" lon="5.96553">
        <ele>513</ele>
        <time>2022-01-05T10:07:38.744Z</time>
      </trkpt>
      <trkpt lat="44.13034" lon="5.96573">
        <ele>513</ele>
        <time>2022-01-05T10:07:44.091Z</time>
      </trkpt>
      <trkpt lat="44.13036" lon="5.96583">
        <ele>506.60000610352</ele>
        <time>2022-01-05T10:07:49.441Z</time>
      </trkpt>
      <trkpt lat="44.13036" lon="5.96599">
        <ele>506.60000610352</ele>
        <time>2022-01-05T10:07:54.795Z</time>
      </trkpt>
      <trkpt lat="44.13015" lon="5.96678">
        <ele>506.60000610352</ele>
        <time>2022-01-05T10:08:00.170Z</time>
      </trkpt>
      <trkpt lat="44.1301" lon="5.96695">
        <ele>506.60000610352</ele>
        <time>2022-01-05T10:08:05.550Z</time>
      </trkpt>
      <trkpt lat="44.12989" lon="5.96744">
        <ele>519.40002441406</ele>
        <time>2022-01-05T10:08:10.944Z</time>
      </trkpt>
      <trkpt lat="44.12976" lon="5.96766">
        <ele>522</ele>
        <time>2022-01-05T10:08:16.345Z</time>
      </trkpt>
      <trkpt lat="44.12976" lon="5.96782">
        <ele>520.79998779297</ele>
        <time>2022-01-05T10:08:21.750Z</time>
      </trkpt>
      <trkpt lat="44.1298" lon="5.96796">
        <ele>520.79998779297</ele>
        <time>2022-01-05T10:08:27.159Z</time>
      </trkpt>
      <trkpt lat="44.12983" lon="5.96817">
        <ele>520.79998779297</ele>
        <time>2022-01-05T10:08:32.573Z</time>
      </trkpt>
      <trkpt lat="44.12982" lon="5.96825">
        <ele>513.20001220703</ele>
        <time>2022-01-05T10:08:37.989Z</time>
      </trkpt>
      <trkpt lat="44.12975" lon="5.96844">
        <ele>513.20001220703</ele>
        <time>2022-01-05T10:08:43.410Z</time>
      </trkpt>
      <trkpt lat="44.12973" lon="5.96898">
        <ele>513.20001220703</ele>
        <time>2022-01-05T10:08:48.845Z</time>
      </trkpt>
      <trkpt lat="44.1297" lon="5.96922">
        <ele>513.20001220703</ele>
        <time>2022-01-05T10:08:54.286Z</time>
      </trkpt>
      <trkpt lat="44.12967" lon="5.9693">
        <ele>513.20001220703</ele>
        <time>2022-01-05T10:08:59.729Z</time>
      </trkpt>
      <trkpt lat="44.12964" lon="5.96934">
        <ele>498.20001220703</ele>
        <time>2022-01-05T10:09:05.174Z</time>
      </trkpt>
      <trkpt lat="44.12957" lon="5.96935">
        <ele>497.20001220703</ele>
        <time>2022-01-05T10:09:10.621Z</time>
      </trkpt>
      <trkpt lat="44.12947" lon="5.96921">
        <ele>497.60000610352</ele>
        <time>2022-01-05T10:09:16.073Z</time>
      </trkpt>
      <trkpt lat="44.12923" lon="5.96916">
        <ele>497.60000610352</ele>
        <time>2022-01-05T10:09:21.534Z</time>
      </trkpt>
      <trkpt lat="44.12911" lon="5.96912">
        <ele>499.39999389648</ele>
        <time>2022-01-05T10:09:26.999Z</time>
      </trkpt>
      <trkpt lat="44.129" lon="5.96903">
        <ele>500.60000610352</ele>
        <time>2022-01-05T10:09:32.468Z</time>
      </trkpt>
      <trkpt lat="44.12878" lon="5.96867">
        <ele>503.79998779297</ele>
        <time>2022-01-05T10:09:37.949Z</time>
      </trkpt>
      <trkpt lat="44.12851" lon="5.96832">
        <ele>503.79998779297</ele>
        <time>2022-01-05T10:09:43.443Z</time>
      </trkpt>
      <trkpt lat="44.12845" lon="5.96818">
        <ele>503.79998779297</ele>
        <time>2022-01-05T10:09:48.941Z</time>
      </trkpt>
      <trkpt lat="44.12842" lon="5.96823">
        <ele>508.39999389648</ele>
        <time>2022-01-05T10:09:54.441Z</time>
      </trkpt>
      <trkpt lat="44.12835" lon="5.96829">
        <ele>508.39999389648</ele>
        <time>2022-01-05T10:09:59.943Z</time>
      </trkpt>
      <trkpt lat="44.12819" lon="5.96833">
        <ele>512.40002441406</ele>
        <time>2022-01-05T10:10:05.451Z</time>
      </trkpt>
      <trkpt lat="44.12805" lon="5.96828">
        <ele>512.40002441406</ele>
        <time>2022-01-05T10:10:10.964Z</time>
      </trkpt>
      <trkpt lat="44.12798" lon="5.96822">
        <ele>512.40002441406</ele>
        <time>2022-01-05T10:10:16.480Z</time>
      </trkpt>
      <trkpt lat="44.1279" lon="5.9682">
        <ele>518.40002441406</ele>
        <time>2022-01-05T10:10:21.999Z</time>
      </trkpt>
      <trkpt lat="44.12776" lon="5.96808">
        <ele>519.40002441406</ele>
        <time>2022-01-05T10:10:27.523Z</time>
      </trkpt>
      <trkpt lat="44.12773" lon="5.96809">
        <ele>519.40002441406</ele>
        <time>2022-01-05T10:10:33.048Z</time>
      </trkpt>
      <trkpt lat="44.12765" lon="5.96814">
        <ele>519.40002441406</ele>
        <time>2022-01-05T10:10:38.576Z</time>
      </trkpt>
      <trkpt lat="44.1276" lon="5.96834">
        <ele>523</ele>
        <time>2022-01-05T10:10:44.110Z</time>
      </trkpt>
      <trkpt lat="44.12757" lon="5.9684">
        <ele>523</ele>
        <time>2022-01-05T10:10:49.646Z</time>
      </trkpt>
      <trkpt lat="44.12748" lon="5.96863">
        <ele>525</ele>
        <time>2022-01-05T10:10:55.188Z</time>
      </trkpt>
      <trkpt lat="44.12739" lon="5.96898">
        <ele>527.40002441406</ele>
        <time>2022-01-05T10:11:00.740Z</time>
      </trkpt>
      <trkpt lat="44.12746" lon="5.96942">
        <ele>527.40002441406</ele>
        <time>2022-01-05T10:11:06.303Z</time>
      </trkpt>
      <trkpt lat="44.12744" lon="5.96959">
        <ele>527.40002441406</ele>
        <time>2022-01-05T10:11:11.870Z</time>
      </trkpt>
      <trkpt lat="44.12735" lon="5.96973">
        <ele>532</ele>
        <time>2022-01-05T10:11:17.442Z</time>
      </trkpt>
      <trkpt lat="44.12719" lon="5.96981">
        <ele>533</ele>
        <time>2022-01-05T10:11:23.020Z</time>
      </trkpt>
      <trkpt lat="44.12668" lon="5.9699">
        <ele>537.40002441406</ele>
        <time>2022-01-05T10:11:28.616Z</time>
      </trkpt>
      <trkpt lat="44.12647" lon="5.97005">
        <ele>538.40002441406</ele>
        <time>2022-01-05T10:11:34.220Z</time>
      </trkpt>
      <trkpt lat="44.12643" lon="5.9701">
        <ele>538.40002441406</ele>
        <time>2022-01-05T10:11:39.826Z</time>
      </trkpt>
      <trkpt lat="44.12626" lon="5.97017">
        <ele>539</ele>
        <time>2022-01-05T10:11:45.438Z</time>
      </trkpt>
      <trkpt lat="44.12611" lon="5.97022">
        <ele>538.79998779297</ele>
        <time>2022-01-05T10:11:51.055Z</time>
      </trkpt>
      <trkpt lat="44.12598" lon="5.97023">
        <ele>538.79998779297</ele>
        <time>2022-01-05T10:11:56.677Z</time>
      </trkpt>
      <trkpt lat="44.12553" lon="5.9702">
        <ele>540.20001220703</ele>
        <time>2022-01-05T10:12:02.314Z</time>
      </trkpt>
      <trkpt lat="44.12485" lon="5.97029">
        <ele>540.20001220703</ele>
        <time>2022-01-05T10:12:07.975Z</time>
      </trkpt>
      <trkpt lat="44.12464" lon="5.97029">
        <ele>540.20001220703</ele>
        <time>2022-01-05T10:12:13.643Z</time>
      </trkpt>
      <trkpt lat="44.12452" lon="5.97027">
        <ele>543.79998779297</ele>
        <time>2022-01-05T10:12:19.315Z</time>
      </trkpt>
      <trkpt lat="44.12444" lon="5.9703">
        <ele>543.79998779297</ele>
        <time>2022-01-05T10:12:24.990Z</time>
      </trkpt>
      <trkpt lat="44.12438" lon="5.97038">
        <ele>544.79998779297</ele>
        <time>2022-01-05T10:12:30.668Z</time>
      </trkpt>
      <trkpt lat="44.12434" lon="5.9704">
        <ele>544.79998779297</ele>
        <time>2022-01-05T10:12:36.348Z</time>
      </trkpt>
      <trkpt lat="44.12423" lon="5.97039">
        <ele>546.20001220703</ele>
        <time>2022-01-05T10:12:42.032Z</time>
      </trkpt>
      <trkpt lat="44.12403" lon="5.97043">
        <ele>544.79998779297</ele>
        <time>2022-01-05T10:12:47.723Z</time>
      </trkpt>
      <trkpt lat="44.12376" lon="5.97043">
        <ele>542.20001220703</ele>
        <time>2022-01-05T10:12:53.423Z</time>
      </trkpt>
      <trkpt lat="44.12356" lon="5.97038">
        <ele>542.20001220703</ele>
        <time>2022-01-05T10:12:59.130Z</time>
      </trkpt>
      <trkpt lat="44.12326" lon="5.97048">
        <ele>542.20001220703</ele>
        <time>2022-01-05T10:13:04.848Z</time>
      </trkpt>
      <trkpt lat="44.12315" lon="5.97054">
        <ele>536.40002441406</ele>
        <time>2022-01-05T10:13:10.570Z</time>
      </trkpt>
      <trkpt lat="44.12273" lon="5.97059">
        <ele>536.40002441406</ele>
        <time>2022-01-05T10:13:16.306Z</time>
      </trkpt>
      <trkpt lat="44.12267" lon="5.97063">
        <ele>531</ele>
        <time>2022-01-05T10:13:22.045Z</time>
      </trkpt>
      <trkpt lat="44.12261" lon="5.97075">
        <ele>530.59997558594</ele>
        <time>2022-01-05T10:13:27.787Z</time>
      </trkpt>
      <trkpt lat="44.12254" lon="5.97075">
        <ele>530.20001220703</ele>
        <time>2022-01-05T10:13:33.532Z</time>
      </trkpt>
      <trkpt lat="44.12252" lon="5.97078">
        <ele>530.20001220703</ele>
        <time>2022-01-05T10:13:39.278Z</time>
      </trkpt>
      <trkpt lat="44.1225" lon="5.97085">
        <ele>528.40002441406</ele>
        <time>2022-01-05T10:13:45.026Z</time>
      </trkpt>
      <trkpt lat="44.12247" lon="5.97091">
        <ele>528.40002441406</ele>
        <time>2022-01-05T10:13:50.775Z</time>
      </trkpt>
      <trkpt lat="44.12235" lon="5.97094">
        <ele>526.40002441406</ele>
        <time>2022-01-05T10:13:56.529Z</time>
      </trkpt>
      <trkpt lat="44.12231" lon="5.97105">
        <ele>525.40002441406</ele>
        <time>2022-01-05T10:14:02.286Z</time>
      </trkpt>
      <trkpt lat="44.12226" lon="5.97108">
        <ele>524.59997558594</ele>
        <time>2022-01-05T10:14:08.045Z</time>
      </trkpt>
      <trkpt lat="44.12223" lon="5.97117">
        <ele>523.40002441406</ele>
        <time>2022-01-05T10:14:13.806Z</time>
      </trkpt>
      <trkpt lat="44.12216" lon="5.97127">
        <ele>523.40002441406</ele>
        <time>2022-01-05T10:14:19.571Z</time>
      </trkpt>
      <trkpt lat="44.12206" lon="5.9713">
        <ele>523.40002441406</ele>
        <time>2022-01-05T10:14:25.339Z</time>
      </trkpt>
      <trkpt lat="44.12197" lon="5.9715">
        <ele>521.59997558594</ele>
        <time>2022-01-05T10:14:31.113Z</time>
      </trkpt>
      <trkpt lat="44.12192" lon="5.97153">
        <ele>521.59997558594</ele>
        <time>2022-01-05T10:14:36.889Z</time>
      </trkpt>
      <trkpt lat="44.12184" lon="5.97156">
        <ele>521.20001220703</ele>
        <time>2022-01-05T10:14:42.668Z</time>
      </trkpt>
      <trkpt lat="44.12179" lon="5.97161">
        <ele>521</ele>
        <time>2022-01-05T10:14:48.449Z</time>
      </trkpt>
      <trkpt lat="44.12169" lon="5.97184">
        <ele>520.79998779297</ele>
        <time>2022-01-05T10:14:54.237Z</time>
      </trkpt>
      <trkpt lat="44.12155" lon="5.97199">
        <ele>520.79998779297</ele>
        <time>2022-01-05T10:15:00.031Z</time>
      </trkpt>
      <trkpt lat="44.12148" lon="5.97215">
        <ele>520.79998779297</ele>
        <time>2022-01-05T10:15:05.830Z</time>
      </trkpt>
      <trkpt lat="44.12131" lon="5.97224">
        <ele>520</ele>
        <time>2022-01-05T10:15:11.635Z</time>
      </trkpt>
      <trkpt lat="44.12115" lon="5.97245">
        <ele>520</ele>
        <time>2022-01-05T10:15:17.448Z</time>
      </trkpt>
      <trkpt lat="44.12108" lon="5.97273">
        <ele>520</ele>
        <time>2022-01-05T10:15:23.268Z</time>
      </trkpt>
      <trkpt lat="44.12109" lon="5.9729">
        <ele>520</ele>
        <time>2022-01-05T10:15:29.092Z</time>
      </trkpt>
      <trkpt lat="44.12114" lon="5.97306">
        <ele>525.20001220703</ele>
        <time>2022-01-05T10:15:34.921Z</time>
      </trkpt>
      <trkpt lat="44.12115" lon="5.97323">
        <ele>525.20001220703</ele>
        <time>2022-01-05T10:15:40.754Z</time>
      </trkpt>
      <trkpt lat="44.12103" lon="5.97344">
        <ele>522.79998779297</ele>
        <time>2022-01-05T10:15:46.594Z</time>
      </trkpt>
      <trkpt lat="44.12095" lon="5.97348">
        <ele>522.40002441406</ele>
        <time>2022-01-05T10:15:52.437Z</time>
      </trkpt>
      <trkpt lat="44.1209" lon="5.97359">
        <ele>521.79998779297</ele>
        <time>2022-01-05T10:15:58.283Z</time>
      </trkpt>
      <trkpt lat="44.1208" lon="5.9737">
        <ele>521.79998779297</ele>
        <time>2022-01-05T10:16:04.133Z</time>
      </trkpt>
      <trkpt lat="44.12055" lon="5.97391">
        <ele>515</ele>
        <time>2022-01-05T10:16:09.994Z</time>
      </trkpt>
      <trkpt lat="44.1205" lon="5.97397">
        <ele>515</ele>
        <time>2022-01-05T10:16:15.857Z</time>
      </trkpt>
      <trkpt lat="44.12049" lon="5.97402">
        <ele>513.59997558594</ele>
        <time>2022-01-05T10:16:21.721Z</time>
      </trkpt>
      <trkpt lat="44.1204" lon="5.97413">
        <ele>513.59997558594</ele>
        <time>2022-01-05T10:16:27.589Z</time>
      </trkpt>
      <trkpt lat="44.12032" lon="5.97417">
        <ele>513.59997558594</ele>
        <time>2022-01-05T10:16:33.460Z</time>
      </trkpt>
      <trkpt lat="44.12025" lon="5.97422">
        <ele>513.59997558594</ele>
        <time>2022-01-05T10:16:39.334Z</time>
      </trkpt>
      <trkpt lat="44.12013" lon="5.97448">
        <ele>507.39999389648</ele>
        <time>2022-01-05T10:16:45.216Z</time>
      </trkpt>
      <trkpt lat="44.12011" lon="5.97454">
        <ele>507.39999389648</ele>
        <time>2022-01-05T10:16:51.099Z</time>
      </trkpt>
      <trkpt lat="44.12011" lon="5.97475">
        <ele>507.39999389648</ele>
        <time>2022-01-05T10:16:56.988Z</time>
      </trkpt>
      <trkpt lat="44.11998" lon="5.97505">
        <ele>504.39999389648</ele>
        <time>2022-01-05T10:17:02.885Z</time>
      </trkpt>
      <trkpt lat="44.1198" lon="5.97561">
        <ele>504.39999389648</ele>
        <time>2022-01-05T10:17:08.798Z</time>
      </trkpt>
      <trkpt lat="44.11959" lon="5.97584">
        <ele>500.39999389648</ele>
        <time>2022-01-05T10:17:14.720Z</time>
      </trkpt>
      <trkpt lat="44.11959" lon="5.97594">
        <ele>500.39999389648</ele>
        <time>2022-01-05T10:17:20.644Z</time>
      </trkpt>
      <trkpt lat="44.11961" lon="5.97605">
        <ele>498</ele>
        <time>2022-01-05T10:17:26.571Z</time>
      </trkpt>
      <trkpt lat="44.11957" lon="5.97622">
        <ele>498</ele>
        <time>2022-01-05T10:17:32.503Z</time>
      </trkpt>
      <trkpt lat="44.1196" lon="5.97632">
        <ele>498</ele>
        <time>2022-01-05T10:17:38.437Z</time>
      </trkpt>
      <trkpt lat="44.1196" lon="5.97638">
        <ele>492.39999389648</ele>
        <time>2022-01-05T10:17:44.373Z</time>
      </trkpt>
      <trkpt lat="44.1197" lon="5.97657">
        <ele>492.39999389648</ele>
        <time>2022-01-05T10:17:50.315Z</time>
      </trkpt>
      <trkpt lat="44.11977" lon="5.97663">
        <ele>492.39999389648</ele>
        <time>2022-01-05T10:17:56.260Z</time>
      </trkpt>
      <trkpt lat="44.11976" lon="5.97672">
        <ele>495.79998779297</ele>
        <time>2022-01-05T10:18:02.207Z</time>
      </trkpt>
      <trkpt lat="44.11982" lon="5.97687">
        <ele>496.39999389648</ele>
        <time>2022-01-05T10:18:08.158Z</time>
      </trkpt>
      <trkpt lat="44.12001" lon="5.97709">
        <ele>494.79998779297</ele>
        <time>2022-01-05T10:18:14.118Z</time>
      </trkpt>
      <trkpt lat="44.12001" lon="5.97718">
        <ele>494</ele>
        <time>2022-01-05T10:18:20.080Z</time>
      </trkpt>
      <trkpt lat="44.11995" lon="5.97731">
        <ele>491</ele>
        <time>2022-01-05T10:18:26.046Z</time>
      </trkpt>
      <trkpt lat="44.12002" lon="5.97746">
        <ele>491</ele>
        <time>2022-01-05T10:18:32.017Z</time>
      </trkpt>
      <trkpt lat="44.11999" lon="5.97756">
        <ele>487.20001220703</ele>
        <time>2022-01-05T10:18:37.990Z</time>
      </trkpt>
      <trkpt lat="44.11989" lon="5.97774">
        <ele>487.20001220703</ele>
        <time>2022-01-05T10:18:43.969Z</time>
      </trkpt>
      <trkpt lat="44.11979" lon="5.97829">
        <ele>491.20001220703</ele>
        <time>2022-01-05T10:18:49.962Z</time>
      </trkpt>
      <trkpt lat="44.11973" lon="5.97845">
        <ele>491.20001220703</ele>
        <time>2022-01-05T10:18:55.959Z</time>
      </trkpt>
      <trkpt lat="44.11962" lon="5.97851">
        <ele>491.20001220703</ele>
        <time>2022-01-05T10:19:01.960Z</time>
      </trkpt>
      <trkpt lat="44.11953" lon="5.97859">
        <ele>491.20001220703</ele>
        <time>2022-01-05T10:19:07.965Z</time>
      </trkpt>
      <trkpt lat="44.11953" lon="5.97884">
        <ele>491.20001220703</ele>
        <time>2022-01-05T10:19:13.977Z</time>
      </trkpt>
      <trkpt lat="44.1194" lon="5.97893">
        <ele>499.39999389648</ele>
        <time>2022-01-05T10:19:19.993Z</time>
      </trkpt>
      <trkpt lat="44.11936" lon="5.97892">
        <ele>499.39999389648</ele>
        <time>2022-01-05T10:19:26.011Z</time>
      </trkpt>
      <trkpt lat="44.1193" lon="5.97893">
        <ele>501.79998779297</ele>
        <time>2022-01-05T10:19:32.031Z</time>
      </trkpt>
      <trkpt lat="44.11924" lon="5.97898">
        <ele>503</ele>
        <time>2022-01-05T10:19:38.053Z</time>
      </trkpt>
      <trkpt lat="44.11921" lon="5.97891">
        <ele>505.39999389648</ele>
        <time>2022-01-05T10:19:44.078Z</time>
      </trkpt>
      <trkpt lat="44.11914" lon="5.97885">
        <ele>507.79998779297</ele>
        <time>2022-01-05T10:19:50.106Z</time>
      </trkpt>
      <trkpt lat="44.11905" lon="5.97891">
        <ele>510.20001220703</ele>
        <time>2022-01-05T10:19:56.137Z</time>
      </trkpt>
      <trkpt lat="44.1189" lon="5.97879">
        <ele>515</ele>
        <time>2022-01-05T10:20:02.174Z</time>
      </trkpt>
      <trkpt lat="44.11876" lon="5.97854">
        <ele>520</ele>
        <time>2022-01-05T10:20:08.219Z</time>
      </trkpt>
      <trkpt lat="44.11873" lon="5.97855">
        <ele>520</ele>
        <time>2022-01-05T10:20:14.265Z</time>
      </trkpt>
      <trkpt lat="44.11869" lon="5.97864">
        <ele>522.79998779297</ele>
        <time>2022-01-05T10:20:20.314Z</time>
      </trkpt>
      <trkpt lat="44.11864" lon="5.97868">
        <ele>522.79998779297</ele>
        <time>2022-01-05T10:20:26.365Z</time>
      </trkpt>
      <trkpt lat="44.1185" lon="5.97869">
        <ele>522.79998779297</ele>
        <time>2022-01-05T10:20:32.421Z</time>
      </trkpt>
      <trkpt lat="44.11838" lon="5.97875">
        <ele>522.79998779297</ele>
        <time>2022-01-05T10:20:38.481Z</time>
      </trkpt>
      <trkpt lat="44.11833" lon="5.97881">
        <ele>522.79998779297</ele>
        <time>2022-01-05T10:20:44.543Z</time>
      </trkpt>
      <trkpt lat="44.11832" lon="5.97917">
        <ele>527</ele>
        <time>2022-01-05T10:20:50.614Z</time>
      </trkpt>
      <trkpt lat="44.1183" lon="5.97931">
        <ele>524.20001220703</ele>
        <time>2022-01-05T10:20:56.689Z</time>
      </trkpt>
      <trkpt lat="44.11833" lon="5.97935">
        <ele>522.59997558594</ele>
        <time>2022-01-05T10:21:02.765Z</time>
      </trkpt>
      <trkpt lat="44.11834" lon="5.97948">
        <ele>522.59997558594</ele>
        <time>2022-01-05T10:21:08.845Z</time>
      </trkpt>
      <trkpt lat="44.11837" lon="5.9795">
        <ele>522.59997558594</ele>
        <time>2022-01-05T10:21:14.926Z</time>
      </trkpt>
      <trkpt lat="44.11841" lon="5.97944">
        <ele>523</ele>
        <time>2022-01-05T10:21:21.009Z</time>
      </trkpt>
      <trkpt lat="44.11843" lon="5.97944">
        <ele>523</ele>
        <time>2022-01-05T10:21:27.092Z</time>
      </trkpt>
      <trkpt lat="44.11848" lon="5.97952">
        <ele>521.59997558594</ele>
        <time>2022-01-05T10:21:33.178Z</time>
      </trkpt>
      <trkpt lat="44.11853" lon="5.97968">
        <ele>518.79998779297</ele>
        <time>2022-01-05T10:21:39.268Z</time>
      </trkpt>
      <trkpt lat="44.11858" lon="5.97976">
        <ele>518.79998779297</ele>
        <time>2022-01-05T10:21:45.361Z</time>
      </trkpt>
      <trkpt lat="44.1186" lon="5.97988">
        <ele>518.79998779297</ele>
        <time>2022-01-05T10:21:51.457Z</time>
      </trkpt>
      <trkpt lat="44.11863" lon="5.97993">
        <ele>520.20001220703</ele>
        <time>2022-01-05T10:21:57.555Z</time>
      </trkpt>
      <trkpt lat="44.11868" lon="5.97995">
        <ele>520.20001220703</ele>
        <time>2022-01-05T10:22:03.655Z</time>
      </trkpt>
      <trkpt lat="44.1188" lon="5.98007">
        <ele>517</ele>
        <time>2022-01-05T10:22:09.760Z</time>
      </trkpt>
      <trkpt lat="44.11892" lon="5.98015">
        <ele>517</ele>
        <time>2022-01-05T10:22:15.869Z</time>
      </trkpt>
      <trkpt lat="44.11899" lon="5.98029">
        <ele>514.79998779297</ele>
        <time>2022-01-05T10:22:21.983Z</time>
      </trkpt>
      <trkpt lat="44.11895" lon="5.9804">
        <ele>514.79998779297</ele>
        <time>2022-01-05T10:22:28.100Z</time>
      </trkpt>
      <trkpt lat="44.11883" lon="5.98053">
        <ele>515.79998779297</ele>
        <time>2022-01-05T10:22:34.222Z</time>
      </trkpt>
      <trkpt lat="44.11881" lon="5.98063">
        <ele>515.79998779297</ele>
        <time>2022-01-05T10:22:40.347Z</time>
      </trkpt>
      <trkpt lat="44.11882" lon="5.98092">
        <ele>516</ele>
        <time>2022-01-05T10:22:46.479Z</time>
      </trkpt>
      <trkpt lat="44.11874" lon="5.98133">
        <ele>516.20001220703</ele>
        <time>2022-01-05T10:22:52.622Z</time>
      </trkpt>
      <trkpt lat="44.1187" lon="5.98144">
        <ele>516.79998779297</ele>
        <time>2022-01-05T10:22:58.768Z</time>
      </trkpt>
      <trkpt lat="44.11864" lon="5.98147">
        <ele>516.79998779297</ele>
        <time>2022-01-05T10:23:04.916Z</time>
      </trkpt>
      <trkpt lat="44.11852" lon="5.98144">
        <ele>516.79998779297</ele>
        <time>2022-01-05T10:23:11.068Z</time>
      </trkpt>
      <trkpt lat="44.11842" lon="5.98146">
        <ele>516.79998779297</ele>
        <time>2022-01-05T10:23:17.224Z</time>
      </trkpt>
      <trkpt lat="44.11838" lon="5.98146">
        <ele>522</ele>
        <time>2022-01-05T10:23:23.381Z</time>
      </trkpt>
      <trkpt lat="44.11817" lon="5.98154">
        <ele>523.79998779297</ele>
        <time>2022-01-05T10:23:29.546Z</time>
      </trkpt>
      <trkpt lat="44.11805" lon="5.98162">
        <ele>525.79998779297</ele>
        <time>2022-01-05T10:23:35.715Z</time>
      </trkpt>
      <trkpt lat="44.11792" lon="5.98179">
        <ele>525.79998779297</ele>
        <time>2022-01-05T10:23:41.891Z</time>
      </trkpt>
      <trkpt lat="44.11777" lon="5.98193">
        <ele>525.79998779297</ele>
        <time>2022-01-05T10:23:48.073Z</time>
      </trkpt>
      <trkpt lat="44.11752" lon="5.98205">
        <ele>532.20001220703</ele>
        <time>2022-01-05T10:23:54.264Z</time>
      </trkpt>
      <trkpt lat="44.11737" lon="5.98218">
        <ele>532.20001220703</ele>
        <time>2022-01-05T10:24:00.461Z</time>
      </trkpt>
      <trkpt lat="44.11724" lon="5.98226">
        <ele>537.59997558594</ele>
        <time>2022-01-05T10:24:06.663Z</time>
      </trkpt>
      <trkpt lat="44.11712" lon="5.98244">
        <ele>537.59997558594</ele>
        <time>2022-01-05T10:24:12.871Z</time>
      </trkpt>
      <trkpt lat="44.11712" lon="5.98247">
        <ele>537.59997558594</ele>
        <time>2022-01-05T10:24:19.080Z</time>
      </trkpt>
      <trkpt lat="44.117" lon="5.98249">
        <ele>537.59997558594</ele>
        <time>2022-01-05T10:24:25.293Z</time>
      </trkpt>
      <trkpt lat="44.11693" lon="5.98245">
        <ele>537.59997558594</ele>
        <time>2022-01-05T10:24:31.509Z</time>
      </trkpt>
      <trkpt lat="44.11686" lon="5.98244">
        <ele>537.59997558594</ele>
        <time>2022-01-05T10:24:37.727Z</time>
      </trkpt>
      <trkpt lat="44.1166" lon="5.98262">
        <ele>547.59997558594</ele>
        <time>2022-01-05T10:24:43.955Z</time>
      </trkpt>
      <trkpt lat="44.11655" lon="5.98263">
        <ele>547.59997558594</ele>
        <time>2022-01-05T10:24:50.185Z</time>
      </trkpt>
      <trkpt lat="44.11647" lon="5.98268">
        <ele>548</ele>
        <time>2022-01-05T10:24:56.418Z</time>
      </trkpt>
      <trkpt lat="44.1161" lon="5.98305">
        <ele>550</ele>
        <time>2022-01-05T10:25:02.667Z</time>
      </trkpt>
      <trkpt lat="44.11569" lon="5.98328">
        <ele>553.20001220703</ele>
        <time>2022-01-05T10:25:08.931Z</time>
      </trkpt>
      <trkpt lat="44.11553" lon="5.98322">
        <ele>553.20001220703</ele>
        <time>2022-01-05T10:25:15.201Z</time>
      </trkpt>
      <trkpt lat="44.11548" lon="5.98322">
        <ele>557.40002441406</ele>
        <time>2022-01-05T10:25:21.473Z</time>
      </trkpt>
      <trkpt lat="44.11542" lon="5.98318">
        <ele>558.79998779297</ele>
        <time>2022-01-05T10:25:27.747Z</time>
      </trkpt>
      <trkpt lat="44.11519" lon="5.98316">
        <ele>562.79998779297</ele>
        <time>2022-01-05T10:25:34.029Z</time>
      </trkpt>
      <trkpt lat="44.11504" lon="5.98311">
        <ele>566.59997558594</ele>
        <time>2022-01-05T10:25:40.317Z</time>
      </trkpt>
      <trkpt lat="44.11497" lon="5.98294">
        <ele>568.79998779297</ele>
        <time>2022-01-05T10:25:46.609Z</time>
      </trkpt>
      <trkpt lat="44.11495" lon="5.98266">
        <ele>571.40002441406</ele>
        <time>2022-01-05T10:25:52.908Z</time>
      </trkpt>
      <trkpt lat="44.11493" lon="5.98257">
        <ele>571.40002441406</ele>
        <time>2022-01-05T10:25:59.210Z</time>
      </trkpt>
      <trkpt lat="44.11488" lon="5.98245">
        <ele>573.20001220703</ele>
        <time>2022-01-05T10:26:05.515Z</time>
      </trkpt>
      <trkpt lat="44.11472" lon="5.98219">
        <ele>573.20001220703</ele>
        <time>2022-01-05T10:26:11.829Z</time>
      </trkpt>
      <trkpt lat="44.11472" lon="5.98204">
        <ele>573.20001220703</ele>
        <time>2022-01-05T10:26:18.147Z</time>
      </trkpt>
      <trkpt lat="44.11464" lon="5.98184">
        <ele>573.20001220703</ele>
        <time>2022-01-05T10:26:24.471Z</time>
      </trkpt>
      <trkpt lat="44.11464" lon="5.98155">
        <ele>573.20001220703</ele>
        <time>2022-01-05T10:26:30.802Z</time>
      </trkpt>
      <trkpt lat="44.11457" lon="5.98123">
        <ele>573.20001220703</ele>
        <time>2022-01-05T10:26:37.141Z</time>
      </trkpt>
      <trkpt lat="44.11455" lon="5.98118">
        <ele>573.20001220703</ele>
        <time>2022-01-05T10:26:43.482Z</time>
      </trkpt>
      <trkpt lat="44.1145" lon="5.98117">
        <ele>590.40002441406</ele>
        <time>2022-01-05T10:26:49.824Z</time>
      </trkpt>
      <trkpt lat="44.11431" lon="5.98137">
        <ele>590.40002441406</ele>
        <time>2022-01-05T10:26:56.175Z</time>
      </trkpt>
      <trkpt lat="44.11407" lon="5.98156">
        <ele>592.20001220703</ele>
        <time>2022-01-05T10:27:02.535Z</time>
      </trkpt>
      <trkpt lat="44.11394" lon="5.98164">
        <ele>592.79998779297</ele>
        <time>2022-01-05T10:27:08.900Z</time>
      </trkpt>
      <trkpt lat="44.11391" lon="5.98165">
        <ele>592.79998779297</ele>
        <time>2022-01-05T10:27:15.266Z</time>
      </trkpt>
      <trkpt lat="44.11383" lon="5.98162">
        <ele>592.79998779297</ele>
        <time>2022-01-05T10:27:21.635Z</time>
      </trkpt>
      <trkpt lat="44.11356" lon="5.98157">
        <ele>597</ele>
        <time>2022-01-05T10:27:28.014Z</time>
      </trkpt>
      <trkpt lat="44.11337" lon="5.98144">
        <ele>597</ele>
        <time>2022-01-05T10:27:34.400Z</time>
      </trkpt>
      <trkpt lat="44.11312" lon="5.98153">
        <ele>597</ele>
        <time>2022-01-05T10:27:40.795Z</time>
      </trkpt>
      <trkpt lat="44.11294" lon="5.98156">
        <ele>597</ele>
        <time>2022-01-05T10:27:47.196Z</time>
      </trkpt>
      <trkpt lat="44.11273" lon="5.98174">
        <ele>604.59997558594</ele>
        <time>2022-01-05T10:27:53.606Z</time>
      </trkpt>
      <trkpt lat="44.11263" lon="5.98194">
        <ele>604.59997558594</ele>
        <time>2022-01-05T10:28:00.022Z</time>
      </trkpt>
      <trkpt lat="44.11251" lon="5.98185">
        <ele>604.79998779297</ele>
        <time>2022-01-05T10:28:06.443Z</time>
      </trkpt>
      <trkpt lat="44.11248" lon="5.98187">
        <ele>604.79998779297</ele>
        <time>2022-01-05T10:28:12.865Z</time>
      </trkpt>
      <trkpt lat="44.11244" lon="5.98213">
        <ele>604.79998779297</ele>
        <time>2022-01-05T10:28:19.293Z</time>
      </trkpt>
      <trkpt lat="44.1125" lon="5.98236">
        <ele>604</ele>
        <time>2022-01-05T10:28:25.728Z</time>
      </trkpt>
      <trkpt lat="44.11248" lon="5.98307">
        <ele>604</ele>
        <time>2022-01-05T10:28:32.180Z</time>
      </trkpt>
      <trkpt lat="44.11251" lon="5.98316">
        <ele>604</ele>
        <time>2022-01-05T10:28:38.635Z</time>
      </trkpt>
      <trkpt lat="44.11249" lon="5.98344">
        <ele>604</ele>
        <time>2022-01-05T10:28:45.097Z</time>
      </trkpt>
      <trkpt lat="44.1125" lon="5.98358">
        <ele>604</ele>
        <time>2022-01-05T10:28:51.562Z</time>
      </trkpt>
      <trkpt lat="44.11248" lon="5.9837">
        <ele>598.20001220703</ele>
        <time>2022-01-05T10:28:58.031Z</time>
      </trkpt>
      <trkpt lat="44.1124" lon="5.98377">
        <ele>598.20001220703</ele>
        <time>2022-01-05T10:29:04.503Z</time>
      </trkpt>
      <trkpt lat="44.11237" lon="5.98379">
        <ele>596.79998779297</ele>
        <time>2022-01-05T10:29:10.976Z</time>
      </trkpt>
      <trkpt lat="44.11225" lon="5.98379">
        <ele>596.79998779297</ele>
        <time>2022-01-05T10:29:17.453Z</time>
      </trkpt>
      <trkpt lat="44.11209" lon="5.98372">
        <ele>596.79998779297</ele>
        <time>2022-01-05T10:29:23.936Z</time>
      </trkpt>
      <trkpt lat="44.11202" lon="5.98372">
        <ele>599.40002441406</ele>
        <time>2022-01-05T10:29:30.422Z</time>
      </trkpt>
      <trkpt lat="44.11194" lon="5.98372">
        <ele>599.40002441406</ele>
        <time>2022-01-05T10:29:36.910Z</time>
      </trkpt>
      <trkpt lat="44.1118" lon="5.98375">
        <ele>602.20001220703</ele>
        <time>2022-01-05T10:29:43.403Z</time>
      </trkpt>
      <trkpt lat="44.11166" lon="5.98365">
        <ele>604.40002441406</ele>
        <time>2022-01-05T10:29:49.901Z</time>
      </trkpt>
      <trkpt lat="44.11146" lon="5.98359">
        <ele>604.40002441406</ele>
        <time>2022-01-05T10:29:56.407Z</time>
      </trkpt>
      <trkpt lat="44.11135" lon="5.98358">
        <ele>604.40002441406</ele>
        <time>2022-01-05T10:30:02.917Z</time>
      </trkpt>
      <trkpt lat="44.11113" lon="5.9836">
        <ele>604.40002441406</ele>
        <time>2022-01-05T10:30:09.434Z</time>
      </trkpt>
      <trkpt lat="44.11101" lon="5.98358">
        <ele>613.40002441406</ele>
        <time>2022-01-05T10:30:15.955Z</time>
      </trkpt>
      <trkpt lat="44.1109" lon="5.98353">
        <ele>615.20001220703</ele>
        <time>2022-01-05T10:30:22.480Z</time>
      </trkpt>
      <trkpt lat="44.1108" lon="5.98352">
        <ele>615.20001220703</ele>
        <time>2022-01-05T10:30:29.009Z</time>
      </trkpt>
      <trkpt lat="44.1107" lon="5.98347">
        <ele>617.79998779297</ele>
        <time>2022-01-05T10:30:35.541Z</time>
      </trkpt>
      <trkpt lat="44.11057" lon="5.98322">
        <ele>617.79998779297</ele>
        <time>2022-01-05T10:30:42.081Z</time>
      </trkpt>
      <trkpt lat="44.1105" lon="5.98301">
        <ele>617.79998779297</ele>
        <time>2022-01-05T10:30:48.627Z</time>
      </trkpt>
      <trkpt lat="44.11046" lon="5.98272">
        <ele>617.79998779297</ele>
        <time>2022-01-05T10:30:55.180Z</time>
      </trkpt>
      <trkpt lat="44.11055" lon="5.98223">
        <ele>617.79998779297</ele>
        <time>2022-01-05T10:31:01.746Z</time>
      </trkpt>
      <trkpt lat="44.11061" lon="5.98203">
        <ele>625.79998779297</ele>
        <time>2022-01-05T10:31:08.317Z</time>
      </trkpt>
      <trkpt lat="44.11064" lon="5.98174">
        <ele>625.79998779297</ele>
        <time>2022-01-05T10:31:14.896Z</time>
      </trkpt>
      <trkpt lat="44.11062" lon="5.98164">
        <ele>628.79998779297</ele>
        <time>2022-01-05T10:31:21.477Z</time>
      </trkpt>
      <trkpt lat="44.11045" lon="5.98141">
        <ele>632.59997558594</ele>
        <time>2022-01-05T10:31:28.066Z</time>
      </trkpt>
      <trkpt lat="44.1103" lon="5.98134">
        <ele>635.79998779297</ele>
        <time>2022-01-05T10:31:34.661Z</time>
      </trkpt>
      <trkpt lat="44.10992" lon="5.98123">
        <ele>635.79998779297</ele>
        <time>2022-01-05T10:31:41.270Z</time>
      </trkpt>
      <trkpt lat="44.10962" lon="5.98109">
        <ele>635.79998779297</ele>
        <time>2022-01-05T10:31:47.889Z</time>
      </trkpt>
      <trkpt lat="44.10958" lon="5.98105">
        <ele>637.59997558594</ele>
        <time>2022-01-05T10:31:54.510Z</time>
      </trkpt>
      <trkpt lat="44.10939" lon="5.98087">
        <ele>637.59997558594</ele>
        <time>2022-01-05T10:32:01.139Z</time>
      </trkpt>
      <trkpt lat="44.10932" lon="5.98063">
        <ele>637.59997558594</ele>
        <time>2022-01-05T10:32:07.775Z</time>
      </trkpt>
      <trkpt lat="44.10929" lon="5.98057">
        <ele>631</ele>
        <time>2022-01-05T10:32:14.413Z</time>
      </trkpt>
      <trkpt lat="44.10919" lon="5.98046">
        <ele>630.40002441406</ele>
        <time>2022-01-05T10:32:21.055Z</time>
      </trkpt>
      <trkpt lat="44.10902" lon="5.98036">
        <ele>630.40002441406</ele>
        <time>2022-01-05T10:32:27.703Z</time>
      </trkpt>
      <trkpt lat="44.10897" lon="5.98031">
        <ele>633</ele>
        <time>2022-01-05T10:32:34.353Z</time>
      </trkpt>
      <trkpt lat="44.10885" lon="5.98002">
        <ele>633</ele>
        <time>2022-01-05T10:32:41.012Z</time>
      </trkpt>
      <trkpt lat="44.10883" lon="5.98001">
        <ele>637.40002441406</ele>
        <time>2022-01-05T10:32:47.672Z</time>
      </trkpt>
      <trkpt lat="44.10865" lon="5.98002">
        <ele>637.40002441406</ele>
        <time>2022-01-05T10:32:54.338Z</time>
      </trkpt>
      <trkpt lat="44.1084" lon="5.97999">
        <ele>637.40002441406</ele>
        <time>2022-01-05T10:33:01.013Z</time>
      </trkpt>
      <trkpt lat="44.10826" lon="5.98012">
        <ele>637.40002441406</ele>
        <time>2022-01-05T10:33:07.693Z</time>
      </trkpt>
      <trkpt lat="44.10808" lon="5.98016">
        <ele>639.40002441406</ele>
        <time>2022-01-05T10:33:14.380Z</time>
      </trkpt>
      <trkpt lat="44.10793" lon="5.98014">
        <ele>639.40002441406</ele>
        <time>2022-01-05T10:33:21.072Z</time>
      </trkpt>
      <trkpt lat="44.1078" lon="5.98018">
        <ele>639.40002441406</ele>
        <time>2022-01-05T10:33:27.768Z</time>
      </trkpt>
      <trkpt lat="44.10768" lon="5.98014">
        <ele>639</ele>
        <time>2022-01-05T10:33:34.469Z</time>
      </trkpt>
      <trkpt lat="44.10765" lon="5.98016">
        <ele>639</ele>
        <time>2022-01-05T10:33:41.171Z</time>
      </trkpt>
      <trkpt lat="44.10764" lon="5.98019">
        <ele>638</ele>
        <time>2022-01-05T10:33:47.874Z</time>
      </trkpt>
      <trkpt lat="44.10763" lon="5.98038">
        <ele>636.20001220703</ele>
        <time>2022-01-05T10:33:54.582Z</time>
      </trkpt>
      <trkpt lat="44.10754" lon="5.98062">
        <ele>637</ele>
        <time>2022-01-05T10:34:01.296Z</time>
      </trkpt>
      <trkpt lat="44.10751" lon="5.98076">
        <ele>637</ele>
        <time>2022-01-05T10:34:08.014Z</time>
      </trkpt>
      <trkpt lat="44.1073" lon="5.98132">
        <ele>637</ele>
        <time>2022-01-05T10:34:14.748Z</time>
      </trkpt>
      <trkpt lat="44.10725" lon="5.9814">
        <ele>638.40002441406</ele>
        <time>2022-01-05T10:34:21.484Z</time>
      </trkpt>
      <trkpt lat="44.1072" lon="5.9814">
        <ele>638.40002441406</ele>
        <time>2022-01-05T10:34:28.222Z</time>
      </trkpt>
      <trkpt lat="44.10703" lon="5.98132">
        <ele>641</ele>
        <time>2022-01-05T10:34:34.966Z</time>
      </trkpt>
      <trkpt lat="44.10679" lon="5.98142">
        <ele>641</ele>
        <time>2022-01-05T10:34:41.719Z</time>
      </trkpt>
      <trkpt lat="44.10654" lon="5.98137">
        <ele>641</ele>
        <time>2022-01-05T10:34:48.481Z</time>
      </trkpt>
      <trkpt lat="44.10652" lon="5.98138">
        <ele>635.79998779297</ele>
        <time>2022-01-05T10:34:55.244Z</time>
      </trkpt>
      <trkpt lat="44.10636" lon="5.98168">
        <ele>629.40002441406</ele>
        <time>2022-01-05T10:35:02.016Z</time>
      </trkpt>
      <trkpt lat="44.10628" lon="5.98179">
        <ele>626.20001220703</ele>
        <time>2022-01-05T10:35:08.792Z</time>
      </trkpt>
      <trkpt lat="44.10624" lon="5.9818">
        <ele>624.59997558594</ele>
        <time>2022-01-05T10:35:15.569Z</time>
      </trkpt>
      <trkpt lat="44.10619" lon="5.98172">
        <ele>624.59997558594</ele>
        <time>2022-01-05T10:35:22.349Z</time>
      </trkpt>
      <trkpt lat="44.10604" lon="5.98183">
        <ele>622.40002441406</ele>
        <time>2022-01-05T10:35:29.135Z</time>
      </trkpt>
      <trkpt lat="44.10585" lon="5.98186">
        <ele>624.20001220703</ele>
        <time>2022-01-05T10:35:35.927Z</time>
      </trkpt>
      <trkpt lat="44.10578" lon="5.98187">
        <ele>624.20001220703</ele>
        <time>2022-01-05T10:35:42.722Z</time>
      </trkpt>
      <trkpt lat="44.10571" lon="5.98184">
        <ele>624.20001220703</ele>
        <time>2022-01-05T10:35:49.519Z</time>
      </trkpt>
      <trkpt lat="44.10559" lon="5.98185">
        <ele>625.20001220703</ele>
        <time>2022-01-05T10:35:56.320Z</time>
      </trkpt>
      <trkpt lat="44.10549" lon="5.9818">
        <ele>625.20001220703</ele>
        <time>2022-01-05T10:36:03.125Z</time>
      </trkpt>
      <trkpt lat="44.1054" lon="5.98171">
        <ele>625.20001220703</ele>
        <time>2022-01-05T10:36:09.934Z</time>
      </trkpt>
      <trkpt lat="44.10534" lon="5.98169">
        <ele>626.20001220703</ele>
        <time>2022-01-05T10:36:16.745Z</time>
      </trkpt>
      <trkpt lat="44.10531" lon="5.98188">
        <ele>626.20001220703</ele>
        <time>2022-01-05T10:36:23.561Z</time>
      </trkpt>
      <trkpt lat="44.10525" lon="5.98206">
        <ele>626.20001220703</ele>
        <time>2022-01-05T10:36:30.382Z</time>
      </trkpt>
      <trkpt lat="44.10515" lon="5.98214">
        <ele>626.59997558594</ele>
        <time>2022-01-05T10:36:37.207Z</time>
      </trkpt>
      <trkpt lat="44.10498" lon="5.9821">
        <ele>627.59997558594</ele>
        <time>2022-01-05T10:36:44.038Z</time>
      </trkpt>
      <trkpt lat="44.10483" lon="5.98228">
        <ele>627.59997558594</ele>
        <time>2022-01-05T10:36:50.876Z</time>
      </trkpt>
      <trkpt lat="44.10473" lon="5.98225">
        <ele>627.59997558594</ele>
        <time>2022-01-05T10:36:57.718Z</time>
      </trkpt>
      <trkpt lat="44.10465" lon="5.98227">
        <ele>627.59997558594</ele>
        <time>2022-01-05T10:37:04.563Z</time>
      </trkpt>
      <trkpt lat="44.1046" lon="5.98229">
        <ele>625.40002441406</ele>
        <time>2022-01-05T10:37:11.409Z</time>
      </trkpt>
      <trkpt lat="44.10458" lon="5.98236">
        <ele>625</ele>
        <time>2022-01-05T10:37:18.257Z</time>
      </trkpt>
      <trkpt lat="44.10465" lon="5.98254">
        <ele>625</ele>
        <time>2022-01-05T10:37:25.110Z</time>
      </trkpt>
      <trkpt lat="44.10465" lon="5.98268">
        <ele>620</ele>
        <time>2022-01-05T10:37:31.967Z</time>
      </trkpt>
      <trkpt lat="44.10464" lon="5.98271">
        <ele>618.20001220703</ele>
        <time>2022-01-05T10:37:38.825Z</time>
      </trkpt>
      <trkpt lat="44.10442" lon="5.98276">
        <ele>618.20001220703</ele>
        <time>2022-01-05T10:37:45.690Z</time>
      </trkpt>
      <trkpt lat="44.10439" lon="5.98279">
        <ele>617.59997558594</ele>
        <time>2022-01-05T10:37:52.557Z</time>
      </trkpt>
      <trkpt lat="44.1044" lon="5.98291">
        <ele>615.79998779297</ele>
        <time>2022-01-05T10:37:59.426Z</time>
      </trkpt>
      <trkpt lat="44.10437" lon="5.98301">
        <ele>615.79998779297</ele>
        <time>2022-01-05T10:38:06.298Z</time>
      </trkpt>
      <trkpt lat="44.10454" lon="5.98356">
        <ele>618.79998779297</ele>
        <time>2022-01-05T10:38:13.185Z</time>
      </trkpt>
      <trkpt lat="44.10475" lon="5.98373">
        <ele>618.59997558594</ele>
        <time>2022-01-05T10:38:20.081Z</time>
      </trkpt>
      <trkpt lat="44.10481" lon="5.98382">
        <ele>618.59997558594</ele>
        <time>2022-01-05T10:38:26.980Z</time>
      </trkpt>
      <trkpt lat="44.10495" lon="5.98396">
        <ele>616.59997558594</ele>
        <time>2022-01-05T10:38:33.885Z</time>
      </trkpt>
      <trkpt lat="44.10502" lon="5.98418">
        <ele>616.59997558594</ele>
        <time>2022-01-05T10:38:40.796Z</time>
      </trkpt>
      <trkpt lat="44.10513" lon="5.98422">
        <ele>615.20001220703</ele>
        <time>2022-01-05T10:38:47.711Z</time>
      </trkpt>
      <trkpt lat="44.10534" lon="5.9844">
        <ele>615.20001220703</ele>
        <time>2022-01-05T10:38:54.634Z</time>
      </trkpt>
      <trkpt lat="44.10547" lon="5.98474">
        <ele>607.59997558594</ele>
        <time>2022-01-05T10:39:01.567Z</time>
      </trkpt>
      <trkpt lat="44.10557" lon="5.98487">
        <ele>607.59997558594</ele>
        <time>2022-01-05T10:39:08.505Z</time>
      </trkpt>
      <trkpt lat="44.10563" lon="5.985">
        <ele>607.59997558594</ele>
        <time>2022-01-05T10:39:15.447Z</time>
      </trkpt>
      <trkpt lat="44.10557" lon="5.98524">
        <ele>607.59997558594</ele>
        <time>2022-01-05T10:39:22.395Z</time>
      </trkpt>
      <trkpt lat="44.10555" lon="5.98543">
        <ele>607.59997558594</ele>
        <time>2022-01-05T10:39:29.348Z</time>
      </trkpt>
      <trkpt lat="44.10559" lon="5.98566">
        <ele>599.20001220703</ele>
        <time>2022-01-05T10:39:36.306Z</time>
      </trkpt>
      <trkpt lat="44.10557" lon="5.98601">
        <ele>596.79998779297</ele>
        <time>2022-01-05T10:39:43.273Z</time>
      </trkpt>
      <trkpt lat="44.10551" lon="5.98611">
        <ele>596.79998779297</ele>
        <time>2022-01-05T10:39:50.244Z</time>
      </trkpt>
      <trkpt lat="44.10536" lon="5.98629">
        <ele>596.79998779297</ele>
        <time>2022-01-05T10:39:57.221Z</time>
      </trkpt>
      <trkpt lat="44.10523" lon="5.98651">
        <ele>595.59997558594</ele>
        <time>2022-01-05T10:40:04.205Z</time>
      </trkpt>
      <trkpt lat="44.10515" lon="5.98658">
        <ele>595.59997558594</ele>
        <time>2022-01-05T10:40:11.193Z</time>
      </trkpt>
      <trkpt lat="44.105" lon="5.98663">
        <ele>595.59997558594</ele>
        <time>2022-01-05T10:40:18.186Z</time>
      </trkpt>
      <trkpt lat="44.10491" lon="5.98669">
        <ele>597</ele>
        <time>2022-01-05T10:40:25.182Z</time>
      </trkpt>
      <trkpt lat="44.10489" lon="5.98696">
        <ele>597</ele>
        <time>2022-01-05T10:40:32.185Z</time>
      </trkpt>
      <trkpt lat="44.10482" lon="5.98709">
        <ele>597</ele>
        <time>2022-01-05T10:40:39.192Z</time>
      </trkpt>
      <trkpt lat="44.10457" lon="5.98724">
        <ele>597</ele>
        <time>2022-01-05T10:40:46.209Z</time>
      </trkpt>
      <trkpt lat="44.10446" lon="5.98728">
        <ele>597</ele>
        <time>2022-01-05T10:40:53.230Z</time>
      </trkpt>
      <trkpt lat="44.10433" lon="5.98724">
        <ele>598.20001220703</ele>
        <time>2022-01-05T10:41:00.255Z</time>
      </trkpt>
      <trkpt lat="44.10425" lon="5.98726">
        <ele>599</ele>
        <time>2022-01-05T10:41:07.283Z</time>
      </trkpt>
      <trkpt lat="44.1042" lon="5.9873">
        <ele>599</ele>
        <time>2022-01-05T10:41:14.313Z</time>
      </trkpt>
      <trkpt lat="44.10407" lon="5.98743">
        <ele>599.59997558594</ele>
        <time>2022-01-05T10:41:21.349Z</time>
      </trkpt>
      <trkpt lat="44.10401" lon="5.98753">
        <ele>599.59997558594</ele>
        <time>2022-01-05T10:41:28.388Z</time>
      </trkpt>
      <trkpt lat="44.104" lon="5.98757">
        <ele>598.79998779297</ele>
        <time>2022-01-05T10:41:35.428Z</time>
      </trkpt>
      <trkpt lat="44.10396" lon="5.9876">
        <ele>598.79998779297</ele>
        <time>2022-01-05T10:41:42.470Z</time>
      </trkpt>
      <trkpt lat="44.10393" lon="5.98761">
        <ele>601.20001220703</ele>
        <time>2022-01-05T10:41:49.513Z</time>
      </trkpt>
      <trkpt lat="44.10392" lon="5.9876">
        <ele>601.20001220703</ele>
        <time>2022-01-05T10:41:56.556Z</time>
      </trkpt>
      <trkpt lat="44.1039" lon="5.98752">
        <ele>601.20001220703</ele>
        <time>2022-01-05T10:42:03.601Z</time>
      </trkpt>
      <trkpt lat="44.10384" lon="5.98752">
        <ele>603.40002441406</ele>
        <time>2022-01-05T10:42:10.648Z</time>
      </trkpt>
      <trkpt lat="44.1038" lon="5.9875">
        <ele>604.79998779297</ele>
        <time>2022-01-05T10:42:17.697Z</time>
      </trkpt>
      <trkpt lat="44.10376" lon="5.98752">
        <ele>604.79998779297</ele>
        <time>2022-01-05T10:42:24.747Z</time>
      </trkpt>
      <trkpt lat="44.10366" lon="5.98766">
        <ele>604.79998779297</ele>
        <time>2022-01-05T10:42:31.802Z</time>
      </trkpt>
      <trkpt lat="44.10352" lon="5.9878">
        <ele>609.59997558594</ele>
        <time>2022-01-05T10:42:38.863Z</time>
      </trkpt>
      <trkpt lat="44.10345" lon="5.98782">
        <ele>609.59997558594</ele>
        <time>2022-01-05T10:42:45.926Z</time>
      </trkpt>
      <trkpt lat="44.10342" lon="5.98781">
        <ele>610.59997558594</ele>
        <time>2022-01-05T10:42:52.991Z</time>
      </trkpt>
      <trkpt lat="44.10334" lon="5.9877">
        <ele>611.40002441406</ele>
        <time>2022-01-05T10:43:00.059Z</time>
      </trkpt>
      <trkpt lat="44.10332" lon="5.98765">
        <ele>611.40002441406</ele>
        <time>2022-01-05T10:43:07.129Z</time>
      </trkpt>
      <trkpt lat="44.10347" lon="5.98726">
        <ele>611.40002441406</ele>
        <time>2022-01-05T10:43:14.210Z</time>
      </trkpt>
      <trkpt lat="44.10383" lon="5.98696">
        <ele>611.40002441406</ele>
        <time>2022-01-05T10:43:21.305Z</time>
      </trkpt>
      <trkpt lat="44.10392" lon="5.98691">
        <ele>609.79998779297</ele>
        <time>2022-01-05T10:43:28.404Z</time>
      </trkpt>
      <trkpt lat="44.10423" lon="5.98661">
        <ele>610.40002441406</ele>
        <time>2022-01-05T10:43:35.516Z</time>
      </trkpt>
      <trkpt lat="44.10456" lon="5.98637">
        <ele>608.79998779297</ele>
        <time>2022-01-05T10:43:42.641Z</time>
      </trkpt>
      <trkpt lat="44.1048" lon="5.98604">
        <ele>611.20001220703</ele>
        <time>2022-01-05T10:43:49.778Z</time>
      </trkpt>
      <trkpt lat="44.10499" lon="5.98587">
        <ele>611.20001220703</ele>
        <time>2022-01-05T10:43:56.923Z</time>
      </trkpt>
      <trkpt lat="44.10505" lon="5.98585">
        <ele>611.20001220703</ele>
        <time>2022-01-05T10:44:04.070Z</time>
      </trkpt>
      <trkpt lat="44.10511" lon="5.98579">
        <ele>611.20001220703</ele>
        <time>2022-01-05T10:44:11.219Z</time>
      </trkpt>
      <trkpt lat="44.10521" lon="5.98563">
        <ele>611.20001220703</ele>
        <time>2022-01-05T10:44:18.374Z</time>
      </trkpt>
      <trkpt lat="44.10524" lon="5.98533">
        <ele>611.20001220703</ele>
        <time>2022-01-05T10:44:25.536Z</time>
      </trkpt>
      <trkpt lat="44.10519" lon="5.9851">
        <ele>612</ele>
        <time>2022-01-05T10:44:32.704Z</time>
      </trkpt>
      <trkpt lat="44.10514" lon="5.98498">
        <ele>614.40002441406</ele>
        <time>2022-01-05T10:44:39.876Z</time>
      </trkpt>
      <trkpt lat="44.10512" lon="5.98481">
        <ele>615.79998779297</ele>
        <time>2022-01-05T10:44:47.052Z</time>
      </trkpt>
      <trkpt lat="44.10497" lon="5.98446">
        <ele>615.79998779297</ele>
        <time>2022-01-05T10:44:54.238Z</time>
      </trkpt>
      <trkpt lat="44.1049" lon="5.98436">
        <ele>619</ele>
        <time>2022-01-05T10:45:01.428Z</time>
      </trkpt>
      <trkpt lat="44.10482" lon="5.98429">
        <ele>620.59997558594</ele>
        <time>2022-01-05T10:45:08.621Z</time>
      </trkpt>
      <trkpt lat="44.10462" lon="5.98418">
        <ele>620.59997558594</ele>
        <time>2022-01-05T10:45:15.821Z</time>
      </trkpt>
      <trkpt lat="44.10453" lon="5.98399">
        <ele>620.59997558594</ele>
        <time>2022-01-05T10:45:23.027Z</time>
      </trkpt>
      <trkpt lat="44.10444" lon="5.9839">
        <ele>623.79998779297</ele>
        <time>2022-01-05T10:45:30.237Z</time>
      </trkpt>
      <trkpt lat="44.10414" lon="5.98378">
        <ele>623.79998779297</ele>
        <time>2022-01-05T10:45:37.458Z</time>
      </trkpt>
      <trkpt lat="44.10408" lon="5.98377">
        <ele>629.20001220703</ele>
        <time>2022-01-05T10:45:44.681Z</time>
      </trkpt>
      <trkpt lat="44.10385" lon="5.98365">
        <ele>629.20001220703</ele>
        <time>2022-01-05T10:45:51.913Z</time>
      </trkpt>
      <trkpt lat="44.10359" lon="5.98357">
        <ele>629.20001220703</ele>
        <time>2022-01-05T10:45:59.154Z</time>
      </trkpt>
      <trkpt lat="44.1035" lon="5.98352">
        <ele>634.59997558594</ele>
        <time>2022-01-05T10:46:06.398Z</time>
      </trkpt>
      <trkpt lat="44.10339" lon="5.98352">
        <ele>635.79998779297</ele>
        <time>2022-01-05T10:46:13.646Z</time>
      </trkpt>
      <trkpt lat="44.10328" lon="5.9834">
        <ele>635.79998779297</ele>
        <time>2022-01-05T10:46:20.899Z</time>
      </trkpt>
      <trkpt lat="44.1032" lon="5.98317">
        <ele>636.79998779297</ele>
        <time>2022-01-05T10:46:28.158Z</time>
      </trkpt>
      <trkpt lat="44.10311" lon="5.9831">
        <ele>636.79998779297</ele>
        <time>2022-01-05T10:46:35.421Z</time>
      </trkpt>
      <trkpt lat="44.10279" lon="5.98298">
        <ele>636.79998779297</ele>
        <time>2022-01-05T10:46:42.695Z</time>
      </trkpt>
      <trkpt lat="44.10276" lon="5.98299">
        <ele>639.40002441406</ele>
        <time>2022-01-05T10:46:49.970Z</time>
      </trkpt>
      <trkpt lat="44.10272" lon="5.98305">
        <ele>639.40002441406</ele>
        <time>2022-01-05T10:46:57.247Z</time>
      </trkpt>
      <trkpt lat="44.1027" lon="5.98304">
        <ele>639.40002441406</ele>
        <time>2022-01-05T10:47:04.525Z</time>
      </trkpt>
      <trkpt lat="44.10251" lon="5.98313">
        <ele>638.79998779297</ele>
        <time>2022-01-05T10:47:11.810Z</time>
      </trkpt>
      <trkpt lat="44.10245" lon="5.98312">
        <ele>638.79998779297</ele>
        <time>2022-01-05T10:47:19.097Z</time>
      </trkpt>
      <trkpt lat="44.1024" lon="5.98308">
        <ele>638.79998779297</ele>
        <time>2022-01-05T10:47:26.386Z</time>
      </trkpt>
      <trkpt lat="44.10234" lon="5.98305">
        <ele>636.79998779297</ele>
        <time>2022-01-05T10:47:33.677Z</time>
      </trkpt>
      <trkpt lat="44.10222" lon="5.98314">
        <ele>635.79998779297</ele>
        <time>2022-01-05T10:47:40.973Z</time>
      </trkpt>
      <trkpt lat="44.10192" lon="5.98355">
        <ele>633.20001220703</ele>
        <time>2022-01-05T10:47:48.284Z</time>
      </trkpt>
      <trkpt lat="44.10185" lon="5.98369">
        <ele>633.20001220703</ele>
        <time>2022-01-05T10:47:55.599Z</time>
      </trkpt>
      <trkpt lat="44.10182" lon="5.98383">
        <ele>633.20001220703</ele>
        <time>2022-01-05T10:48:02.917Z</time>
      </trkpt>
      <trkpt lat="44.10182" lon="5.98405">
        <ele>633.20001220703</ele>
        <time>2022-01-05T10:48:10.241Z</time>
      </trkpt>
      <trkpt lat="44.10174" lon="5.98412">
        <ele>632.59997558594</ele>
        <time>2022-01-05T10:48:17.568Z</time>
      </trkpt>
      <trkpt lat="44.10152" lon="5.98407">
        <ele>632.59997558594</ele>
        <time>2022-01-05T10:48:24.903Z</time>
      </trkpt>
      <trkpt lat="44.10149" lon="5.98409">
        <ele>628.40002441406</ele>
        <time>2022-01-05T10:48:32.239Z</time>
      </trkpt>
      <trkpt lat="44.10138" lon="5.98423">
        <ele>628.40002441406</ele>
        <time>2022-01-05T10:48:39.580Z</time>
      </trkpt>
      <trkpt lat="44.10128" lon="5.98423">
        <ele>626.40002441406</ele>
        <time>2022-01-05T10:48:46.924Z</time>
      </trkpt>
      <trkpt lat="44.10122" lon="5.98416">
        <ele>624.20001220703</ele>
        <time>2022-01-05T10:48:54.271Z</time>
      </trkpt>
      <trkpt lat="44.10118" lon="5.98414">
        <ele>624.20001220703</ele>
        <time>2022-01-05T10:49:01.620Z</time>
      </trkpt>
      <trkpt lat="44.10111" lon="5.98416">
        <ele>622.59997558594</ele>
        <time>2022-01-05T10:49:08.971Z</time>
      </trkpt>
      <trkpt lat="44.10108" lon="5.9842">
        <ele>622.59997558594</ele>
        <time>2022-01-05T10:49:16.324Z</time>
      </trkpt>
      <trkpt lat="44.10097" lon="5.98425">
        <ele>621.59997558594</ele>
        <time>2022-01-05T10:49:23.681Z</time>
      </trkpt>
      <trkpt lat="44.10091" lon="5.98425">
        <ele>621.59997558594</ele>
        <time>2022-01-05T10:49:31.040Z</time>
      </trkpt>
      <trkpt lat="44.10069" lon="5.98418">
        <ele>618.20001220703</ele>
        <time>2022-01-05T10:49:38.406Z</time>
      </trkpt>
      <trkpt lat="44.10037" lon="5.98429">
        <ele>615.59997558594</ele>
        <time>2022-01-05T10:49:45.784Z</time>
      </trkpt>
      <trkpt lat="44.10022" lon="5.98438">
        <ele>615.59997558594</ele>
        <time>2022-01-05T10:49:53.168Z</time>
      </trkpt>
      <trkpt lat="44.10016" lon="5.98446">
        <ele>611</ele>
        <time>2022-01-05T10:50:00.554Z</time>
      </trkpt>
      <trkpt lat="44.10001" lon="5.98459">
        <ele>611</ele>
        <time>2022-01-05T10:50:07.947Z</time>
      </trkpt>
      <trkpt lat="44.09988" lon="5.98465">
        <ele>611</ele>
        <time>2022-01-05T10:50:15.344Z</time>
      </trkpt>
      <trkpt lat="44.09982" lon="5.98471">
        <ele>611</ele>
        <time>2022-01-05T10:50:22.744Z</time>
      </trkpt>
      <trkpt lat="44.09971" lon="5.98476">
        <ele>607.40002441406</ele>
        <time>2022-01-05T10:50:30.148Z</time>
      </trkpt>
      <trkpt lat="44.09962" lon="5.98484">
        <ele>606.79998779297</ele>
        <time>2022-01-05T10:50:37.556Z</time>
      </trkpt>
      <trkpt lat="44.09935" lon="5.98497">
        <ele>606.79998779297</ele>
        <time>2022-01-05T10:50:44.974Z</time>
      </trkpt>
      <trkpt lat="44.09925" lon="5.98499">
        <ele>606.79998779297</ele>
        <time>2022-01-05T10:50:52.395Z</time>
      </trkpt>
      <trkpt lat="44.09913" lon="5.98499">
        <ele>606.79998779297</ele>
        <time>2022-01-05T10:50:59.820Z</time>
      </trkpt>
      <trkpt lat="44.099" lon="5.98505">
        <ele>602.79998779297</ele>
        <time>2022-01-05T10:51:07.250Z</time>
      </trkpt>
      <trkpt lat="44.09891" lon="5.98519">
        <ele>602.79998779297</ele>
        <time>2022-01-05T10:51:14.685Z</time>
      </trkpt>
      <trkpt lat="44.09888" lon="5.98521">
        <ele>600.20001220703</ele>
        <time>2022-01-05T10:51:22.121Z</time>
      </trkpt>
      <trkpt lat="44.09852" lon="5.98518">
        <ele>600.20001220703</ele>
        <time>2022-01-05T10:51:29.569Z</time>
      </trkpt>
      <trkpt lat="44.09839" lon="5.98524">
        <ele>600.20001220703</ele>
        <time>2022-01-05T10:51:37.022Z</time>
      </trkpt>
      <trkpt lat="44.09832" lon="5.98519">
        <ele>593.79998779297</ele>
        <time>2022-01-05T10:51:44.478Z</time>
      </trkpt>
      <trkpt lat="44.09821" lon="5.98519">
        <ele>592.40002441406</ele>
        <time>2022-01-05T10:51:51.938Z</time>
      </trkpt>
      <trkpt lat="44.09801" lon="5.98528">
        <ele>592.40002441406</ele>
        <time>2022-01-05T10:51:59.405Z</time>
      </trkpt>
      <trkpt lat="44.09791" lon="5.98524">
        <ele>593.79998779297</ele>
        <time>2022-01-05T10:52:06.876Z</time>
      </trkpt>
      <trkpt lat="44.09777" lon="5.98513">
        <ele>593.79998779297</ele>
        <time>2022-01-05T10:52:14.352Z</time>
      </trkpt>
      <trkpt lat="44.09766" lon="5.98506">
        <ele>591.59997558594</ele>
        <time>2022-01-05T10:52:21.832Z</time>
      </trkpt>
      <trkpt lat="44.09754" lon="5.98503">
        <ele>591.59997558594</ele>
        <time>2022-01-05T10:52:29.317Z</time>
      </trkpt>
      <trkpt lat="44.09732" lon="5.98511">
        <ele>591.59997558594</ele>
        <time>2022-01-05T10:52:36.809Z</time>
      </trkpt>
      <trkpt lat="44.09717" lon="5.98522">
        <ele>591.59997558594</ele>
        <time>2022-01-05T10:52:44.307Z</time>
      </trkpt>
      <trkpt lat="44.09695" lon="5.98526">
        <ele>591.59997558594</ele>
        <time>2022-01-05T10:52:51.813Z</time>
      </trkpt>
      <trkpt lat="44.09674" lon="5.9854">
        <ele>585.79998779297</ele>
        <time>2022-01-05T10:52:59.327Z</time>
      </trkpt>
      <trkpt lat="44.09648" lon="5.98548">
        <ele>582.59997558594</ele>
        <time>2022-01-05T10:53:06.850Z</time>
      </trkpt>
      <trkpt lat="44.0963" lon="5.98548">
        <ele>582.59997558594</ele>
        <time>2022-01-05T10:53:14.380Z</time>
      </trkpt>
      <trkpt lat="44.09621" lon="5.98562">
        <ele>582.59997558594</ele>
        <time>2022-01-05T10:53:21.914Z</time>
      </trkpt>
      <trkpt lat="44.09612" lon="5.98582">
        <ele>582.59997558594</ele>
        <time>2022-01-05T10:53:29.454Z</time>
      </trkpt>
      <trkpt lat="44.09593" lon="5.98611">
        <ele>581.59997558594</ele>
        <time>2022-01-05T10:53:37.004Z</time>
      </trkpt>
      <trkpt lat="44.09572" lon="5.98638">
        <ele>581.59997558594</ele>
        <time>2022-01-05T10:53:44.564Z</time>
      </trkpt>
      <trkpt lat="44.09538" lon="5.98674">
        <ele>581.59997558594</ele>
        <time>2022-01-05T10:53:52.139Z</time>
      </trkpt>
      <trkpt lat="44.09528" lon="5.9869">
        <ele>580.40002441406</ele>
        <time>2022-01-05T10:53:59.719Z</time>
      </trkpt>
      <trkpt lat="44.09515" lon="5.98729">
        <ele>580.40002441406</ele>
        <time>2022-01-05T10:54:07.310Z</time>
      </trkpt>
      <trkpt lat="44.09493" lon="5.98784">
        <ele>580.40002441406</ele>
        <time>2022-01-05T10:54:14.916Z</time>
      </trkpt>
      <trkpt lat="44.09478" lon="5.98807">
        <ele>580.40002441406</ele>
        <time>2022-01-05T10:54:22.530Z</time>
      </trkpt>
      <trkpt lat="44.09439" lon="5.98847">
        <ele>580.40002441406</ele>
        <time>2022-01-05T10:54:30.161Z</time>
      </trkpt>
      <trkpt lat="44.09399" lon="5.98881">
        <ele>580.40002441406</ele>
        <time>2022-01-05T10:54:37.808Z</time>
      </trkpt>
      <trkpt lat="44.09388" lon="5.98894">
        <ele>568.59997558594</ele>
        <time>2022-01-05T10:54:45.461Z</time>
      </trkpt>
      <trkpt lat="44.09373" lon="5.98915">
        <ele>568.59997558594</ele>
        <time>2022-01-05T10:54:53.121Z</time>
      </trkpt>
      <trkpt lat="44.09354" lon="5.98924">
        <ele>567</ele>
        <time>2022-01-05T10:55:00.788Z</time>
      </trkpt>
      <trkpt lat="44.0934" lon="5.98928">
        <ele>565.59997558594</ele>
        <time>2022-01-05T10:55:08.460Z</time>
      </trkpt>
      <trkpt lat="44.09325" lon="5.98934">
        <ele>565.59997558594</ele>
        <time>2022-01-05T10:55:16.137Z</time>
      </trkpt>
      <trkpt lat="44.09306" lon="5.98946">
        <ele>562.40002441406</ele>
        <time>2022-01-05T10:55:23.821Z</time>
      </trkpt>
      <trkpt lat="44.0928" lon="5.98951">
        <ele>562.40002441406</ele>
        <time>2022-01-05T10:55:31.515Z</time>
      </trkpt>
      <trkpt lat="44.09272" lon="5.98962">
        <ele>558.59997558594</ele>
        <time>2022-01-05T10:55:39.213Z</time>
      </trkpt>
      <trkpt lat="44.09267" lon="5.98972">
        <ele>558.59997558594</ele>
        <time>2022-01-05T10:55:46.914Z</time>
      </trkpt>
      <trkpt lat="44.0926" lon="5.99021">
        <ele>558.59997558594</ele>
        <time>2022-01-05T10:55:54.627Z</time>
      </trkpt>
      <trkpt lat="44.0926" lon="5.99217">
        <ele>558.59997558594</ele>
        <time>2022-01-05T10:56:02.389Z</time>
      </trkpt>
      <trkpt lat="44.09264" lon="5.99273">
        <ele>555.40002441406</ele>
        <time>2022-01-05T10:56:10.165Z</time>
      </trkpt>
      <trkpt lat="44.0926" lon="5.99283">
        <ele>555</ele>
        <time>2022-01-05T10:56:17.944Z</time>
      </trkpt>
      <trkpt lat="44.09243" lon="5.99292">
        <ele>555</ele>
        <time>2022-01-05T10:56:25.729Z</time>
      </trkpt>
      <trkpt lat="44.0923" lon="5.99291">
        <ele>557</ele>
        <time>2022-01-05T10:56:33.519Z</time>
      </trkpt>
      <trkpt lat="44.09178" lon="5.99253">
        <ele>558.40002441406</ele>
        <time>2022-01-05T10:56:41.329Z</time>
      </trkpt>
      <trkpt lat="44.09148" lon="5.99242">
        <ele>558.40002441406</ele>
        <time>2022-01-05T10:56:49.150Z</time>
      </trkpt>
      <trkpt lat="44.09127" lon="5.99236">
        <ele>557.20001220703</ele>
        <time>2022-01-05T10:56:56.979Z</time>
      </trkpt>
      <trkpt lat="44.09113" lon="5.99235">
        <ele>557.20001220703</ele>
        <time>2022-01-05T10:57:04.812Z</time>
      </trkpt>
      <trkpt lat="44.09073" lon="5.99233">
        <ele>557.20001220703</ele>
        <time>2022-01-05T10:57:12.659Z</time>
      </trkpt>
      <trkpt lat="44.09017" lon="5.99238">
        <ele>553</ele>
        <time>2022-01-05T10:57:20.526Z</time>
      </trkpt>
      <trkpt lat="44.08988" lon="5.99244">
        <ele>550.59997558594</ele>
        <time>2022-01-05T10:57:28.403Z</time>
      </trkpt>
      <trkpt lat="44.08915" lon="5.99248">
        <ele>550.59997558594</ele>
        <time>2022-01-05T10:57:36.305Z</time>
      </trkpt>
      <trkpt lat="44.08886" lon="5.99254">
        <ele>548.79998779297</ele>
        <time>2022-01-05T10:57:44.217Z</time>
      </trkpt>
      <trkpt lat="44.08861" lon="5.99262">
        <ele>548.79998779297</ele>
        <time>2022-01-05T10:57:52.138Z</time>
      </trkpt>
      <trkpt lat="44.08823" lon="5.99278">
        <ele>548.79998779297</ele>
        <time>2022-01-05T10:58:00.073Z</time>
      </trkpt>
      <trkpt lat="44.08787" lon="5.9929">
        <ele>549.20001220703</ele>
        <time>2022-01-05T10:58:08.021Z</time>
      </trkpt>
      <trkpt lat="44.08767" lon="5.99292">
        <ele>549.20001220703</ele>
        <time>2022-01-05T10:58:15.976Z</time>
      </trkpt>
      <trkpt lat="44.08765" lon="5.99288">
        <ele>549.40002441406</ele>
        <time>2022-01-05T10:58:23.932Z</time>
      </trkpt>
      <trkpt lat="44.08763" lon="5.99279">
        <ele>549.40002441406</ele>
        <time>2022-01-05T10:58:31.891Z</time>
      </trkpt>
      <trkpt lat="44.08762" lon="5.99247">
        <ele>549.40002441406</ele>
        <time>2022-01-05T10:58:39.858Z</time>
      </trkpt>
      <trkpt lat="44.08766" lon="5.99234">
        <ele>544.20001220703</ele>
        <time>2022-01-05T10:58:47.828Z</time>
      </trkpt>
      <trkpt lat="44.0878" lon="5.9922">
        <ele>540.59997558594</ele>
        <time>2022-01-05T10:58:55.804Z</time>
      </trkpt>
      <trkpt lat="44.08786" lon="5.99192">
        <ele>540.59997558594</ele>
        <time>2022-01-05T10:59:03.787Z</time>
      </trkpt>
      <trkpt lat="44.08783" lon="5.99169">
        <ele>535</ele>
        <time>2022-01-05T10:59:11.776Z</time>
      </trkpt>
      <trkpt lat="44.08784" lon="5.9915">
        <ele>533</ele>
        <time>2022-01-05T10:59:19.770Z</time>
      </trkpt>
      <trkpt lat="44.08791" lon="5.99135">
        <ele>533</ele>
        <time>2022-01-05T10:59:27.768Z</time>
      </trkpt>
      <trkpt lat="44.08795" lon="5.99131">
        <ele>531</ele>
        <time>2022-01-05T10:59:35.768Z</time>
      </trkpt>
      <trkpt lat="44.08805" lon="5.99126">
        <ele>531</ele>
        <time>2022-01-05T10:59:43.772Z</time>
      </trkpt>
      <trkpt lat="44.08812" lon="5.9913">
        <ele>530.20001220703</ele>
        <time>2022-01-05T10:59:51.778Z</time>
      </trkpt>
      <trkpt lat="44.0882" lon="5.99129">
        <ele>530.20001220703</ele>
        <time>2022-01-05T10:59:59.787Z</time>
      </trkpt>
      <trkpt lat="44.08839" lon="5.9911">
        <ele>524.59997558594</ele>
        <time>2022-01-05T11:00:07.804Z</time>
      </trkpt>
      <trkpt lat="44.08843" lon="5.99101">
        <ele>524.59997558594</ele>
        <time>2022-01-05T11:00:15.824Z</time>
      </trkpt>
      <trkpt lat="44.08839" lon="5.9909">
        <ele>524.59997558594</ele>
        <time>2022-01-05T11:00:23.847Z</time>
      </trkpt>
      <trkpt lat="44.08836" lon="5.99089">
        <ele>520.20001220703</ele>
        <time>2022-01-05T11:00:31.871Z</time>
      </trkpt>
      <trkpt lat="44.08816" lon="5.99067">
        <ele>520.20001220703</ele>
        <time>2022-01-05T11:00:39.904Z</time>
      </trkpt>
      <trkpt lat="44.08798" lon="5.99062">
        <ele>520.20001220703</ele>
        <time>2022-01-05T11:00:47.943Z</time>
      </trkpt>
      <trkpt lat="44.08779" lon="5.99067">
        <ele>515.79998779297</ele>
        <time>2022-01-05T11:00:55.989Z</time>
      </trkpt>
      <trkpt lat="44.0876" lon="5.99066">
        <ele>515.79998779297</ele>
        <time>2022-01-05T11:01:04.042Z</time>
      </trkpt>
      <trkpt lat="44.08742" lon="5.9907">
        <ele>515</ele>
        <time>2022-01-05T11:01:12.101Z</time>
      </trkpt>
      <trkpt lat="44.08714" lon="5.99069">
        <ele>513.20001220703</ele>
        <time>2022-01-05T11:01:20.170Z</time>
      </trkpt>
      <trkpt lat="44.08702" lon="5.99072">
        <ele>513.20001220703</ele>
        <time>2022-01-05T11:01:28.243Z</time>
      </trkpt>
      <trkpt lat="44.08685" lon="5.99068">
        <ele>513.20001220703</ele>
        <time>2022-01-05T11:01:36.322Z</time>
      </trkpt>
      <trkpt lat="44.08676" lon="5.99056">
        <ele>513.20001220703</ele>
        <time>2022-01-05T11:01:44.405Z</time>
      </trkpt>
      <trkpt lat="44.08673" lon="5.99053">
        <ele>513</ele>
        <time>2022-01-05T11:01:52.490Z</time>
      </trkpt>
      <trkpt lat="44.08658" lon="5.9905">
        <ele>513.40002441406</ele>
        <time>2022-01-05T11:02:00.580Z</time>
      </trkpt>
      <trkpt lat="44.0865" lon="5.99059">
        <ele>512.59997558594</ele>
        <time>2022-01-05T11:02:08.673Z</time>
      </trkpt>
      <trkpt lat="44.08646" lon="5.9906">
        <ele>512.59997558594</ele>
        <time>2022-01-05T11:02:16.768Z</time>
      </trkpt>
      <trkpt lat="44.08642" lon="5.99059">
        <ele>511.60000610352</ele>
        <time>2022-01-05T11:02:24.864Z</time>
      </trkpt>
      <trkpt lat="44.08637" lon="5.99054">
        <ele>511.60000610352</ele>
        <time>2022-01-05T11:02:32.962Z</time>
      </trkpt>
      <trkpt lat="44.08629" lon="5.9906">
        <ele>511.60000610352</ele>
        <time>2022-01-05T11:02:41.063Z</time>
      </trkpt>
      <trkpt lat="44.08606" lon="5.99084">
        <ele>511.39999389648</ele>
        <time>2022-01-05T11:02:49.174Z</time>
      </trkpt>
      <trkpt lat="44.08601" lon="5.99091">
        <ele>511.39999389648</ele>
        <time>2022-01-05T11:02:57.288Z</time>
      </trkpt>
      <trkpt lat="44.08595" lon="5.99094">
        <ele>511.79998779297</ele>
        <time>2022-01-05T11:03:05.404Z</time>
      </trkpt>
      <trkpt lat="44.08553" lon="5.99101">
        <ele>511.79998779297</ele>
        <time>2022-01-05T11:03:13.535Z</time>
      </trkpt>
      <trkpt lat="44.08545" lon="5.99105">
        <ele>511.79998779297</ele>
        <time>2022-01-05T11:03:21.668Z</time>
      </trkpt>
      <trkpt lat="44.08523" lon="5.99103">
        <ele>511.79998779297</ele>
        <time>2022-01-05T11:03:29.809Z</time>
      </trkpt>
      <trkpt lat="44.08506" lon="5.99098">
        <ele>507.20001220703</ele>
        <time>2022-01-05T11:03:37.956Z</time>
      </trkpt>
      <trkpt lat="44.08467" lon="5.99092">
        <ele>506.39999389648</ele>
        <time>2022-01-05T11:03:46.117Z</time>
      </trkpt>
      <trkpt lat="44.08452" lon="5.99094">
        <ele>506.39999389648</ele>
        <time>2022-01-05T11:03:54.283Z</time>
      </trkpt>
      <trkpt lat="44.0844" lon="5.99091">
        <ele>505.79998779297</ele>
        <time>2022-01-05T11:04:02.454Z</time>
      </trkpt>
      <trkpt lat="44.08421" lon="5.99076">
        <ele>507.20001220703</ele>
        <time>2022-01-05T11:04:10.632Z</time>
      </trkpt>
      <trkpt lat="44.08409" lon="5.99072">
        <ele>510</ele>
        <time>2022-01-05T11:04:18.814Z</time>
      </trkpt>
      <trkpt lat="44.084" lon="5.99072">
        <ele>510.39999389648</ele>
        <time>2022-01-05T11:04:26.999Z</time>
      </trkpt>
      <trkpt lat="44.08395" lon="5.9907">
        <ele>510.39999389648</ele>
        <time>2022-01-05T11:04:35.186Z</time>
      </trkpt>
      <trkpt lat="44.08387" lon="5.99064">
        <ele>510.39999389648</ele>
        <time>2022-01-05T11:04:43.376Z</time>
      </trkpt>
      <trkpt lat="44.08382" lon="5.99055">
        <ele>513.40002441406</ele>
        <time>2022-01-05T11:04:51.569Z</time>
      </trkpt>
      <trkpt lat="44.08379" lon="5.99045">
        <ele>514.59997558594</ele>
        <time>2022-01-05T11:04:59.765Z</time>
      </trkpt>
      <trkpt lat="44.08375" lon="5.99041">
        <ele>514.59997558594</ele>
        <time>2022-01-05T11:05:07.963Z</time>
      </trkpt>
      <trkpt lat="44.08372" lon="5.9904">
        <ele>514.59997558594</ele>
        <time>2022-01-05T11:05:16.162Z</time>
      </trkpt>
      <trkpt lat="44.0837" lon="5.99042">
        <ele>516.20001220703</ele>
        <time>2022-01-05T11:05:24.362Z</time>
      </trkpt>
      <trkpt lat="44.08363" lon="5.99039">
        <ele>516.20001220703</ele>
        <time>2022-01-05T11:05:32.564Z</time>
      </trkpt>
      <trkpt lat="44.08368" lon="5.99022">
        <ele>517.59997558594</ele>
        <time>2022-01-05T11:05:40.770Z</time>
      </trkpt>
      <trkpt lat="44.08367" lon="5.99">
        <ele>517.59997558594</ele>
        <time>2022-01-05T11:05:48.982Z</time>
      </trkpt>
      <trkpt lat="44.08354" lon="5.98962">
        <ele>520.79998779297</ele>
        <time>2022-01-05T11:05:57.205Z</time>
      </trkpt>
      <trkpt lat="44.08354" lon="5.98946">
        <ele>521.59997558594</ele>
        <time>2022-01-05T11:06:05.432Z</time>
      </trkpt>
      <trkpt lat="44.08346" lon="5.98922">
        <ele>521.79998779297</ele>
        <time>2022-01-05T11:06:13.665Z</time>
      </trkpt>
      <trkpt lat="44.08347" lon="5.98908">
        <ele>521.79998779297</ele>
        <time>2022-01-05T11:06:21.902Z</time>
      </trkpt>
      <trkpt lat="44.0834" lon="5.98899">
        <ele>521.79998779297</ele>
        <time>2022-01-05T11:06:30.142Z</time>
      </trkpt>
      <trkpt lat="44.08333" lon="5.9888">
        <ele>521.79998779297</ele>
        <time>2022-01-05T11:06:38.387Z</time>
      </trkpt>
      <trkpt lat="44.08324" lon="5.98867">
        <ele>523.40002441406</ele>
        <time>2022-01-05T11:06:46.637Z</time>
      </trkpt>
      <trkpt lat="44.08318" lon="5.98833">
        <ele>523.40002441406</ele>
        <time>2022-01-05T11:06:54.896Z</time>
      </trkpt>
      <trkpt lat="44.08321" lon="5.98819">
        <ele>523.40002441406</ele>
        <time>2022-01-05T11:07:03.158Z</time>
      </trkpt>
      <trkpt lat="44.08318" lon="5.98815">
        <ele>529.79998779297</ele>
        <time>2022-01-05T11:07:11.422Z</time>
      </trkpt>
      <trkpt lat="44.08309" lon="5.98814">
        <ele>531</ele>
        <time>2022-01-05T11:07:19.689Z</time>
      </trkpt>
      <trkpt lat="44.08305" lon="5.98811">
        <ele>531</ele>
        <time>2022-01-05T11:07:27.957Z</time>
      </trkpt>
      <trkpt lat="44.08301" lon="5.98803">
        <ele>531</ele>
        <time>2022-01-05T11:07:36.228Z</time>
      </trkpt>
      <trkpt lat="44.083" lon="5.98796">
        <ele>531</ele>
        <time>2022-01-05T11:07:44.501Z</time>
      </trkpt>
      <trkpt lat="44.08306" lon="5.98786">
        <ele>531</ele>
        <time>2022-01-05T11:07:52.777Z</time>
      </trkpt>
      <trkpt lat="44.08306" lon="5.98783">
        <ele>535.40002441406</ele>
        <time>2022-01-05T11:08:01.054Z</time>
      </trkpt>
      <trkpt lat="44.08291" lon="5.98773">
        <ele>536.59997558594</ele>
        <time>2022-01-05T11:08:09.337Z</time>
      </trkpt>
      <trkpt lat="44.0828" lon="5.98755">
        <ele>536.59997558594</ele>
        <time>2022-01-05T11:08:17.626Z</time>
      </trkpt>
      <trkpt lat="44.08285" lon="5.9874">
        <ele>536.59997558594</ele>
        <time>2022-01-05T11:08:25.919Z</time>
      </trkpt>
      <trkpt lat="44.08285" lon="5.98721">
        <ele>536.59997558594</ele>
        <time>2022-01-05T11:08:34.216Z</time>
      </trkpt>
      <trkpt lat="44.08279" lon="5.98718">
        <ele>540.20001220703</ele>
        <time>2022-01-05T11:08:42.516Z</time>
      </trkpt>
      <trkpt lat="44.08268" lon="5.98708">
        <ele>540.20001220703</ele>
        <time>2022-01-05T11:08:50.820Z</time>
      </trkpt>
      <trkpt lat="44.08263" lon="5.98691">
        <ele>540.79998779297</ele>
        <time>2022-01-05T11:08:59.129Z</time>
      </trkpt>
      <trkpt lat="44.08271" lon="5.9868">
        <ele>540.79998779297</ele>
        <time>2022-01-05T11:09:07.442Z</time>
      </trkpt>
      <trkpt lat="44.08274" lon="5.98669">
        <ele>542.59997558594</ele>
        <time>2022-01-05T11:09:15.758Z</time>
      </trkpt>
      <trkpt lat="44.08272" lon="5.98662">
        <ele>543</ele>
        <time>2022-01-05T11:09:24.076Z</time>
      </trkpt>
      <trkpt lat="44.08272" lon="5.98643">
        <ele>543</ele>
        <time>2022-01-05T11:09:32.398Z</time>
      </trkpt>
      <trkpt lat="44.08282" lon="5.98619">
        <ele>543</ele>
        <time>2022-01-05T11:09:40.727Z</time>
      </trkpt>
      <trkpt lat="44.08289" lon="5.98619">
        <ele>547.20001220703</ele>
        <time>2022-01-05T11:09:49.059Z</time>
      </trkpt>
      <trkpt lat="44.08294" lon="5.98623">
        <ele>547.20001220703</ele>
        <time>2022-01-05T11:09:57.393Z</time>
      </trkpt>
      <trkpt lat="44.08297" lon="5.98623">
        <ele>546.79998779297</ele>
        <time>2022-01-05T11:10:05.728Z</time>
      </trkpt>
      <trkpt lat="44.08301" lon="5.98619">
        <ele>546.79998779297</ele>
        <time>2022-01-05T11:10:14.065Z</time>
      </trkpt>
      <trkpt lat="44.08301" lon="5.98614">
        <ele>547.20001220703</ele>
        <time>2022-01-05T11:10:22.403Z</time>
      </trkpt>
      <trkpt lat="44.08294" lon="5.98605">
        <ele>548</ele>
        <time>2022-01-05T11:10:30.744Z</time>
      </trkpt>
      <trkpt lat="44.08299" lon="5.98578">
        <ele>550</ele>
        <time>2022-01-05T11:10:39.092Z</time>
      </trkpt>
      <trkpt lat="44.08296" lon="5.98576">
        <ele>550</ele>
        <time>2022-01-05T11:10:47.441Z</time>
      </trkpt>
      <trkpt lat="44.08292" lon="5.98561">
        <ele>550</ele>
        <time>2022-01-05T11:10:55.794Z</time>
      </trkpt>
      <trkpt lat="44.0829" lon="5.9856">
        <ele>552</ele>
        <time>2022-01-05T11:11:04.148Z</time>
      </trkpt>
      <trkpt lat="44.08285" lon="5.9856">
        <ele>552</ele>
        <time>2022-01-05T11:11:12.504Z</time>
      </trkpt>
      <trkpt lat="44.08281" lon="5.98567">
        <ele>551.40002441406</ele>
        <time>2022-01-05T11:11:20.862Z</time>
      </trkpt>
      <trkpt lat="44.08269" lon="5.98569">
        <ele>551.40002441406</ele>
        <time>2022-01-05T11:11:29.224Z</time>
      </trkpt>
      <trkpt lat="44.08258" lon="5.98558">
        <ele>550.79998779297</ele>
        <time>2022-01-05T11:11:37.591Z</time>
      </trkpt>
      <trkpt lat="44.08252" lon="5.98543">
        <ele>550.79998779297</ele>
        <time>2022-01-05T11:11:45.962Z</time>
      </trkpt>
      <trkpt lat="44.08245" lon="5.98541">
        <ele>553</ele>
        <time>2022-01-05T11:11:54.336Z</time>
      </trkpt>
      <trkpt lat="44.08232" lon="5.98543">
        <ele>553.20001220703</ele>
        <time>2022-01-05T11:12:02.714Z</time>
      </trkpt>
      <trkpt lat="44.08223" lon="5.98538">
        <ele>553.20001220703</ele>
        <time>2022-01-05T11:12:11.095Z</time>
      </trkpt>
      <trkpt lat="44.08215" lon="5.9853">
        <ele>551.79998779297</ele>
        <time>2022-01-05T11:12:19.480Z</time>
      </trkpt>
      <trkpt lat="44.08212" lon="5.98521">
        <ele>551.79998779297</ele>
        <time>2022-01-05T11:12:27.867Z</time>
      </trkpt>
      <trkpt lat="44.08214" lon="5.98511">
        <ele>551.79998779297</ele>
        <time>2022-01-05T11:12:36.257Z</time>
      </trkpt>
      <trkpt lat="44.08213" lon="5.98509">
        <ele>552.79998779297</ele>
        <time>2022-01-05T11:12:44.648Z</time>
      </trkpt>
      <trkpt lat="44.08211" lon="5.98508">
        <ele>552.79998779297</ele>
        <time>2022-01-05T11:12:53.039Z</time>
      </trkpt>
      <trkpt lat="44.08206" lon="5.98509">
        <ele>553.40002441406</ele>
        <time>2022-01-05T11:13:01.432Z</time>
      </trkpt>
      <trkpt lat="44.08199" lon="5.98506">
        <ele>553.40002441406</ele>
        <time>2022-01-05T11:13:09.828Z</time>
      </trkpt>
      <trkpt lat="44.08197" lon="5.98504">
        <ele>552.40002441406</ele>
        <time>2022-01-05T11:13:18.225Z</time>
      </trkpt>
      <trkpt lat="44.08192" lon="5.98482">
        <ele>552.40002441406</ele>
        <time>2022-01-05T11:13:26.627Z</time>
      </trkpt>
      <trkpt lat="44.08188" lon="5.9849">
        <ele>550</ele>
        <time>2022-01-05T11:13:35.032Z</time>
      </trkpt>
      <trkpt lat="44.08179" lon="5.98495">
        <ele>550</ele>
        <time>2022-01-05T11:13:43.440Z</time>
      </trkpt>
      <trkpt lat="44.0815" lon="5.98484">
        <ele>548.40002441406</ele>
        <time>2022-01-05T11:13:51.858Z</time>
      </trkpt>
      <trkpt lat="44.08138" lon="5.98478">
        <ele>548.40002441406</ele>
        <time>2022-01-05T11:14:00.281Z</time>
      </trkpt>
      <trkpt lat="44.08135" lon="5.98474">
        <ele>549</ele>
        <time>2022-01-05T11:14:08.705Z</time>
      </trkpt>
      <trkpt lat="44.08129" lon="5.9847">
        <ele>549</ele>
        <time>2022-01-05T11:14:17.131Z</time>
      </trkpt>
      <trkpt lat="44.08113" lon="5.98465">
        <ele>550.79998779297</ele>
        <time>2022-01-05T11:14:25.563Z</time>
      </trkpt>
      <trkpt lat="44.08108" lon="5.98466">
        <ele>550.79998779297</ele>
        <time>2022-01-05T11:14:33.997Z</time>
      </trkpt>
      <trkpt lat="44.08102" lon="5.9847">
        <ele>550.79998779297</ele>
        <time>2022-01-05T11:14:42.433Z</time>
      </trkpt>
      <trkpt lat="44.08097" lon="5.9847">
        <ele>550.79998779297</ele>
        <time>2022-01-05T11:14:50.871Z</time>
      </trkpt>
      <trkpt lat="44.0809" lon="5.98477">
        <ele>550.79998779297</ele>
        <time>2022-01-05T11:14:59.312Z</time>
      </trkpt>
      <trkpt lat="44.08086" lon="5.98478">
        <ele>550.79998779297</ele>
        <time>2022-01-05T11:15:07.755Z</time>
      </trkpt>
      <trkpt lat="44.08076" lon="5.98473">
        <ele>557.59997558594</ele>
        <time>2022-01-05T11:15:16.201Z</time>
      </trkpt>
      <trkpt lat="44.08071" lon="5.98474">
        <ele>557.59997558594</ele>
        <time>2022-01-05T11:15:24.649Z</time>
      </trkpt>
      <trkpt lat="44.08063" lon="5.98472">
        <ele>558.40002441406</ele>
        <time>2022-01-05T11:15:33.100Z</time>
      </trkpt>
      <trkpt lat="44.08046" lon="5.98463">
        <ele>558.40002441406</ele>
        <time>2022-01-05T11:15:41.557Z</time>
      </trkpt>
      <trkpt lat="44.08009" lon="5.98464">
        <ele>563.40002441406</ele>
        <time>2022-01-05T11:15:50.027Z</time>
      </trkpt>
      <trkpt lat="44.08" lon="5.98467">
        <ele>563.40002441406</ele>
        <time>2022-01-05T11:15:58.500Z</time>
      </trkpt>
      <trkpt lat="44.07997" lon="5.98485">
        <ele>565.79998779297</ele>
        <time>2022-01-05T11:16:06.978Z</time>
      </trkpt>
      <trkpt lat="44.08002" lon="5.9852">
        <ele>565.79998779297</ele>
        <time>2022-01-05T11:16:15.465Z</time>
      </trkpt>
      <trkpt lat="44.08001" lon="5.98528">
        <ele>564.59997558594</ele>
        <time>2022-01-05T11:16:23.954Z</time>
      </trkpt>
      <trkpt lat="44.08002" lon="5.9854">
        <ele>564.59997558594</ele>
        <time>2022-01-05T11:16:32.446Z</time>
      </trkpt>
      <trkpt lat="44.0801" lon="5.98553">
        <ele>564.59997558594</ele>
        <time>2022-01-05T11:16:40.942Z</time>
      </trkpt>
      <trkpt lat="44.08025" lon="5.98569">
        <ele>558.40002441406</ele>
        <time>2022-01-05T11:16:49.445Z</time>
      </trkpt>
      <trkpt lat="44.08028" lon="5.98576">
        <ele>558.40002441406</ele>
        <time>2022-01-05T11:16:57.950Z</time>
      </trkpt>
      <trkpt lat="44.08036" lon="5.98582">
        <ele>556</ele>
        <time>2022-01-05T11:17:06.458Z</time>
      </trkpt>
      <trkpt lat="44.08043" lon="5.98584">
        <ele>555.20001220703</ele>
        <time>2022-01-05T11:17:14.968Z</time>
      </trkpt>
      <trkpt lat="44.08049" lon="5.98589">
        <ele>555.20001220703</ele>
        <time>2022-01-05T11:17:23.481Z</time>
      </trkpt>
      <trkpt lat="44.08067" lon="5.98587">
        <ele>555.20001220703</ele>
        <time>2022-01-05T11:17:32.000Z</time>
      </trkpt>
      <trkpt lat="44.08086" lon="5.98598">
        <ele>551</ele>
        <time>2022-01-05T11:17:40.526Z</time>
      </trkpt>
      <trkpt lat="44.08094" lon="5.98609">
        <ele>549.59997558594</ele>
        <time>2022-01-05T11:17:49.056Z</time>
      </trkpt>
      <trkpt lat="44.08112" lon="5.98624">
        <ele>549.59997558594</ele>
        <time>2022-01-05T11:17:57.594Z</time>
      </trkpt>
      <trkpt lat="44.0812" lon="5.98638">
        <ele>549.59997558594</ele>
        <time>2022-01-05T11:18:06.136Z</time>
      </trkpt>
      <trkpt lat="44.08123" lon="5.98639">
        <ele>543</ele>
        <time>2022-01-05T11:18:14.679Z</time>
      </trkpt>
      <trkpt lat="44.08132" lon="5.98637">
        <ele>541.79998779297</ele>
        <time>2022-01-05T11:18:23.225Z</time>
      </trkpt>
      <trkpt lat="44.08143" lon="5.98646">
        <ele>541.79998779297</ele>
        <time>2022-01-05T11:18:31.775Z</time>
      </trkpt>
      <trkpt lat="44.0815" lon="5.98648">
        <ele>541.79998779297</ele>
        <time>2022-01-05T11:18:40.328Z</time>
      </trkpt>
      <trkpt lat="44.08159" lon="5.98657">
        <ele>541.79998779297</ele>
        <time>2022-01-05T11:18:48.885Z</time>
      </trkpt>
      <trkpt lat="44.08162" lon="5.98665">
        <ele>541.79998779297</ele>
        <time>2022-01-05T11:18:57.444Z</time>
      </trkpt>
      <trkpt lat="44.08177" lon="5.98679">
        <ele>541.79998779297</ele>
        <time>2022-01-05T11:19:06.009Z</time>
      </trkpt>
      <trkpt lat="44.08164" lon="5.98684">
        <ele>541.79998779297</ele>
        <time>2022-01-05T11:19:14.579Z</time>
      </trkpt>
      <trkpt lat="44.08162" lon="5.98688">
        <ele>541.79998779297</ele>
        <time>2022-01-05T11:19:23.150Z</time>
      </trkpt>
      <trkpt lat="44.08162" lon="5.98708">
        <ele>541.79998779297</ele>
        <time>2022-01-05T11:19:31.726Z</time>
      </trkpt>
      <trkpt lat="44.08168" lon="5.9872">
        <ele>541.79998779297</ele>
        <time>2022-01-05T11:19:40.306Z</time>
      </trkpt>
      <trkpt lat="44.08166" lon="5.98727">
        <ele>541.79998779297</ele>
        <time>2022-01-05T11:19:48.888Z</time>
      </trkpt>
      <trkpt lat="44.08164" lon="5.98729">
        <ele>546.20001220703</ele>
        <time>2022-01-05T11:19:57.470Z</time>
      </trkpt>
      <trkpt lat="44.08163" lon="5.98728">
        <ele>546.20001220703</ele>
        <time>2022-01-05T11:20:06.053Z</time>
      </trkpt>
      <trkpt lat="44.08162" lon="5.98734">
        <ele>548.40002441406</ele>
        <time>2022-01-05T11:20:14.638Z</time>
      </trkpt>
      <trkpt lat="44.08165" lon="5.98758">
        <ele>551</ele>
        <time>2022-01-05T11:20:23.229Z</time>
      </trkpt>
      <trkpt lat="44.08172" lon="5.98777">
        <ele>552.40002441406</ele>
        <time>2022-01-05T11:20:31.825Z</time>
      </trkpt>
      <trkpt lat="44.08167" lon="5.98775">
        <ele>553.40002441406</ele>
        <time>2022-01-05T11:20:40.423Z</time>
      </trkpt>
      <trkpt lat="44.08161" lon="5.9877">
        <ele>553.40002441406</ele>
        <time>2022-01-05T11:20:49.024Z</time>
      </trkpt>
      <trkpt lat="44.0816" lon="5.98771">
        <ele>555</ele>
        <time>2022-01-05T11:20:57.625Z</time>
      </trkpt>
      <trkpt lat="44.08159" lon="5.98787">
        <ele>557.20001220703</ele>
        <time>2022-01-05T11:21:06.230Z</time>
      </trkpt>
      <trkpt lat="44.08161" lon="5.98794">
        <ele>557.79998779297</ele>
        <time>2022-01-05T11:21:14.837Z</time>
      </trkpt>
      <trkpt lat="44.08153" lon="5.9879">
        <ele>559</ele>
        <time>2022-01-05T11:21:23.447Z</time>
      </trkpt>
      <trkpt lat="44.08134" lon="5.98767">
        <ele>561</ele>
        <time>2022-01-05T11:21:32.066Z</time>
      </trkpt>
      <trkpt lat="44.08119" lon="5.98753">
        <ele>561</ele>
        <time>2022-01-05T11:21:40.691Z</time>
      </trkpt>
      <trkpt lat="44.08106" lon="5.98743">
        <ele>561</ele>
        <time>2022-01-05T11:21:49.321Z</time>
      </trkpt>
      <trkpt lat="44.08102" lon="5.98737">
        <ele>564.59997558594</ele>
        <time>2022-01-05T11:21:57.953Z</time>
      </trkpt>
      <trkpt lat="44.08091" lon="5.98707">
        <ele>561.40002441406</ele>
        <time>2022-01-05T11:22:06.594Z</time>
      </trkpt>
      <trkpt lat="44.08069" lon="5.98689">
        <ele>561.40002441406</ele>
        <time>2022-01-05T11:22:15.243Z</time>
      </trkpt>
      <trkpt lat="44.08067" lon="5.98684">
        <ele>563.59997558594</ele>
        <time>2022-01-05T11:22:23.894Z</time>
      </trkpt>
      <trkpt lat="44.08069" lon="5.9868">
        <ele>564.20001220703</ele>
        <time>2022-01-05T11:22:32.546Z</time>
      </trkpt>
      <trkpt lat="44.08066" lon="5.98672">
        <ele>564.20001220703</ele>
        <time>2022-01-05T11:22:41.200Z</time>
      </trkpt>
      <trkpt lat="44.08058" lon="5.98655">
        <ele>564.20001220703</ele>
        <time>2022-01-05T11:22:49.859Z</time>
      </trkpt>
      <trkpt lat="44.08052" lon="5.98635">
        <ele>565.20001220703</ele>
        <time>2022-01-05T11:22:58.524Z</time>
      </trkpt>
      <trkpt lat="44.08037" lon="5.98616">
        <ele>566.79998779297</ele>
        <time>2022-01-05T11:23:07.196Z</time>
      </trkpt>
      <trkpt lat="44.08031" lon="5.98619">
        <ele>566.79998779297</ele>
        <time>2022-01-05T11:23:15.870Z</time>
      </trkpt>
      <trkpt lat="44.08032" lon="5.98634">
        <ele>566.79998779297</ele>
        <time>2022-01-05T11:23:24.548Z</time>
      </trkpt>
      <trkpt lat="44.08029" lon="5.98656">
        <ele>566.79998779297</ele>
        <time>2022-01-05T11:23:33.231Z</time>
      </trkpt>
      <trkpt lat="44.08031" lon="5.98691">
        <ele>573.79998779297</ele>
        <time>2022-01-05T11:23:41.923Z</time>
      </trkpt>
      <trkpt lat="44.08026" lon="5.98715">
        <ele>575.79998779297</ele>
        <time>2022-01-05T11:23:50.621Z</time>
      </trkpt>
      <trkpt lat="44.08002" lon="5.98723">
        <ele>575.79998779297</ele>
        <time>2022-01-05T11:23:59.328Z</time>
      </trkpt>
      <trkpt lat="44.07988" lon="5.9872">
        <ele>576.79998779297</ele>
        <time>2022-01-05T11:24:08.040Z</time>
      </trkpt>
      <trkpt lat="44.07979" lon="5.98713">
        <ele>576.59997558594</ele>
        <time>2022-01-05T11:24:16.755Z</time>
      </trkpt>
      <trkpt lat="44.07955" lon="5.98705">
        <ele>577.20001220703</ele>
        <time>2022-01-05T11:24:25.479Z</time>
      </trkpt>
      <trkpt lat="44.07942" lon="5.98704">
        <ele>577.20001220703</ele>
        <time>2022-01-05T11:24:34.207Z</time>
      </trkpt>
      <trkpt lat="44.07942" lon="5.98709">
        <ele>576.40002441406</ele>
        <time>2022-01-05T11:24:42.937Z</time>
      </trkpt>
      <trkpt lat="44.07944" lon="5.9871">
        <ele>576.40002441406</ele>
        <time>2022-01-05T11:24:51.667Z</time>
      </trkpt>
      <trkpt lat="44.07963" lon="5.98724">
        <ele>576.40002441406</ele>
        <time>2022-01-05T11:25:00.405Z</time>
      </trkpt>
      <trkpt lat="44.07977" lon="5.98739">
        <ele>576.40002441406</ele>
        <time>2022-01-05T11:25:09.149Z</time>
      </trkpt>
      <trkpt lat="44.07988" lon="5.98747">
        <ele>576.40002441406</ele>
        <time>2022-01-05T11:25:17.897Z</time>
      </trkpt>
      <trkpt lat="44.08016" lon="5.98781">
        <ele>564.59997558594</ele>
        <time>2022-01-05T11:25:26.658Z</time>
      </trkpt>
      <trkpt lat="44.08016" lon="5.98783">
        <ele>564.59997558594</ele>
        <time>2022-01-05T11:25:35.420Z</time>
      </trkpt>
      <trkpt lat="44.08011" lon="5.98784">
        <ele>564</ele>
        <time>2022-01-05T11:25:44.183Z</time>
      </trkpt>
      <trkpt lat="44.07994" lon="5.98778">
        <ele>564</ele>
        <time>2022-01-05T11:25:52.953Z</time>
      </trkpt>
      <trkpt lat="44.07985" lon="5.98777">
        <ele>564</ele>
        <time>2022-01-05T11:26:01.726Z</time>
      </trkpt>
      <trkpt lat="44.07975" lon="5.98779">
        <ele>560.40002441406</ele>
        <time>2022-01-05T11:26:10.502Z</time>
      </trkpt>
      <trkpt lat="44.07985" lon="5.98805">
        <ele>556.79998779297</ele>
        <time>2022-01-05T11:26:19.285Z</time>
      </trkpt>
      <trkpt lat="44.07987" lon="5.98816">
        <ele>556.79998779297</ele>
        <time>2022-01-05T11:26:28.071Z</time>
      </trkpt>
      <trkpt lat="44.08014" lon="5.98868">
        <ele>549.40002441406</ele>
        <time>2022-01-05T11:26:36.873Z</time>
      </trkpt>
      <trkpt lat="44.08037" lon="5.98878">
        <ele>549.40002441406</ele>
        <time>2022-01-05T11:26:45.684Z</time>
      </trkpt>
      <trkpt lat="44.08056" lon="5.98908">
        <ele>549.40002441406</ele>
        <time>2022-01-05T11:26:54.505Z</time>
      </trkpt>
      <trkpt lat="44.0807" lon="5.9892">
        <ele>543</ele>
        <time>2022-01-05T11:27:03.331Z</time>
      </trkpt>
      <trkpt lat="44.08059" lon="5.98924">
        <ele>541.79998779297</ele>
        <time>2022-01-05T11:27:12.161Z</time>
      </trkpt>
      <trkpt lat="44.08048" lon="5.98923">
        <ele>539.59997558594</ele>
        <time>2022-01-05T11:27:20.995Z</time>
      </trkpt>
      <trkpt lat="44.08043" lon="5.9893">
        <ele>538</ele>
        <time>2022-01-05T11:27:29.831Z</time>
      </trkpt>
      <trkpt lat="44.08042" lon="5.98935">
        <ele>538</ele>
        <time>2022-01-05T11:27:38.669Z</time>
      </trkpt>
      <trkpt lat="44.08042" lon="5.9894">
        <ele>536</ele>
        <time>2022-01-05T11:27:47.508Z</time>
      </trkpt>
      <trkpt lat="44.08047" lon="5.98957">
        <ele>536</ele>
        <time>2022-01-05T11:27:56.352Z</time>
      </trkpt>
      <trkpt lat="44.08055" lon="5.98967">
        <ele>536</ele>
        <time>2022-01-05T11:28:05.199Z</time>
      </trkpt>
      <trkpt lat="44.08058" lon="5.98991">
        <ele>536</ele>
        <time>2022-01-05T11:28:14.053Z</time>
      </trkpt>
      <trkpt lat="44.0806" lon="5.98996">
        <ele>530.20001220703</ele>
        <time>2022-01-05T11:28:22.908Z</time>
      </trkpt>
      <trkpt lat="44.0808" lon="5.99026">
        <ele>530.20001220703</ele>
        <time>2022-01-05T11:28:31.773Z</time>
      </trkpt>
      <trkpt lat="44.08095" lon="5.99018">
        <ele>530.20001220703</ele>
        <time>2022-01-05T11:28:40.644Z</time>
      </trkpt>
      <trkpt lat="44.08106" lon="5.9903">
        <ele>530.20001220703</ele>
        <time>2022-01-05T11:28:49.520Z</time>
      </trkpt>
      <trkpt lat="44.08136" lon="5.99055">
        <ele>527.40002441406</ele>
        <time>2022-01-05T11:28:58.408Z</time>
      </trkpt>
      <trkpt lat="44.08156" lon="5.99091">
        <ele>527.40002441406</ele>
        <time>2022-01-05T11:29:07.307Z</time>
      </trkpt>
      <trkpt lat="44.0816" lon="5.99104">
        <ele>527.40002441406</ele>
        <time>2022-01-05T11:29:16.210Z</time>
      </trkpt>
      <trkpt lat="44.08173" lon="5.99119">
        <ele>527.40002441406</ele>
        <time>2022-01-05T11:29:25.119Z</time>
      </trkpt>
      <trkpt lat="44.08178" lon="5.99128">
        <ele>527.40002441406</ele>
        <time>2022-01-05T11:29:34.030Z</time>
      </trkpt>
      <trkpt lat="44.08187" lon="5.99136">
        <ele>527.40002441406</ele>
        <time>2022-01-05T11:29:42.945Z</time>
      </trkpt>
      <trkpt lat="44.08197" lon="5.9914">
        <ele>527.40002441406</ele>
        <time>2022-01-05T11:29:51.864Z</time>
      </trkpt>
      <trkpt lat="44.08175" lon="5.99163">
        <ele>507.60000610352</ele>
        <time>2022-01-05T11:30:00.792Z</time>
      </trkpt>
      <trkpt lat="44.08166" lon="5.99165">
        <ele>505.79998779297</ele>
        <time>2022-01-05T11:30:09.723Z</time>
      </trkpt>
      <trkpt lat="44.08163" lon="5.99169">
        <ele>505.79998779297</ele>
        <time>2022-01-05T11:30:18.656Z</time>
      </trkpt>
      <trkpt lat="44.08155" lon="5.99191">
        <ele>501.60000610352</ele>
        <time>2022-01-05T11:30:27.595Z</time>
      </trkpt>
      <trkpt lat="44.08141" lon="5.9921">
        <ele>500.79998779297</ele>
        <time>2022-01-05T11:30:36.541Z</time>
      </trkpt>
      <trkpt lat="44.08132" lon="5.99215">
        <ele>500.79998779297</ele>
        <time>2022-01-05T11:30:45.490Z</time>
      </trkpt>
      <trkpt lat="44.08117" lon="5.9922">
        <ele>500.79998779297</ele>
        <time>2022-01-05T11:30:54.444Z</time>
      </trkpt>
      <trkpt lat="44.08087" lon="5.99224">
        <ele>500.79998779297</ele>
        <time>2022-01-05T11:31:03.409Z</time>
      </trkpt>
      <trkpt lat="44.08079" lon="5.9923">
        <ele>497.79998779297</ele>
        <time>2022-01-05T11:31:12.377Z</time>
      </trkpt>
      <trkpt lat="44.08069" lon="5.99249">
        <ele>497.39999389648</ele>
        <time>2022-01-05T11:31:21.351Z</time>
      </trkpt>
      <trkpt lat="44.08054" lon="5.99262">
        <ele>499.60000610352</ele>
        <time>2022-01-05T11:31:30.331Z</time>
      </trkpt>
      <trkpt lat="44.08052" lon="5.99266">
        <ele>499.60000610352</ele>
        <time>2022-01-05T11:31:39.312Z</time>
      </trkpt>
      <trkpt lat="44.08048" lon="5.99291">
        <ele>499.60000610352</ele>
        <time>2022-01-05T11:31:48.300Z</time>
      </trkpt>
      <trkpt lat="44.0804" lon="5.99317">
        <ele>501.20001220703</ele>
        <time>2022-01-05T11:31:57.295Z</time>
      </trkpt>
      <trkpt lat="44.08023" lon="5.99352">
        <ele>504.20001220703</ele>
        <time>2022-01-05T11:32:06.300Z</time>
      </trkpt>
      <trkpt lat="44.08013" lon="5.99384">
        <ele>506.39999389648</ele>
        <time>2022-01-05T11:32:15.314Z</time>
      </trkpt>
      <trkpt lat="44.08012" lon="5.99394">
        <ele>506.39999389648</ele>
        <time>2022-01-05T11:32:24.331Z</time>
      </trkpt>
      <trkpt lat="44.08014" lon="5.99415">
        <ele>506.39999389648</ele>
        <time>2022-01-05T11:32:33.353Z</time>
      </trkpt>
      <trkpt lat="44.08017" lon="5.99435">
        <ele>506.39999389648</ele>
        <time>2022-01-05T11:32:42.380Z</time>
      </trkpt>
      <trkpt lat="44.08016" lon="5.99453">
        <ele>506.39999389648</ele>
        <time>2022-01-05T11:32:51.412Z</time>
      </trkpt>
      <trkpt lat="44.08018" lon="5.99466">
        <ele>512.20001220703</ele>
        <time>2022-01-05T11:33:00.447Z</time>
      </trkpt>
      <trkpt lat="44.08029" lon="5.99487">
        <ele>513.20001220703</ele>
        <time>2022-01-05T11:33:09.488Z</time>
      </trkpt>
      <trkpt lat="44.08066" lon="5.99548">
        <ele>515</ele>
        <time>2022-01-05T11:33:18.549Z</time>
      </trkpt>
      <trkpt lat="44.08072" lon="5.99553">
        <ele>515</ele>
        <time>2022-01-05T11:33:27.613Z</time>
      </trkpt>
      <trkpt lat="44.08087" lon="5.9956">
        <ele>517.59997558594</ele>
        <time>2022-01-05T11:33:36.682Z</time>
      </trkpt>
      <trkpt lat="44.08106" lon="5.99573">
        <ele>517.59997558594</ele>
        <time>2022-01-05T11:33:45.759Z</time>
      </trkpt>
      <trkpt lat="44.08129" lon="5.99584">
        <ele>521.79998779297</ele>
        <time>2022-01-05T11:33:54.844Z</time>
      </trkpt>
      <trkpt lat="44.08153" lon="5.996">
        <ele>523.59997558594</ele>
        <time>2022-01-05T11:34:03.938Z</time>
      </trkpt>
      <trkpt lat="44.08183" lon="5.99613">
        <ele>526</ele>
        <time>2022-01-05T11:34:13.043Z</time>
      </trkpt>
      <trkpt lat="44.082" lon="5.99627">
        <ele>526</ele>
        <time>2022-01-05T11:34:22.155Z</time>
      </trkpt>
      <trkpt lat="44.0821" lon="5.99626">
        <ele>528.40002441406</ele>
        <time>2022-01-05T11:34:31.271Z</time>
      </trkpt>
      <trkpt lat="44.08218" lon="5.99622">
        <ele>530.40002441406</ele>
        <time>2022-01-05T11:34:40.390Z</time>
      </trkpt>
      <trkpt lat="44.0822" lon="5.99625">
        <ele>531</ele>
        <time>2022-01-05T11:34:49.510Z</time>
      </trkpt>
      <trkpt lat="44.08222" lon="5.99638">
        <ele>531</ele>
        <time>2022-01-05T11:34:58.633Z</time>
      </trkpt>
      <trkpt lat="44.08223" lon="5.99652">
        <ele>531</ele>
        <time>2022-01-05T11:35:07.760Z</time>
      </trkpt>
      <trkpt lat="44.08228" lon="5.99663">
        <ele>531</ele>
        <time>2022-01-05T11:35:16.890Z</time>
      </trkpt>
      <trkpt lat="44.0825" lon="5.99684">
        <ele>526.59997558594</ele>
        <time>2022-01-05T11:35:26.029Z</time>
      </trkpt>
      <trkpt lat="44.08259" lon="5.99686">
        <ele>527.40002441406</ele>
        <time>2022-01-05T11:35:35.171Z</time>
      </trkpt>
      <trkpt lat="44.08272" lon="5.99697">
        <ele>529</ele>
        <time>2022-01-05T11:35:44.319Z</time>
      </trkpt>
      <trkpt lat="44.08288" lon="5.99704">
        <ele>530.59997558594</ele>
        <time>2022-01-05T11:35:53.472Z</time>
      </trkpt>
      <trkpt lat="44.08312" lon="5.99701">
        <ele>530.59997558594</ele>
        <time>2022-01-05T11:36:02.634Z</time>
      </trkpt>
      <trkpt lat="44.0833" lon="5.99702">
        <ele>530.59997558594</ele>
        <time>2022-01-05T11:36:11.802Z</time>
      </trkpt>
      <trkpt lat="44.08349" lon="5.997">
        <ele>535.59997558594</ele>
        <time>2022-01-05T11:36:20.977Z</time>
      </trkpt>
      <trkpt lat="44.08371" lon="5.99715">
        <ele>535.59997558594</ele>
        <time>2022-01-05T11:36:30.160Z</time>
      </trkpt>
      <trkpt lat="44.08376" lon="5.99715">
        <ele>539</ele>
        <time>2022-01-05T11:36:39.345Z</time>
      </trkpt>
      <trkpt lat="44.08385" lon="5.99713">
        <ele>540</ele>
        <time>2022-01-05T11:36:48.533Z</time>
      </trkpt>
      <trkpt lat="44.08392" lon="5.99707">
        <ele>541.40002441406</ele>
        <time>2022-01-05T11:36:57.724Z</time>
      </trkpt>
      <trkpt lat="44.08403" lon="5.99702">
        <ele>543.40002441406</ele>
        <time>2022-01-05T11:37:06.919Z</time>
      </trkpt>
      <trkpt lat="44.08416" lon="5.99689">
        <ele>545.79998779297</ele>
        <time>2022-01-05T11:37:16.120Z</time>
      </trkpt>
      <trkpt lat="44.08425" lon="5.99689">
        <ele>548.40002441406</ele>
        <time>2022-01-05T11:37:25.324Z</time>
      </trkpt>
      <trkpt lat="44.08434" lon="5.99687">
        <ele>549.59997558594</ele>
        <time>2022-01-05T11:37:34.531Z</time>
      </trkpt>
      <trkpt lat="44.08442" lon="5.99681">
        <ele>552.20001220703</ele>
        <time>2022-01-05T11:37:43.741Z</time>
      </trkpt>
      <trkpt lat="44.08444" lon="5.9968">
        <ele>552.20001220703</ele>
        <time>2022-01-05T11:37:52.952Z</time>
      </trkpt>
      <trkpt lat="44.08444" lon="5.99673">
        <ele>552.79998779297</ele>
        <time>2022-01-05T11:38:02.164Z</time>
      </trkpt>
      <trkpt lat="44.08441" lon="5.99658">
        <ele>552.79998779297</ele>
        <time>2022-01-05T11:38:11.380Z</time>
      </trkpt>
      <trkpt lat="44.08442" lon="5.99653">
        <ele>555.59997558594</ele>
        <time>2022-01-05T11:38:20.598Z</time>
      </trkpt>
      <trkpt lat="44.08449" lon="5.99649">
        <ele>555.59997558594</ele>
        <time>2022-01-05T11:38:29.818Z</time>
      </trkpt>
      <trkpt lat="44.08451" lon="5.99646">
        <ele>557.20001220703</ele>
        <time>2022-01-05T11:38:39.039Z</time>
      </trkpt>
      <trkpt lat="44.08467" lon="5.99631">
        <ele>558.79998779297</ele>
        <time>2022-01-05T11:38:48.267Z</time>
      </trkpt>
      <trkpt lat="44.08491" lon="5.99617">
        <ele>558.79998779297</ele>
        <time>2022-01-05T11:38:57.504Z</time>
      </trkpt>
      <trkpt lat="44.08495" lon="5.99613">
        <ele>558.79998779297</ele>
        <time>2022-01-05T11:39:06.743Z</time>
      </trkpt>
      <trkpt lat="44.085" lon="5.99611">
        <ele>562</ele>
        <time>2022-01-05T11:39:15.984Z</time>
      </trkpt>
      <trkpt lat="44.08514" lon="5.99611">
        <ele>562</ele>
        <time>2022-01-05T11:39:25.229Z</time>
      </trkpt>
      <trkpt lat="44.08524" lon="5.99613">
        <ele>562</ele>
        <time>2022-01-05T11:39:34.478Z</time>
      </trkpt>
      <trkpt lat="44.08538" lon="5.99612">
        <ele>562</ele>
        <time>2022-01-05T11:39:43.732Z</time>
      </trkpt>
      <trkpt lat="44.08553" lon="5.99616">
        <ele>562</ele>
        <time>2022-01-05T11:39:52.991Z</time>
      </trkpt>
      <trkpt lat="44.08561" lon="5.99614">
        <ele>562</ele>
        <time>2022-01-05T11:40:02.253Z</time>
      </trkpt>
      <trkpt lat="44.08566" lon="5.9962">
        <ele>572</ele>
        <time>2022-01-05T11:40:11.517Z</time>
      </trkpt>
      <trkpt lat="44.08571" lon="5.99636">
        <ele>574</ele>
        <time>2022-01-05T11:40:20.786Z</time>
      </trkpt>
      <trkpt lat="44.08585" lon="5.99648">
        <ele>577</ele>
        <time>2022-01-05T11:40:30.060Z</time>
      </trkpt>
      <trkpt lat="44.08592" lon="5.99648">
        <ele>577</ele>
        <time>2022-01-05T11:40:39.337Z</time>
      </trkpt>
      <trkpt lat="44.08603" lon="5.99643">
        <ele>578.79998779297</ele>
        <time>2022-01-05T11:40:48.618Z</time>
      </trkpt>
      <trkpt lat="44.08625" lon="5.99639">
        <ele>578.79998779297</ele>
        <time>2022-01-05T11:40:57.906Z</time>
      </trkpt>
      <trkpt lat="44.0864" lon="5.99633">
        <ele>581.59997558594</ele>
        <time>2022-01-05T11:41:07.200Z</time>
      </trkpt>
      <trkpt lat="44.08697" lon="5.99623">
        <ele>581.59997558594</ele>
        <time>2022-01-05T11:41:16.514Z</time>
      </trkpt>
      <trkpt lat="44.08728" lon="5.99619">
        <ele>581.59997558594</ele>
        <time>2022-01-05T11:41:25.839Z</time>
      </trkpt>
      <trkpt lat="44.08757" lon="5.99621">
        <ele>581.59997558594</ele>
        <time>2022-01-05T11:41:35.174Z</time>
      </trkpt>
      <trkpt lat="44.08766" lon="5.99623">
        <ele>596.40002441406</ele>
        <time>2022-01-05T11:41:44.512Z</time>
      </trkpt>
      <trkpt lat="44.08771" lon="5.99613">
        <ele>597.20001220703</ele>
        <time>2022-01-05T11:41:53.853Z</time>
      </trkpt>
      <trkpt lat="44.08776" lon="5.99607">
        <ele>597.20001220703</ele>
        <time>2022-01-05T11:42:03.196Z</time>
      </trkpt>
      <trkpt lat="44.08791" lon="5.99606">
        <ele>598.59997558594</ele>
        <time>2022-01-05T11:42:12.544Z</time>
      </trkpt>
      <trkpt lat="44.08795" lon="5.99595">
        <ele>598.59997558594</ele>
        <time>2022-01-05T11:42:21.896Z</time>
      </trkpt>
      <trkpt lat="44.08794" lon="5.99587">
        <ele>598.79998779297</ele>
        <time>2022-01-05T11:42:31.250Z</time>
      </trkpt>
      <trkpt lat="44.0879" lon="5.9958">
        <ele>598</ele>
        <time>2022-01-05T11:42:40.606Z</time>
      </trkpt>
      <trkpt lat="44.0879" lon="5.99575">
        <ele>597.59997558594</ele>
        <time>2022-01-05T11:42:49.963Z</time>
      </trkpt>
      <trkpt lat="44.08786" lon="5.99567">
        <ele>596</ele>
        <time>2022-01-05T11:42:59.322Z</time>
      </trkpt>
      <trkpt lat="44.08778" lon="5.99564">
        <ele>596</ele>
        <time>2022-01-05T11:43:08.684Z</time>
      </trkpt>
      <trkpt lat="44.0877" lon="5.99557">
        <ele>596</ele>
        <time>2022-01-05T11:43:18.050Z</time>
      </trkpt>
      <trkpt lat="44.08758" lon="5.9955">
        <ele>593.59997558594</ele>
        <time>2022-01-05T11:43:27.420Z</time>
      </trkpt>
      <trkpt lat="44.08752" lon="5.99549">
        <ele>593.59997558594</ele>
        <time>2022-01-05T11:43:36.792Z</time>
      </trkpt>
      <trkpt lat="44.08743" lon="5.99559">
        <ele>593.59997558594</ele>
        <time>2022-01-05T11:43:46.168Z</time>
      </trkpt>
      <trkpt lat="44.08732" lon="5.99565">
        <ele>593.59997558594</ele>
        <time>2022-01-05T11:43:55.548Z</time>
      </trkpt>
      <trkpt lat="44.08725" lon="5.99566">
        <ele>588</ele>
        <time>2022-01-05T11:44:04.931Z</time>
      </trkpt>
      <trkpt lat="44.08721" lon="5.99564">
        <ele>588</ele>
        <time>2022-01-05T11:44:14.315Z</time>
      </trkpt>
      <trkpt lat="44.08701" lon="5.99553">
        <ele>588</ele>
        <time>2022-01-05T11:44:23.707Z</time>
      </trkpt>
      <trkpt lat="44.08666" lon="5.99547">
        <ele>578</ele>
        <time>2022-01-05T11:44:33.111Z</time>
      </trkpt>
      <trkpt lat="44.08655" lon="5.99549">
        <ele>578</ele>
        <time>2022-01-05T11:44:42.519Z</time>
      </trkpt>
      <trkpt lat="44.08644" lon="5.99554">
        <ele>578</ele>
        <time>2022-01-05T11:44:51.931Z</time>
      </trkpt>
      <trkpt lat="44.08628" lon="5.99564">
        <ele>578</ele>
        <time>2022-01-05T11:45:01.349Z</time>
      </trkpt>
      <trkpt lat="44.08624" lon="5.99568">
        <ele>574.40002441406</ele>
        <time>2022-01-05T11:45:10.769Z</time>
      </trkpt>
      <trkpt lat="44.08617" lon="5.99582">
        <ele>575.79998779297</ele>
        <time>2022-01-05T11:45:20.193Z</time>
      </trkpt>
      <trkpt lat="44.08612" lon="5.99586">
        <ele>576</ele>
        <time>2022-01-05T11:45:29.619Z</time>
      </trkpt>
      <trkpt lat="44.08603" lon="5.99575">
        <ele>574.79998779297</ele>
        <time>2022-01-05T11:45:39.049Z</time>
      </trkpt>
      <trkpt lat="44.08582" lon="5.9956">
        <ele>569</ele>
        <time>2022-01-05T11:45:48.487Z</time>
      </trkpt>
      <trkpt lat="44.08579" lon="5.99554">
        <ele>569</ele>
        <time>2022-01-05T11:45:57.927Z</time>
      </trkpt>
      <trkpt lat="44.08576" lon="5.99542">
        <ele>567.40002441406</ele>
        <time>2022-01-05T11:46:07.370Z</time>
      </trkpt>
      <trkpt lat="44.08574" lon="5.99539">
        <ele>567.40002441406</ele>
        <time>2022-01-05T11:46:16.814Z</time>
      </trkpt>
      <trkpt lat="44.08567" lon="5.99535">
        <ele>567.40002441406</ele>
        <time>2022-01-05T11:46:26.261Z</time>
      </trkpt>
      <trkpt lat="44.08566" lon="5.99533">
        <ele>564.79998779297</ele>
        <time>2022-01-05T11:46:35.709Z</time>
      </trkpt>
      <trkpt lat="44.08566" lon="5.99524">
        <ele>564.79998779297</ele>
        <time>2022-01-05T11:46:45.159Z</time>
      </trkpt>
      <trkpt lat="44.08561" lon="5.99515">
        <ele>564.79998779297</ele>
        <time>2022-01-05T11:46:54.612Z</time>
      </trkpt>
      <trkpt lat="44.08554" lon="5.99512">
        <ele>561</ele>
        <time>2022-01-05T11:47:04.068Z</time>
      </trkpt>
      <trkpt lat="44.08533" lon="5.99508">
        <ele>558.79998779297</ele>
        <time>2022-01-05T11:47:13.531Z</time>
      </trkpt>
      <trkpt lat="44.08524" lon="5.9951">
        <ele>558.79998779297</ele>
        <time>2022-01-05T11:47:22.997Z</time>
      </trkpt>
      <trkpt lat="44.08517" lon="5.99513">
        <ele>556</ele>
        <time>2022-01-05T11:47:32.465Z</time>
      </trkpt>
      <trkpt lat="44.08504" lon="5.99506">
        <ele>553.79998779297</ele>
        <time>2022-01-05T11:47:41.938Z</time>
      </trkpt>
      <trkpt lat="44.08486" lon="5.99501">
        <ele>553.79998779297</ele>
        <time>2022-01-05T11:47:51.418Z</time>
      </trkpt>
      <trkpt lat="44.08461" lon="5.99488">
        <ele>547.79998779297</ele>
        <time>2022-01-05T11:48:00.907Z</time>
      </trkpt>
      <trkpt lat="44.08456" lon="5.99485">
        <ele>547.79998779297</ele>
        <time>2022-01-05T11:48:10.398Z</time>
      </trkpt>
      <trkpt lat="44.0845" lon="5.99476">
        <ele>547.79998779297</ele>
        <time>2022-01-05T11:48:19.892Z</time>
      </trkpt>
      <trkpt lat="44.08444" lon="5.99474">
        <ele>544.79998779297</ele>
        <time>2022-01-05T11:48:29.388Z</time>
      </trkpt>
      <trkpt lat="44.0844" lon="5.99474">
        <ele>544.79998779297</ele>
        <time>2022-01-05T11:48:38.885Z</time>
      </trkpt>
      <trkpt lat="44.08432" lon="5.99472">
        <ele>543.20001220703</ele>
        <time>2022-01-05T11:48:48.385Z</time>
      </trkpt>
      <trkpt lat="44.08417" lon="5.99462">
        <ele>543.20001220703</ele>
        <time>2022-01-05T11:48:57.891Z</time>
      </trkpt>
      <trkpt lat="44.08409" lon="5.9946">
        <ele>542</ele>
        <time>2022-01-05T11:49:07.400Z</time>
      </trkpt>
      <trkpt lat="44.08397" lon="5.99459">
        <ele>539.40002441406</ele>
        <time>2022-01-05T11:49:16.913Z</time>
      </trkpt>
      <trkpt lat="44.08388" lon="5.99465">
        <ele>539.40002441406</ele>
        <time>2022-01-05T11:49:26.430Z</time>
      </trkpt>
      <trkpt lat="44.0838" lon="5.99449">
        <ele>539.40002441406</ele>
        <time>2022-01-05T11:49:35.951Z</time>
      </trkpt>
      <trkpt lat="44.08377" lon="5.99447">
        <ele>535</ele>
        <time>2022-01-05T11:49:45.473Z</time>
      </trkpt>
      <trkpt lat="44.08373" lon="5.99444">
        <ele>535</ele>
        <time>2022-01-05T11:49:54.997Z</time>
      </trkpt>
      <trkpt lat="44.08364" lon="5.99445">
        <ele>533.79998779297</ele>
        <time>2022-01-05T11:50:04.524Z</time>
      </trkpt>
      <trkpt lat="44.08355" lon="5.99441">
        <ele>533.79998779297</ele>
        <time>2022-01-05T11:50:14.054Z</time>
      </trkpt>
      <trkpt lat="44.08344" lon="5.99424">
        <ele>530.20001220703</ele>
        <time>2022-01-05T11:50:23.590Z</time>
      </trkpt>
      <trkpt lat="44.08328" lon="5.99409">
        <ele>528.40002441406</ele>
        <time>2022-01-05T11:50:33.133Z</time>
      </trkpt>
      <trkpt lat="44.08324" lon="5.99403">
        <ele>528.40002441406</ele>
        <time>2022-01-05T11:50:42.678Z</time>
      </trkpt>
      <trkpt lat="44.08321" lon="5.99394">
        <ele>527.40002441406</ele>
        <time>2022-01-05T11:50:52.225Z</time>
      </trkpt>
      <trkpt lat="44.08297" lon="5.9937">
        <ele>527.40002441406</ele>
        <time>2022-01-05T11:51:01.783Z</time>
      </trkpt>
      <trkpt lat="44.08289" lon="5.99356">
        <ele>520.59997558594</ele>
        <time>2022-01-05T11:51:11.345Z</time>
      </trkpt>
      <trkpt lat="44.08287" lon="5.99347">
        <ele>520.59997558594</ele>
        <time>2022-01-05T11:51:20.910Z</time>
      </trkpt>
      <trkpt lat="44.0828" lon="5.99315">
        <ele>517.79998779297</ele>
        <time>2022-01-05T11:51:30.483Z</time>
      </trkpt>
      <trkpt lat="44.08278" lon="5.99292">
        <ele>517.40002441406</ele>
        <time>2022-01-05T11:51:40.062Z</time>
      </trkpt>
      <trkpt lat="44.08274" lon="5.99284">
        <ele>517.40002441406</ele>
        <time>2022-01-05T11:51:49.643Z</time>
      </trkpt>
      <trkpt lat="44.08276" lon="5.99281">
        <ele>521.40002441406</ele>
        <time>2022-01-05T11:51:59.225Z</time>
      </trkpt>
      <trkpt lat="44.08286" lon="5.99297">
        <ele>521.40002441406</ele>
        <time>2022-01-05T11:52:08.812Z</time>
      </trkpt>
      <trkpt lat="44.08293" lon="5.99305">
        <ele>528.79998779297</ele>
        <time>2022-01-05T11:52:18.402Z</time>
      </trkpt>
      <trkpt lat="44.08295" lon="5.99304">
        <ele>528.79998779297</ele>
        <time>2022-01-05T11:52:27.993Z</time>
      </trkpt>
      <trkpt lat="44.08297" lon="5.99299">
        <ele>529.20001220703</ele>
        <time>2022-01-05T11:52:37.586Z</time>
      </trkpt>
      <trkpt lat="44.08296" lon="5.9929">
        <ele>529.20001220703</ele>
        <time>2022-01-05T11:52:47.181Z</time>
      </trkpt>
      <trkpt lat="44.083" lon="5.9932">
        <ele>532.40002441406</ele>
        <time>2022-01-05T11:52:56.783Z</time>
      </trkpt>
      <trkpt lat="44.08306" lon="5.99329">
        <ele>532.40002441406</ele>
        <time>2022-01-05T11:53:06.389Z</time>
      </trkpt>
      <trkpt lat="44.0831" lon="5.99341">
        <ele>534.59997558594</ele>
        <time>2022-01-05T11:53:15.998Z</time>
      </trkpt>
      <trkpt lat="44.08321" lon="5.99361">
        <ele>534.59997558594</ele>
        <time>2022-01-05T11:53:25.613Z</time>
      </trkpt>
      <trkpt lat="44.08327" lon="5.99361">
        <ele>534.59997558594</ele>
        <time>2022-01-05T11:53:35.230Z</time>
      </trkpt>
      <trkpt lat="44.08345" lon="5.99382">
        <ele>534.59997558594</ele>
        <time>2022-01-05T11:53:44.855Z</time>
      </trkpt>
      <trkpt lat="44.08353" lon="5.99386">
        <ele>541.59997558594</ele>
        <time>2022-01-05T11:53:54.483Z</time>
      </trkpt>
      <trkpt lat="44.08371" lon="5.99382">
        <ele>542.59997558594</ele>
        <time>2022-01-05T11:54:04.117Z</time>
      </trkpt>
      <trkpt lat="44.08386" lon="5.99387">
        <ele>542.59997558594</ele>
        <time>2022-01-05T11:54:13.757Z</time>
      </trkpt>
      <trkpt lat="44.08394" lon="5.99384">
        <ele>542.59997558594</ele>
        <time>2022-01-05T11:54:23.400Z</time>
      </trkpt>
      <trkpt lat="44.08405" lon="5.99379">
        <ele>542.59997558594</ele>
        <time>2022-01-05T11:54:33.047Z</time>
      </trkpt>
      <trkpt lat="44.08419" lon="5.99379">
        <ele>542.59997558594</ele>
        <time>2022-01-05T11:54:42.698Z</time>
      </trkpt>
      <trkpt lat="44.08424" lon="5.99381">
        <ele>549.40002441406</ele>
        <time>2022-01-05T11:54:52.352Z</time>
      </trkpt>
      <trkpt lat="44.08429" lon="5.99384">
        <ele>550.20001220703</ele>
        <time>2022-01-05T11:55:02.007Z</time>
      </trkpt>
      <trkpt lat="44.08434" lon="5.99391">
        <ele>551.40002441406</ele>
        <time>2022-01-05T11:55:11.665Z</time>
      </trkpt>
      <trkpt lat="44.08439" lon="5.99394">
        <ele>551.40002441406</ele>
        <time>2022-01-05T11:55:21.325Z</time>
      </trkpt>
      <trkpt lat="44.08446" lon="5.99403">
        <ele>551.40002441406</ele>
        <time>2022-01-05T11:55:30.988Z</time>
      </trkpt>
      <trkpt lat="44.0845" lon="5.99409">
        <ele>554.79998779297</ele>
        <time>2022-01-05T11:55:40.653Z</time>
      </trkpt>
      <trkpt lat="44.08454" lon="5.99426">
        <ele>554.79998779297</ele>
        <time>2022-01-05T11:55:50.322Z</time>
      </trkpt>
      <trkpt lat="44.0847" lon="5.99433">
        <ele>559</ele>
        <time>2022-01-05T11:55:59.997Z</time>
      </trkpt>
      <trkpt lat="44.08485" lon="5.99442">
        <ele>559</ele>
        <time>2022-01-05T11:56:09.678Z</time>
      </trkpt>
      <trkpt lat="44.08495" lon="5.99445">
        <ele>560.40002441406</ele>
        <time>2022-01-05T11:56:19.362Z</time>
      </trkpt>
      <trkpt lat="44.08507" lon="5.99443">
        <ele>561.20001220703</ele>
        <time>2022-01-05T11:56:29.051Z</time>
      </trkpt>
      <trkpt lat="44.08538" lon="5.99431">
        <ele>561.20001220703</ele>
        <time>2022-01-05T11:56:38.751Z</time>
      </trkpt>
      <trkpt lat="44.08554" lon="5.99421">
        <ele>561.20001220703</ele>
        <time>2022-01-05T11:56:48.457Z</time>
      </trkpt>
      <trkpt lat="44.08565" lon="5.99418">
        <ele>560</ele>
        <time>2022-01-05T11:56:58.167Z</time>
      </trkpt>
      <trkpt lat="44.08582" lon="5.99421">
        <ele>560</ele>
        <time>2022-01-05T11:57:07.883Z</time>
      </trkpt>
      <trkpt lat="44.08601" lon="5.99428">
        <ele>563.40002441406</ele>
        <time>2022-01-05T11:57:17.606Z</time>
      </trkpt>
      <trkpt lat="44.08623" lon="5.99428">
        <ele>563.20001220703</ele>
        <time>2022-01-05T11:57:27.336Z</time>
      </trkpt>
      <trkpt lat="44.08635" lon="5.9943">
        <ele>563.20001220703</ele>
        <time>2022-01-05T11:57:37.070Z</time>
      </trkpt>
      <trkpt lat="44.08641" lon="5.99435">
        <ele>564.20001220703</ele>
        <time>2022-01-05T11:57:46.807Z</time>
      </trkpt>
      <trkpt lat="44.08651" lon="5.99437">
        <ele>564.20001220703</ele>
        <time>2022-01-05T11:57:56.547Z</time>
      </trkpt>
      <trkpt lat="44.08662" lon="5.99435">
        <ele>564.79998779297</ele>
        <time>2022-01-05T11:58:06.291Z</time>
      </trkpt>
      <trkpt lat="44.08668" lon="5.9943">
        <ele>564.40002441406</ele>
        <time>2022-01-05T11:58:16.038Z</time>
      </trkpt>
      <trkpt lat="44.08674" lon="5.99431">
        <ele>564.40002441406</ele>
        <time>2022-01-05T11:58:25.787Z</time>
      </trkpt>
      <trkpt lat="44.08687" lon="5.99441">
        <ele>565.20001220703</ele>
        <time>2022-01-05T11:58:35.541Z</time>
      </trkpt>
      <trkpt lat="44.08713" lon="5.99436">
        <ele>565.20001220703</ele>
        <time>2022-01-05T11:58:45.304Z</time>
      </trkpt>
      <trkpt lat="44.08737" lon="5.99448">
        <ele>565.20001220703</ele>
        <time>2022-01-05T11:58:55.076Z</time>
      </trkpt>
      <trkpt lat="44.08743" lon="5.99448">
        <ele>565.20001220703</ele>
        <time>2022-01-05T11:59:04.850Z</time>
      </trkpt>
      <trkpt lat="44.08754" lon="5.99445">
        <ele>567.59997558594</ele>
        <time>2022-01-05T11:59:14.628Z</time>
      </trkpt>
      <trkpt lat="44.08765" lon="5.99444">
        <ele>567.59997558594</ele>
        <time>2022-01-05T11:59:24.409Z</time>
      </trkpt>
      <trkpt lat="44.08782" lon="5.99438">
        <ele>567.59997558594</ele>
        <time>2022-01-05T11:59:34.197Z</time>
      </trkpt>
      <trkpt lat="44.08813" lon="5.99432">
        <ele>568.59997558594</ele>
        <time>2022-01-05T11:59:43.995Z</time>
      </trkpt>
      <trkpt lat="44.0884" lon="5.99423">
        <ele>571</ele>
        <time>2022-01-05T11:59:53.803Z</time>
      </trkpt>
      <trkpt lat="44.08843" lon="5.99418">
        <ele>572</ele>
        <time>2022-01-05T12:00:03.613Z</time>
      </trkpt>
      <trkpt lat="44.08842" lon="5.99411">
        <ele>572</ele>
        <time>2022-01-05T12:00:13.425Z</time>
      </trkpt>
      <trkpt lat="44.08836" lon="5.99402">
        <ele>573.40002441406</ele>
        <time>2022-01-05T12:00:23.240Z</time>
      </trkpt>
      <trkpt lat="44.08834" lon="5.99383">
        <ele>573.40002441406</ele>
        <time>2022-01-05T12:00:33.059Z</time>
      </trkpt>
      <trkpt lat="44.08838" lon="5.99379">
        <ele>573.40002441406</ele>
        <time>2022-01-05T12:00:42.880Z</time>
      </trkpt>
      <trkpt lat="44.08856" lon="5.9937">
        <ele>568.79998779297</ele>
        <time>2022-01-05T12:00:52.708Z</time>
      </trkpt>
      <trkpt lat="44.08867" lon="5.99362">
        <ele>566.79998779297</ele>
        <time>2022-01-05T12:01:02.540Z</time>
      </trkpt>
      <trkpt lat="44.08878" lon="5.99364">
        <ele>567.40002441406</ele>
        <time>2022-01-05T12:01:12.376Z</time>
      </trkpt>
      <trkpt lat="44.08911" lon="5.99362">
        <ele>569</ele>
        <time>2022-01-05T12:01:22.224Z</time>
      </trkpt>
      <trkpt lat="44.08929" lon="5.99366">
        <ele>570</ele>
        <time>2022-01-05T12:01:32.078Z</time>
      </trkpt>
      <trkpt lat="44.08948" lon="5.99375">
        <ele>570</ele>
        <time>2022-01-05T12:01:41.939Z</time>
      </trkpt>
      <trkpt lat="44.08957" lon="5.99377">
        <ele>572.40002441406</ele>
        <time>2022-01-05T12:01:51.803Z</time>
      </trkpt>
      <trkpt lat="44.08972" lon="5.99371">
        <ele>572.40002441406</ele>
        <time>2022-01-05T12:02:01.673Z</time>
      </trkpt>
      <trkpt lat="44.09002" lon="5.99379">
        <ele>572.40002441406</ele>
        <time>2022-01-05T12:02:11.553Z</time>
      </trkpt>
      <trkpt lat="44.09009" lon="5.9937">
        <ele>572.79998779297</ele>
        <time>2022-01-05T12:02:21.436Z</time>
      </trkpt>
      <trkpt lat="44.0902" lon="5.99363">
        <ele>572.79998779297</ele>
        <time>2022-01-05T12:02:31.323Z</time>
      </trkpt>
      <trkpt lat="44.09039" lon="5.99373">
        <ele>573</ele>
        <time>2022-01-05T12:02:41.217Z</time>
      </trkpt>
      <trkpt lat="44.09042" lon="5.99378">
        <ele>573.59997558594</ele>
        <time>2022-01-05T12:02:51.113Z</time>
      </trkpt>
      <trkpt lat="44.09045" lon="5.99393">
        <ele>576.79998779297</ele>
        <time>2022-01-05T12:03:01.013Z</time>
      </trkpt>
      <trkpt lat="44.09038" lon="5.99403">
        <ele>576.79998779297</ele>
        <time>2022-01-05T12:03:10.916Z</time>
      </trkpt>
      <trkpt lat="44.09018" lon="5.99409">
        <ele>580.20001220703</ele>
        <time>2022-01-05T12:03:20.826Z</time>
      </trkpt>
      <trkpt lat="44.09005" lon="5.99411">
        <ele>580.20001220703</ele>
        <time>2022-01-05T12:03:30.741Z</time>
      </trkpt>
      <trkpt lat="44.08989" lon="5.99418">
        <ele>580.20001220703</ele>
        <time>2022-01-05T12:03:40.662Z</time>
      </trkpt>
      <trkpt lat="44.08987" lon="5.99416">
        <ele>584.20001220703</ele>
        <time>2022-01-05T12:03:50.584Z</time>
      </trkpt>
      <trkpt lat="44.08964" lon="5.99414">
        <ele>585.20001220703</ele>
        <time>2022-01-05T12:04:00.514Z</time>
      </trkpt>
      <trkpt lat="44.08969" lon="5.99429">
        <ele>587.79998779297</ele>
        <time>2022-01-05T12:04:10.448Z</time>
      </trkpt>
      <trkpt lat="44.08973" lon="5.99434">
        <ele>587.79998779297</ele>
        <time>2022-01-05T12:04:20.384Z</time>
      </trkpt>
      <trkpt lat="44.08981" lon="5.9944">
        <ele>590</ele>
        <time>2022-01-05T12:04:30.323Z</time>
      </trkpt>
      <trkpt lat="44.08993" lon="5.99457">
        <ele>590</ele>
        <time>2022-01-05T12:04:40.268Z</time>
      </trkpt>
      <trkpt lat="44.09005" lon="5.99467">
        <ele>590</ele>
        <time>2022-01-05T12:04:50.217Z</time>
      </trkpt>
      <trkpt lat="44.09021" lon="5.99471">
        <ele>590</ele>
        <time>2022-01-05T12:05:00.172Z</time>
      </trkpt>
      <trkpt lat="44.09035" lon="5.99467">
        <ele>596.59997558594</ele>
        <time>2022-01-05T12:05:10.132Z</time>
      </trkpt>
      <trkpt lat="44.09048" lon="5.99469">
        <ele>596.59997558594</ele>
        <time>2022-01-05T12:05:20.097Z</time>
      </trkpt>
      <trkpt lat="44.09083" lon="5.99491">
        <ele>601.40002441406</ele>
        <time>2022-01-05T12:05:30.075Z</time>
      </trkpt>
      <trkpt lat="44.09086" lon="5.995">
        <ele>602</ele>
        <time>2022-01-05T12:05:40.056Z</time>
      </trkpt>
      <trkpt lat="44.09088" lon="5.99518">
        <ele>602.59997558594</ele>
        <time>2022-01-05T12:05:50.041Z</time>
      </trkpt>
      <trkpt lat="44.09094" lon="5.9953">
        <ele>602.59997558594</ele>
        <time>2022-01-05T12:06:00.030Z</time>
      </trkpt>
      <trkpt lat="44.09106" lon="5.99562">
        <ele>602.59997558594</ele>
        <time>2022-01-05T12:06:10.028Z</time>
      </trkpt>
      <trkpt lat="44.09122" lon="5.99575">
        <ele>599.40002441406</ele>
        <time>2022-01-05T12:06:20.032Z</time>
      </trkpt>
      <trkpt lat="44.09137" lon="5.99592">
        <ele>597.59997558594</ele>
        <time>2022-01-05T12:06:30.043Z</time>
      </trkpt>
      <trkpt lat="44.09158" lon="5.99602">
        <ele>597.59997558594</ele>
        <time>2022-01-05T12:06:40.062Z</time>
      </trkpt>
      <trkpt lat="44.09166" lon="5.99601">
        <ele>593.79998779297</ele>
        <time>2022-01-05T12:06:50.084Z</time>
      </trkpt>
      <trkpt lat="44.09175" lon="5.99597">
        <ele>593.79998779297</ele>
        <time>2022-01-05T12:07:00.109Z</time>
      </trkpt>
      <trkpt lat="44.09187" lon="5.99601">
        <ele>593.79998779297</ele>
        <time>2022-01-05T12:07:10.138Z</time>
      </trkpt>
      <trkpt lat="44.09196" lon="5.99602">
        <ele>589.40002441406</ele>
        <time>2022-01-05T12:07:20.170Z</time>
      </trkpt>
      <trkpt lat="44.09199" lon="5.99605">
        <ele>589.40002441406</ele>
        <time>2022-01-05T12:07:30.203Z</time>
      </trkpt>
      <trkpt lat="44.09202" lon="5.99616">
        <ele>589.40002441406</ele>
        <time>2022-01-05T12:07:40.240Z</time>
      </trkpt>
      <trkpt lat="44.09203" lon="5.9963">
        <ele>582</ele>
        <time>2022-01-05T12:07:50.280Z</time>
      </trkpt>
      <trkpt lat="44.0921" lon="5.99633">
        <ele>582</ele>
        <time>2022-01-05T12:08:00.323Z</time>
      </trkpt>
      <trkpt lat="44.09216" lon="5.99642">
        <ele>582</ele>
        <time>2022-01-05T12:08:10.369Z</time>
      </trkpt>
      <trkpt lat="44.09223" lon="5.99644">
        <ele>577.79998779297</ele>
        <time>2022-01-05T12:08:20.417Z</time>
      </trkpt>
      <trkpt lat="44.09227" lon="5.99651">
        <ele>577</ele>
        <time>2022-01-05T12:08:30.468Z</time>
      </trkpt>
      <trkpt lat="44.09238" lon="5.99664">
        <ele>576.20001220703</ele>
        <time>2022-01-05T12:08:40.524Z</time>
      </trkpt>
      <trkpt lat="44.09251" lon="5.99665">
        <ele>574.79998779297</ele>
        <time>2022-01-05T12:08:50.584Z</time>
      </trkpt>
      <trkpt lat="44.09255" lon="5.99667">
        <ele>573.40002441406</ele>
        <time>2022-01-05T12:09:00.646Z</time>
      </trkpt>
      <trkpt lat="44.0927" lon="5.99696">
        <ele>573.40002441406</ele>
        <time>2022-01-05T12:09:10.716Z</time>
      </trkpt>
      <trkpt lat="44.09295" lon="5.99707">
        <ele>573.40002441406</ele>
        <time>2022-01-05T12:09:20.796Z</time>
      </trkpt>
      <trkpt lat="44.09303" lon="5.99715">
        <ele>567.40002441406</ele>
        <time>2022-01-05T12:09:30.879Z</time>
      </trkpt>
      <trkpt lat="44.09308" lon="5.99729">
        <ele>566</ele>
        <time>2022-01-05T12:09:40.966Z</time>
      </trkpt>
      <trkpt lat="44.09316" lon="5.99733">
        <ele>566</ele>
        <time>2022-01-05T12:09:51.056Z</time>
      </trkpt>
      <trkpt lat="44.09325" lon="5.99725">
        <ele>566</ele>
        <time>2022-01-05T12:10:01.150Z</time>
      </trkpt>
      <trkpt lat="44.09323" lon="5.9973">
        <ele>563.59997558594</ele>
        <time>2022-01-05T12:10:11.245Z</time>
      </trkpt>
      <trkpt lat="44.09326" lon="5.99747">
        <ele>562</ele>
        <time>2022-01-05T12:10:21.344Z</time>
      </trkpt>
      <trkpt lat="44.09336" lon="5.99748">
        <ele>560.79998779297</ele>
        <time>2022-01-05T12:10:31.447Z</time>
      </trkpt>
      <trkpt lat="44.09345" lon="5.99768">
        <ele>560.79998779297</ele>
        <time>2022-01-05T12:10:41.556Z</time>
      </trkpt>
      <trkpt lat="44.09358" lon="5.9978">
        <ele>560.79998779297</ele>
        <time>2022-01-05T12:10:51.670Z</time>
      </trkpt>
      <trkpt lat="44.09361" lon="5.99811">
        <ele>557.59997558594</ele>
        <time>2022-01-05T12:11:01.792Z</time>
      </trkpt>
      <trkpt lat="44.09375" lon="5.99826">
        <ele>557.20001220703</ele>
        <time>2022-01-05T12:11:11.920Z</time>
      </trkpt>
      <trkpt lat="44.09384" lon="5.99843">
        <ele>554.59997558594</ele>
        <time>2022-01-05T12:11:22.053Z</time>
      </trkpt>
      <trkpt lat="44.09386" lon="5.9985">
        <ele>554.59997558594</ele>
        <time>2022-01-05T12:11:32.188Z</time>
      </trkpt>
      <trkpt lat="44.09385" lon="5.99886">
        <ele>550.79998779297</ele>
        <time>2022-01-05T12:11:42.332Z</time>
      </trkpt>
      <trkpt lat="44.0939" lon="5.99902">
        <ele>549.40002441406</ele>
        <time>2022-01-05T12:11:52.480Z</time>
      </trkpt>
      <trkpt lat="44.09397" lon="5.99912">
        <ele>549.40002441406</ele>
        <time>2022-01-05T12:12:02.632Z</time>
      </trkpt>
      <trkpt lat="44.09421" lon="5.99918">
        <ele>544.40002441406</ele>
        <time>2022-01-05T12:12:12.792Z</time>
      </trkpt>
      <trkpt lat="44.09446" lon="5.9993">
        <ele>539.20001220703</ele>
        <time>2022-01-05T12:12:22.962Z</time>
      </trkpt>
      <trkpt lat="44.09471" lon="5.99947">
        <ele>534.79998779297</ele>
        <time>2022-01-05T12:12:33.141Z</time>
      </trkpt>
      <trkpt lat="44.09491" lon="5.99957">
        <ele>534.79998779297</ele>
        <time>2022-01-05T12:12:43.328Z</time>
      </trkpt>
      <trkpt lat="44.095" lon="5.99965">
        <ele>532</ele>
        <time>2022-01-05T12:12:53.518Z</time>
      </trkpt>
      <trkpt lat="44.09505" lon="5.99975">
        <ele>532</ele>
        <time>2022-01-05T12:13:03.711Z</time>
      </trkpt>
      <trkpt lat="44.09507" lon="5.99992">
        <ele>532</ele>
        <time>2022-01-05T12:13:13.909Z</time>
      </trkpt>
      <trkpt lat="44.09507" lon="6.00073">
        <ele>532</ele>
        <time>2022-01-05T12:13:24.127Z</time>
      </trkpt>
      <trkpt lat="44.0951" lon="6.00161">
        <ele>524.20001220703</ele>
        <time>2022-01-05T12:13:34.367Z</time>
      </trkpt>
      <trkpt lat="44.09517" lon="6.00223">
        <ele>524.20001220703</ele>
        <time>2022-01-05T12:13:44.623Z</time>
      </trkpt>
      <trkpt lat="44.09522" lon="6.00251">
        <ele>524.20001220703</ele>
        <time>2022-01-05T12:13:54.886Z</time>
      </trkpt>
      <trkpt lat="44.09531" lon="6.0027">
        <ele>524.20001220703</ele>
        <time>2022-01-05T12:14:05.155Z</time>
      </trkpt>
      <trkpt lat="44.09545" lon="6.0029">
        <ele>524.20001220703</ele>
        <time>2022-01-05T12:14:15.431Z</time>
      </trkpt>
      <trkpt lat="44.09558" lon="6.00303">
        <ele>517</ele>
        <time>2022-01-05T12:14:25.712Z</time>
      </trkpt>
      <trkpt lat="44.09595" lon="6.00336">
        <ele>517</ele>
        <time>2022-01-05T12:14:36.008Z</time>
      </trkpt>
      <trkpt lat="44.09602" lon="6.00344">
        <ele>512.40002441406</ele>
        <time>2022-01-05T12:14:46.308Z</time>
      </trkpt>
      <trkpt lat="44.09614" lon="6.00364">
        <ele>512.40002441406</ele>
        <time>2022-01-05T12:14:56.614Z</time>
      </trkpt>
      <trkpt lat="44.09628" lon="6.00397">
        <ele>509.60000610352</ele>
        <time>2022-01-05T12:15:06.930Z</time>
      </trkpt>
      <trkpt lat="44.09657" lon="6.00488">
        <ele>507.39999389648</ele>
        <time>2022-01-05T12:15:17.270Z</time>
      </trkpt>
      <trkpt lat="44.09663" lon="6.00495">
        <ele>507.39999389648</ele>
        <time>2022-01-05T12:15:27.613Z</time>
      </trkpt>
      <trkpt lat="44.0967" lon="6.00495">
        <ele>508.20001220703</ele>
        <time>2022-01-05T12:15:37.959Z</time>
      </trkpt>
      <trkpt lat="44.09676" lon="6.00492">
        <ele>508.39999389648</ele>
        <time>2022-01-05T12:15:48.307Z</time>
      </trkpt>
      <trkpt lat="44.09694" lon="6.00477">
        <ele>508.39999389648</ele>
        <time>2022-01-05T12:15:58.662Z</time>
      </trkpt>
      <trkpt lat="44.0974" lon="6.00432">
        <ele>509.79998779297</ele>
        <time>2022-01-05T12:16:09.037Z</time>
      </trkpt>
      <trkpt lat="44.09749" lon="6.00424">
        <ele>509.79998779297</ele>
        <time>2022-01-05T12:16:19.416Z</time>
      </trkpt>
      <trkpt lat="44.09752" lon="6.00426">
        <ele>510.20001220703</ele>
        <time>2022-01-05T12:16:29.795Z</time>
      </trkpt>
      <trkpt lat="44.09792" lon="6.00545">
        <ele>510.20001220703</ele>
        <time>2022-01-05T12:16:40.207Z</time>
      </trkpt>
      <trkpt lat="44.09817" lon="6.00597">
        <ele>510.20001220703</ele>
        <time>2022-01-05T12:16:50.635Z</time>
      </trkpt>
      <trkpt lat="44.09852" lon="6.00654">
        <ele>510.20001220703</ele>
        <time>2022-01-05T12:17:01.082Z</time>
      </trkpt>
      <trkpt lat="44.09872" lon="6.0069">
        <ele>511.20001220703</ele>
        <time>2022-01-05T12:17:11.540Z</time>
      </trkpt>
      <trkpt lat="44.09875" lon="6.00694">
        <ele>511.20001220703</ele>
        <time>2022-01-05T12:17:22.000Z</time>
      </trkpt>
      <trkpt lat="44.09893" lon="6.00697">
        <ele>510.39999389648</ele>
        <time>2022-01-05T12:17:32.466Z</time>
      </trkpt>
      <trkpt lat="44.0994" lon="6.00678">
        <ele>510.39999389648</ele>
        <time>2022-01-05T12:17:42.949Z</time>
      </trkpt>
      <trkpt lat="44.09939" lon="6.00683">
        <ele>510.39999389648</ele>
        <time>2022-01-05T12:17:53.433Z</time>
      </trkpt>
      <trkpt lat="44.09938" lon="6.007">
        <ele>510.39999389648</ele>
        <time>2022-01-05T12:18:03.922Z</time>
      </trkpt>
      <trkpt lat="44.09929" lon="6.0073">
        <ele>510.39999389648</ele>
        <time>2022-01-05T12:18:14.419Z</time>
      </trkpt>
      <trkpt lat="44.09932" lon="6.00743">
        <ele>485</ele>
        <time>2022-01-05T12:18:24.919Z</time>
      </trkpt>
      <trkpt lat="44.09911" lon="6.00765">
        <ele>482.39999389648</ele>
        <time>2022-01-05T12:18:35.428Z</time>
      </trkpt>
      <trkpt lat="44.09905" lon="6.00777">
        <ele>482.39999389648</ele>
        <time>2022-01-05T12:18:45.941Z</time>
      </trkpt>
      <trkpt lat="44.09889" lon="6.0082">
        <ele>478.39999389648</ele>
        <time>2022-01-05T12:18:56.466Z</time>
      </trkpt>
      <trkpt lat="44.09883" lon="6.0085">
        <ele>478.39999389648</ele>
        <time>2022-01-05T12:19:06.999Z</time>
      </trkpt>
      <trkpt lat="44.09883" lon="6.00927">
        <ele>478.39999389648</ele>
        <time>2022-01-05T12:19:17.551Z</time>
      </trkpt>
      <trkpt lat="44.09879" lon="6.00947">
        <ele>478.39999389648</ele>
        <time>2022-01-05T12:19:28.108Z</time>
      </trkpt>
      <trkpt lat="44.09874" lon="6.00956">
        <ele>469.20001220703</ele>
        <time>2022-01-05T12:19:38.668Z</time>
      </trkpt>
      <trkpt lat="44.0987" lon="6.00961">
        <ele>469.20001220703</ele>
        <time>2022-01-05T12:19:49.230Z</time>
      </trkpt>
    </trkseg>
  </trk>
</gpx>